[[{"header":{"parameterUnit":"m.s-1","parameterCategory":1,"la1":30.6,"la2":29.2853,"lo1":-89.7004,"lo2":-87.6739,"dy":0.0162,"dx":0.0183,"nx":112,"ny":82,"refTime":"2023-06-28T12:00:00:Z","depth":0,"parameterNumber":2,"parameterNumberName":"U-component_of_WINDS"},"data":[0.0,0.0,0.0,0.0,0.0,0.0,0.0,0.0,0.0,0.0,0.0,0.0,0.0,0.0,0.0,0.0,0.0,0.0,0.0,0.0,0.0,0.0,0.0,0.0,0.0,0.0,0.0,0.0,0.0,0.0,0.0,0.0,0.0,0.0,0.0,0.0,0.0,0.0,0.0,0.0,0.0,0.0,0.0,0.0,0.0,0.0,0.0,0.0,0.0,0.0,0.0,0.0,0.0,0.0,0.0,0.0,0.0,0.0,0.0,0.0,0.0,0.0,0.0,0.0,0.0,0.0,0.0,0.0,0.0,0.0,0.0,0.0,0.0,0.0,0.0,0.0,0.0,0.0,0.0,0.0,0.0,0.0,0.0,0.0,0.0,0.0,0.0,0.0,0.0,0.0,0.0,-2.2512,-2.3836,-2.4477,-2.4518,-2.438,-2.3207,-2.0646,0.0,0.0,0.0,0.0,0.0,0.0,0.0,0.0,0.0,0.0,0.0,0.0,0.0,0.0,0.0,0.0,0.0,0.0,0.0,0.0,0.0,0.0,0.0,0.0,0.0,0.0,0.0,0.0,0.0,0.0,0.0,0.0,0.0,0.0,0.0,0.0,0.0,0.0,0.0,0.0,0.0,0.0,0.0,0.0,0.0,0.0,0.0,0.0,0.0,0.0,0.0,0.0,0.0,0.0,0.0,0.0,0.0,0.0,0.0,0.0,0.0,0.0,0.0,0.0,0.0,0.0,0.0,0.0,0.0,0.0,0.0,0.0,0.0,0.0,0.0,0.0,0.0,0.0,0.0,0.0,0.0,0.0,0.0,0.0,0.0,0.0,0.0,0.0,0.0,0.0,0.0,0.0,0.0,0.0,0.0,0.0,0.0,0.0,0.0,0.0,0.0,0.0,0.0,0.0,-2.0775,-2.3894,-2.4277,-2.44,-2.4569,-2.4405,-2.3344,-2.1051,0.0,0.0,0.0,0.0,0.0,0.0,0.0,0.0,0.0,0.0,0.0,0.0,0.0,0.0,0.0,0.0,0.0,0.0,0.0,0.0,0.0,0.0,0.0,0.0,0.0,0.0,0.0,0.0,0.0,0.0,0.0,0.0,0.0,0.0,0.0,0.0,0.0,0.0,0.0,0.0,0.0,0.0,0.0,0.0,0.0,0.0,0.0,0.0,0.0,0.0,0.0,0.0,0.0,0.0,0.0,0.0,0.0,0.0,0.0,0.0,0.0,0.0,0.0,0.0,0.0,0.0,0.0,0.0,0.0,0.0,0.0,0.0,0.0,0.0,0.0,0.0,0.0,0.0,0.0,0.0,0.0,0.0,0.0,0.0,0.0,0.0,0.0,0.0,0.0,0.0,0.0,0.0,0.0,0.0,0.0,0.0,0.0,0.0,0.0,0.0,0.0,0.0,0.0,-2.0403,-2.2576,-2.422,-2.4338,-2.4343,-2.4426,-2.4421,-2.3266,-2.0565,-1.998,0.0,0.0,0.0,0.0,0.0,0.0,0.0,0.0,0.0,0.0,0.0,0.0,0.0,0.0,0.0,0.0,0.0,0.0,0.0,0.0,0.0,0.0,0.0,0.0,0.0,0.0,0.0,0.0,0.0,0.0,0.0,0.0,0.0,0.0,0.0,0.0,0.0,0.0,0.0,0.0,0.0,0.0,0.0,0.0,0.0,0.0,0.0,0.0,0.0,0.0,0.0,0.0,0.0,0.0,0.0,0.0,0.0,0.0,0.0,0.0,0.0,0.0,0.0,0.0,0.0,0.0,0.0,0.0,0.0,0.0,0.0,0.0,0.0,0.0,0.0,0.0,0.0,0.0,0.0,0.0,0.0,0.0,0.0,0.0,0.0,0.0,0.0,0.0,0.0,0.0,0.0,0.0,0.0,0.0,0.0,0.0,0.0,0.0,0.0,0.0,0.0,0.0,-2.1809,-2.3561,-2.423,-2.4302,-2.4302,-2.4302,-2.4421,-2.3203,-2.0112,-1.9782,0.0,0.0,0.0,0.0,0.0,0.0,0.0,0.0,0.0,0.0,0.0,0.0,0.0,0.0,0.0,0.0,0.0,0.0,0.0,0.0,0.0,0.0,0.0,0.0,0.0,0.0,0.0,0.0,0.0,0.0,0.0,0.0,0.0,0.0,0.0,0.0,0.0,0.0,0.0,0.0,0.0,0.0,0.0,0.0,0.0,0.0,0.0,0.0,0.0,0.0,0.0,0.0,0.0,0.0,0.0,0.0,0.0,0.0,0.0,0.0,0.0,0.0,0.0,0.0,0.0,0.0,0.0,0.0,0.0,0.0,0.0,0.0,0.0,0.0,0.0,0.0,0.0,0.0,0.0,0.0,0.0,0.0,0.0,0.0,0.0,0.0,0.0,0.0,0.0,0.0,0.0,0.0,0.0,0.0,0.0,0.0,0.0,0.0,0.0,0.0,0.0,0.0,-2.1111,-2.2878,-2.4158,-2.4302,-2.4302,-2.4302,-2.4421,-2.3222,-2.018,-1.9975,0.0,0.0,0.0,0.0,0.0,0.0,0.0,0.0,0.0,0.0,0.0,0.0,0.0,0.0,0.0,0.0,0.0,0.0,0.0,0.0,0.0,0.0,0.0,0.0,0.0,0.0,0.0,0.0,0.0,0.0,0.0,0.0,0.0,0.0,0.0,0.0,0.0,0.0,0.0,0.0,0.0,0.0,0.0,0.0,0.0,0.0,0.0,0.0,0.0,0.0,0.0,0.0,0.0,0.0,0.0,0.0,0.0,0.0,0.0,0.0,0.0,0.0,0.0,0.0,0.0,0.0,0.0,0.0,0.0,0.0,0.0,0.0,0.0,0.0,0.0,0.0,0.0,0.0,0.0,0.0,0.0,0.0,0.0,0.0,0.0,0.0,0.0,0.0,0.0,0.0,0.0,0.0,0.0,0.0,0.0,0.0,0.0,0.0,0.0,0.0,0.0,0.0,-2.109,-2.2978,0.0,-2.3867,-2.403,-2.438,-2.4503,-2.3191,-2.0007,0.0,0.0,0.0,0.0,0.0,0.0,0.0,0.0,0.0,0.0,0.0,0.0,0.0,0.0,0.0,0.0,0.0,0.0,0.0,0.0,0.0,0.0,0.0,0.0,0.0,0.0,0.0,0.0,0.0,0.0,0.0,0.0,0.0,0.0,0.0,0.0,0.0,0.0,0.0,0.0,0.0,0.0,0.0,0.0,0.0,0.0,0.0,0.0,0.0,0.0,0.0,0.0,0.0,0.0,0.0,0.0,0.0,0.0,0.0,0.0,0.0,0.0,0.0,0.0,0.0,0.0,0.0,0.0,0.0,0.0,0.0,0.0,0.0,0.0,0.0,0.0,0.0,0.0,0.0,0.0,0.0,0.0,0.0,0.0,0.0,0.0,0.0,0.0,0.0,0.0,0.0,0.0,0.0,0.0,0.0,0.0,0.0,0.0,0.0,0.0,0.0,0.0,-1.8611,-2.1118,-2.3024,0.0,-2.3377,-2.3616,-2.4234,-2.4323,-2.2998,-1.9828,0.0,0.0,0.0,0.0,0.0,0.0,0.0,0.0,0.0,0.0,0.0,0.0,0.0,0.0,0.0,0.0,0.0,0.0,0.0,0.0,0.0,0.0,0.0,0.0,0.0,0.0,0.0,0.0,0.0,0.0,0.0,0.0,0.0,0.0,0.0,0.0,0.0,0.0,0.0,0.0,0.0,0.0,0.0,0.0,0.0,0.0,0.0,0.0,0.0,0.0,0.0,0.0,0.0,0.0,0.0,0.0,0.0,0.0,0.0,0.0,0.0,0.0,0.0,0.0,0.0,0.0,0.0,0.0,0.0,0.0,0.0,0.0,0.0,0.0,0.0,0.0,0.0,0.0,0.0,0.0,0.0,0.0,0.0,0.0,0.0,0.0,0.0,0.0,0.0,0.0,0.0,0.0,0.0,0.0,0.0,0.0,0.0,0.0,0.0,0.0,0.0,0.0,-1.8592,-2.1097,-2.2889,-2.2889,-2.2889,-2.3135,-2.3754,-2.3797,-2.257,0.0,0.0,0.0,0.0,0.0,0.0,0.0,0.0,0.0,0.0,0.0,0.0,0.0,0.0,0.0,0.0,0.0,0.0,0.0,0.0,0.0,0.0,0.0,0.0,0.0,0.0,0.0,0.0,0.0,0.0,0.0,0.0,0.0,0.0,0.0,0.0,0.0,0.0,0.0,0.0,0.0,0.0,0.0,0.0,0.0,0.0,0.0,0.0,0.0,0.0,0.0,0.0,0.0,0.0,0.0,0.0,0.0,0.0,0.0,0.0,0.0,0.0,0.0,0.0,0.0,0.0,0.0,0.0,0.0,0.0,0.0,0.0,0.0,0.0,0.0,0.0,0.0,0.0,0.0,0.0,0.0,0.0,0.0,0.0,0.0,0.0,0.0,0.0,0.0,0.0,0.0,0.0,0.0,0.0,0.0,0.0,0.0,0.0,0.0,0.0,0.0,0.0,0.0,-1.8149,-2.0617,-2.2402,-2.2402,-2.2402,-2.264,-2.3194,-2.3238,-2.2062,-1.9246,0.0,0.0,0.0,0.0,0.0,0.0,0.0,0.0,0.0,0.0,0.0,0.0,0.0,0.0,0.0,0.0,0.0,0.0,0.0,0.0,0.0,0.0,0.0,0.0,0.0,0.0,0.0,0.0,0.0,0.0,0.0,0.0,0.0,0.0,0.0,0.0,0.0,0.0,0.0,0.0,0.0,0.0,0.0,0.0,0.0,0.0,0.0,0.0,0.0,0.0,0.0,0.0,0.0,0.0,0.0,0.0,0.0,0.0,0.0,0.0,0.0,0.0,0.0,0.0,0.0,0.0,0.0,0.0,0.0,0.0,0.0,0.0,0.0,0.0,0.0,0.0,0.0,0.0,0.0,0.0,0.0,0.0,0.0,0.0,0.0,0.0,0.0,0.0,0.0,0.0,0.0,0.0,0.0,0.0,0.0,0.0,0.0,0.0,0.0,0.0,0.0,0.0,-1.8447,-2.0986,-2.27,-2.24,-2.2349,-2.2461,-2.2694,-2.2703,-2.1772,-1.9681,0.0,0.0,0.0,0.0,0.0,0.0,0.0,0.0,0.0,0.0,0.0,0.0,0.0,0.0,0.0,0.0,0.0,0.0,0.0,0.0,0.0,0.0,0.0,0.0,0.0,0.0,0.0,0.0,0.0,0.0,0.0,0.0,0.0,0.0,0.0,0.0,0.0,0.0,0.0,0.0,0.0,0.0,0.0,0.0,0.0,0.0,0.0,0.0,0.0,0.0,0.0,0.0,0.0,0.0,0.0,0.0,0.0,0.0,0.0,0.0,0.0,0.0,0.0,0.0,0.0,0.0,0.0,0.0,0.0,0.0,0.0,0.0,0.0,0.0,0.0,0.0,0.0,0.0,0.0,0.0,0.0,0.0,0.0,0.0,0.0,0.0,0.0,0.0,0.0,0.0,0.0,0.0,0.0,0.0,0.0,0.0,0.0,0.0,0.0,0.0,0.0,0.0,-1.9148,-2.1766,-2.3425,-2.2734,-2.2729,-2.2679,-2.2461,-2.2353,-2.1835,-2.0706,0.0,0.0,0.0,0.0,0.0,0.0,0.0,0.0,0.0,0.0,0.0,0.0,0.0,0.0,0.0,0.0,0.0,0.0,0.0,0.0,0.0,0.0,0.0,0.0,0.0,0.0,0.0,0.0,0.0,0.0,0.0,0.0,0.0,0.0,0.0,0.0,0.0,0.0,0.0,0.0,0.0,0.0,0.0,0.0,0.0,0.0,0.0,0.0,0.0,0.0,0.0,0.0,0.0,0.0,0.0,0.0,0.0,0.0,0.0,0.0,-2.1264,0.0,0.0,0.0,0.0,0.0,0.0,0.0,0.0,0.0,0.0,0.0,0.0,0.0,0.0,0.0,0.0,0.0,0.0,0.0,0.0,0.0,0.0,0.0,0.0,0.0,0.0,0.0,0.0,0.0,0.0,0.0,0.0,0.0,0.0,0.0,0.0,0.0,0.0,0.0,0.0,0.0,-1.8883,-2.1599,-2.3473,-2.331,-2.3764,-2.3907,-2.3434,-2.3241,-2.2675,-2.1585,-2.0229,0.0,0.0,0.0,0.0,0.0,0.0,0.0,0.0,0.0,0.0,0.0,0.0,0.0,0.0,0.0,0.0,0.0,0.0,0.0,0.0,0.0,0.0,0.0,0.0,0.0,0.0,0.0,0.0,0.0,0.0,0.0,0.0,0.0,0.0,0.0,0.0,0.0,0.0,0.0,0.0,0.0,0.0,0.0,0.0,0.0,0.0,0.0,0.0,0.0,0.0,0.0,0.0,0.0,0.0,0.0,0.0,0.0,0.0,0.0,0.0,-2.1374,0.0,0.0,0.0,0.0,0.0,0.0,0.0,0.0,0.0,0.0,0.0,0.0,0.0,0.0,0.0,0.0,0.0,0.0,0.0,0.0,0.0,0.0,0.0,0.0,0.0,0.0,0.0,0.0,0.0,0.0,0.0,0.0,0.0,0.0,0.0,0.0,0.0,0.0,0.0,0.0,-1.9938,-2.2575,-2.431,-2.3929,-2.4215,-2.4142,-2.3516,-2.3691,-2.333,-2.2133,-2.1271,0.0,0.0,0.0,0.0,0.0,0.0,0.0,0.0,0.0,0.0,0.0,0.0,0.0,0.0,0.0,0.0,0.0,0.0,0.0,0.0,0.0,0.0,0.0,0.0,0.0,0.0,0.0,0.0,0.0,0.0,0.0,0.0,0.0,0.0,0.0,0.0,0.0,0.0,0.0,0.0,0.0,0.0,0.0,0.0,0.0,0.0,0.0,0.0,0.0,0.0,0.0,0.0,0.0,-2.535,-2.6165,-2.7055,-2.7055,-2.717,-2.7312,-2.5575,-2.5135,-2.5483,-2.3541,0.0,0.0,0.0,0.0,0.0,0.0,0.0,0.0,0.0,0.0,0.0,0.0,0.0,0.0,0.0,0.0,0.0,0.0,0.0,0.0,0.0,0.0,0.0,0.0,-2.2741,-2.2399,-2.1981,0.0,0.0,0.0,0.0,0.0,0.0,0.0,0.0,0.0,0.0,0.0,-2.1052,-2.3602,-2.5177,-2.4518,-2.4558,-2.4366,-2.3647,-2.4147,-2.403,-2.2935,-2.2482,-2.162,0.0,0.0,0.0,0.0,0.0,0.0,0.0,0.0,0.0,0.0,0.0,0.0,0.0,0.0,0.0,0.0,0.0,0.0,0.0,0.0,0.0,0.0,0.0,0.0,0.0,0.0,0.0,0.0,0.0,0.0,0.0,0.0,-2.183,-2.1979,0.0,0.0,0.0,0.0,0.0,0.0,0.0,0.0,0.0,0.0,0.0,0.0,0.0,-2.6842,-2.6082,-2.8369,-2.936,-2.9069,-3.0523,-3.1665,-3.239,-3.239,-3.2593,-3.282,-3.0699,0.0,-2.6935,-2.6696,0.0,0.0,0.0,0.0,0.0,0.0,0.0,0.0,0.0,0.0,0.0,0.0,0.0,0.0,0.0,0.0,0.0,0.0,0.0,0.0,0.0,0.0,-2.6809,-2.6586,-2.5544,-2.491,0.0,-2.3267,-2.0812,-2.1538,-2.1252,0.0,0.0,0.0,0.0,0.0,0.0,0.0,-2.0601,-2.3316,-2.5203,-2.5093,-2.563,-2.5806,-2.5232,-2.5228,-2.5234,-2.5171,-2.4043,-2.283,-2.1556,-2.2257,0.0,0.0,0.0,0.0,0.0,0.0,0.0,0.0,0.0,0.0,0.0,0.0,0.0,0.0,0.0,0.0,0.0,0.0,0.0,0.0,0.0,0.0,0.0,0.0,0.0,0.0,0.0,0.0,0.0,-2.1946,-2.2189,-2.2809,-2.1963,-2.0999,0.0,0.0,0.0,0.0,0.0,0.0,0.0,0.0,0.0,-2.7339,-2.8319,-2.905,-2.9508,-3.1208,-3.2138,-3.2269,-3.3273,-3.434,-3.5377,-3.5377,-3.554,-3.5786,-3.4823,-3.3611,-3.2128,-2.9774,-2.8898,-2.8788,0.0,0.0,0.0,0.0,-2.3512,-2.4292,-2.4297,-2.5204,-2.6213,-2.5389,0.0,0.0,0.0,0.0,0.0,0.0,0.0,0.0,0.0,0.0,-2.6771,-2.7737,-2.7413,-2.7127,-2.8126,-2.6146,-2.4096,0.0,-2.3188,-2.2044,-2.0159,0.0,0.0,0.0,0.0,-2.2634,-2.2585,-2.4354,-2.5591,-2.5591,-2.5879,-2.5825,-2.5272,-2.5707,-2.574,-2.5097,-2.5127,-2.4549,-2.315,-2.3191,-2.1853,0.0,0.0,0.0,0.0,0.0,0.0,0.0,0.0,0.0,0.0,0.0,0.0,0.0,0.0,0.0,0.0,0.0,0.0,0.0,0.0,0.0,0.0,0.0,0.0,0.0,0.0,0.0,0.0,-2.2538,-2.3186,-2.4206,-2.3604,-2.2839,0.0,0.0,0.0,0.0,0.0,0.0,-2.7057,-2.7478,-2.8466,-3.0107,-3.1052,-3.2028,-3.3043,-3.421,-3.4951,-3.5379,-3.5786,-3.6632,-3.7821,-3.7821,-3.7963,-3.816,-3.816,-3.7799,-3.6929,-3.3217,-3.1769,-3.1767,-3.0429,-2.9431,-2.8555,-2.7198,-2.7021,-2.7397,-2.7187,-2.798,-2.8874,-2.7832,-2.6862,-2.5925,-2.4682,0.0,0.0,0.0,0.0,-2.4008,-2.5365,-2.5958,-2.6648,-2.8334,-2.8608,-2.8634,-2.9148,-2.8015,-2.6735,0.0,-2.5146,-2.3689,-2.1559,0.0,0.0,0.0,0.0,-2.3974,-2.3949,-2.5094,-2.5893,-2.5893,-2.6096,-2.5974,-2.5384,-2.6095,-2.615,-2.5046,-2.5865,-2.5785,-2.4431,-2.4104,-2.2815,-2.0371,0.0,0.0,0.0,0.0,0.0,0.0,0.0,0.0,0.0,0.0,0.0,0.0,0.0,0.0,0.0,0.0,0.0,0.0,0.0,0.0,0.0,0.0,0.0,0.0,0.0,0.0,0.0,0.0,0.0,-2.6418,-2.738,0.0,0.0,0.0,0.0,-2.7409,-2.7382,-2.7996,-2.9526,-3.129,-3.2753,-3.3803,-3.6099,-3.702,-3.6469,-3.7766,-3.8555,-3.8763,-3.8913,-3.9446,-4.0335,-4.0335,-4.0394,-4.0541,-4.0541,-4.0221,-3.953,-3.7149,-3.6104,-3.5815,-3.3909,-3.3364,-3.3347,-3.0881,-3.1085,-3.2547,-3.2046,-3.2698,-3.3525,-3.2015,-2.901,-2.5629,-2.3607,-2.2813,0.0,0.0,-2.4565,-2.5759,-2.6608,-2.7756,-2.8778,-2.9019,-2.9074,-2.9067,-2.9098,-2.7949,-2.7268,0.0,-2.7034,-2.5482,-2.5088,0.0,-2.354,-2.1729,-2.2602,-2.3385,-2.3267,-2.4801,-2.5893,-2.5893,-2.6587,-2.6834,-2.6283,-2.6613,-2.664,-2.6068,-2.6214,-2.5965,-2.5173,-2.5199,-2.4533,-2.3121,-2.1225,0.0,0.0,0.0,0.0,0.0,0.0,0.0,0.0,0.0,0.0,0.0,0.0,0.0,0.0,0.0,0.0,0.0,0.0,0.0,0.0,0.0,0.0,0.0,0.0,0.0,0.0,0.0,0.0,-2.7853,-2.8708,0.0,-2.839,-2.897,-2.9683,-3.04,-3.1455,-3.2735,-3.4292,-3.4928,-3.5834,-3.7091,-3.7882,-3.858,-3.9214,-3.9675,-4.0054,-4.0332,-4.0394,-4.045,-4.0496,-4.0496,-4.0526,-4.0586,-4.0586,-4.0469,-4.0235,-3.9499,-3.8416,-3.7084,-3.5808,-3.5482,-3.5573,-3.4718,-3.4733,-3.5175,-3.5017,-3.4841,-3.4507,-3.3414,-3.2389,-3.1411,-3.0648,-3.0291,-3.0194,-3.0455,-3.0557,-3.0676,-3.1035,-3.1503,-3.1908,-3.2024,-3.1983,-3.1983,-3.2141,-3.1586,-3.1114,-3.1526,-2.8884,-2.6452,-2.6024,-2.6717,-2.6605,-2.4373,-2.534,-2.6335,-2.6485,-2.7052,-2.7343,-2.7086,-2.7554,-2.7512,-2.6616,-2.6771,-2.6864,-2.6747,-2.6952,-2.6809,-2.6248,-2.6179,-2.5634,-2.4535,-2.3169,-2.114,0.0,0.0,0.0,0.0,0.0,0.0,0.0,0.0,0.0,0.0,0.0,0.0,0.0,0.0,0.0,0.0,0.0,0.0,0.0,0.0,0.0,0.0,0.0,0.0,0.0,0.0,-2.846,-2.9474,-3.0698,-3.1385,-3.1152,-3.2058,-3.3077,-3.408,-3.5502,-3.6813,-3.7886,-3.8336,-3.898,-3.9938,-4.0084,-4.0642,-4.1645,-4.1788,-4.2012,-4.2334,-4.2334,-4.2219,-4.1938,-4.1938,-4.1678,-4.1241,-4.1727,-4.1387,-4.0529,-4.1105,-4.0297,-3.859,-3.8122,-3.7845,-3.7724,-3.7756,-3.7502,-3.7129,-3.7145,-3.6351,-3.5277,-3.4748,-3.4456,-3.4335,-3.4335,-3.424,-3.4117,-3.4064,-3.372,-3.3372,-3.3477,-3.3477,-3.3466,-3.3597,-3.3607,-3.3591,-3.3684,-3.3023,-3.2542,-3.3058,-3.0513,-2.8004,-2.727,-2.7767,-2.7551,-2.536,-2.6017,-2.668,-2.6492,-2.7176,-2.7544,-2.7237,-2.8134,-2.8349,-2.7251,-2.6688,-2.6634,-2.7206,-2.6628,-2.6494,-2.7008,-2.613,-2.5243,-2.4455,-2.2806,-2.083,-1.8459,0.0,0.0,0.0,0.0,0.0,0.0,0.0,0.0,0.0,0.0,0.0,0.0,0.0,0.0,0.0,0.0,0.0,0.0,0.0,0.0,0.0,0.0,0.0,-2.6472,-2.9004,-3.1055,-3.1449,-3.3641,-3.5309,-3.5796,-3.654,-3.742,-3.8412,-3.9321,-3.9907,-4.0062,-4.1389,-4.219,-4.2222,-4.2863,-4.3362,-4.3719,-4.4151,-4.4521,-4.482,-4.482,-4.4804,-4.4787,-4.4787,-4.4026,-4.2748,-4.4188,-4.3217,-4.0739,-4.2101,-4.1842,-4.0656,-4.0903,-4.0545,-3.9935,-3.9935,-3.9364,-3.8593,-3.8432,-3.7386,-3.6174,-3.6174,-3.516,-3.3931,-3.3931,-3.3931,-3.3906,-3.3682,-3.363,-3.363,-3.363,-3.3525,-3.3488,-3.3604,-3.3744,-3.378,-3.3499,-3.2074,-3.135,-3.3113,-3.1971,-3.0314,-2.9155,-2.7836,-2.6354,-2.4768,-2.4657,0.0,-2.3282,-2.5136,-2.6475,-2.6318,-2.8297,-2.9196,-2.8222,-2.6449,-2.6007,-2.7455,-2.5344,-2.5081,-2.7415,-2.5155,-2.358,-2.2989,-2.0171,-1.9357,-2.0599,0.0,0.0,0.0,0.0,0.0,0.0,0.0,0.0,0.0,0.0,0.0,0.0,0.0,0.0,0.0,0.0,0.0,0.0,0.0,0.0,0.0,0.0,-3.0521,-3.0227,-3.237,-3.4368,-3.5366,-3.701,-3.8316,-3.8978,-3.9225,-3.9739,-4.0642,-4.0441,-4.0768,-4.1831,-4.1297,-4.1442,-4.2476,-4.2734,-4.3121,-4.3702,-4.4818,-4.5415,-4.5532,-4.5532,-4.5273,-4.4787,-4.4787,-4.4577,-4.4221,-4.4609,-4.435,-4.3638,-4.4043,-4.3962,-4.3427,-4.1413,-4.0606,-4.0547,-4.0515,-4.0029,-3.9239,-3.8015,-3.7667,-3.7753,-3.7753,-3.7411,-3.6977,-3.6977,-3.6961,-3.6901,-3.6846,-3.6846,-3.6846,-3.6846,-3.675,-3.6625,-3.654,-3.6568,-3.6681,-3.6933,-3.6412,-3.6077,-3.6724,-3.5812,-3.4368,-3.2652,-3.1943,-3.1244,-3.0051,-2.9908,0.0,-2.8333,-2.922,-2.9626,-2.8771,-2.8075,-2.8028,-2.8895,-2.6614,-2.6134,-2.8513,-2.7685,-2.7216,-2.7485,-2.7212,-2.6393,-2.5048,-2.2602,-2.1254,0.0,0.0,0.0,0.0,0.0,0.0,0.0,0.0,0.0,0.0,0.0,0.0,0.0,0.0,0.0,0.0,0.0,0.0,0.0,0.0,0.0,0.0,-3.1917,-3.4016,-3.4846,-3.6136,-3.7219,-3.7903,-3.9314,-4.0234,-4.0289,-4.0836,-4.1413,-4.1986,-4.2393,-4.304,-4.3881,-4.346,-4.3281,-4.3524,-4.4058,-4.4285,-4.4172,-4.5481,-4.6176,-4.6261,-4.6261,-4.605,-4.5678,-4.5678,-4.5354,-4.482,-4.5419,-4.516,-4.4383,-4.4982,-4.5046,0.0,0.0,0.0,0.0,0.0,-4.0355,-3.9901,-3.8971,-3.8926,-3.9217,-3.8942,-3.8816,-3.8682,-3.8375,-3.783,-3.7318,-3.723,-3.6812,-3.649,-3.7086,-3.7106,-3.7169,-3.7777,-3.7992,-3.8119,-3.8262,-3.7591,-3.7243,-3.8117,-3.717,0.0,-3.5876,-3.4603,-3.3188,-3.1949,-3.1524,-3.0958,-2.9798,-3.0433,-3.0564,-2.9535,-2.9081,-2.8988,-2.9406,-2.7125,0.0,0.0,0.0,-2.6583,-2.6012,-2.6536,0.0,0.0,0.0,-2.1643,-2.1994,0.0,0.0,0.0,-1.7714,-1.6161,0.0,0.0,0.0,0.0,0.0,0.0,0.0,0.0,0.0,0.0,0.0,0.0,0.0,0.0,0.0,0.0,-3.4471,-3.7485,-3.9541,-4.0008,-3.9968,-3.9677,-4.0845,-4.1457,-4.0933,-4.1931,-4.2719,-4.2942,-4.4525,-4.559,-4.5807,0.0,0.0,0.0,0.0,-4.5864,-4.4804,-4.6009,-4.6703,-4.6876,-4.6876,-4.6876,-4.6876,-4.6876,-4.6212,-4.5095,-4.6342,-4.5807,-4.4172,-4.5419,-4.5516,-4.4836,-4.414,-4.3395,-4.2585,-4.1174,-4.064,-4.0594,-4.0432,0.0,0.0,-3.9813,-3.9619,-3.9505,-3.8829,-3.776,-3.6772,-3.6577,-3.5567,-3.4836,-3.6082,-3.6247,-3.6449,-3.7874,-3.8375,-3.85,-3.8214,-3.7042,-3.6512,-3.8186,-3.7212,-3.6699,-3.8532,-3.6314,-3.3776,-3.227,-3.1599,-3.0851,-2.9716,-3.0469,-3.0761,-2.9823,0.0,0.0,-2.9992,-2.7853,-2.7412,-2.9387,-2.68,-2.4965,-2.4432,-2.482,-2.3985,-2.1791,-2.1181,-2.1791,-2.3566,-2.2988,-2.3538,-2.4932,-1.9956,-1.8143,0.0,0.0,0.0,0.0,0.0,0.0,0.0,0.0,0.0,0.0,0.0,0.0,0.0,0.0,0.0,-3.5586,-3.81,-4.0237,-4.1761,-4.3022,-4.346,-4.2526,-4.2334,-4.28,-4.4193,-4.4181,-4.4395,-4.5127,-4.5029,-4.5207,-4.5775,-4.4868,-4.448,-4.4787,-4.488,-4.488,-4.4787,-4.6009,-4.6703,-4.6876,0.0,0.0,-4.6876,-4.6876,-4.673,-4.6488,-4.6763,-4.6649,-4.6293,-4.6552,-4.6261,-4.5532,-4.4984,-4.4317,-4.3537,-4.2073,-4.1492,-4.1223,-4.0105,-4.0056,-4.048,-4.0335,-4.0302,-4.027,-4.014,-3.9985,0.0,-3.9816,-3.9215,-3.8646,-3.8922,-3.8452,-3.7939,-3.8144,-3.8221,-3.8335,-3.8472,-3.8241,-3.8243,-3.8984,-3.8844,-3.8722,-3.9135,-3.8186,-3.7027,-3.6125,-3.5902,-3.5322,-3.3912,-3.4438,-3.4412,-3.3048,-3.1047,-3.0389,-3.1812,-2.8524,-2.7651,-3.0717,-2.8942,-2.7734,-2.7616,-2.6842,-2.6192,-2.5701,-2.5416,-2.5658,-2.6404,-2.5644,-2.5512,-2.5894,-2.3712,-2.2422,0.0,0.0,0.0,0.0,0.0,0.0,0.0,0.0,0.0,0.0,0.0,-2.9429,0.0,0.0,-3.5014,-3.7938,-3.9573,-4.1241,-4.3411,-4.4334,-4.4592,-4.4039,-4.4007,-4.4281,-4.4973,-4.4868,-4.503,-4.5741,-4.5654,-4.5782,-4.6326,-4.5678,-4.511,-4.4655,-4.5232,-4.5248,-4.4655,-4.5959,-4.6703,-4.6876,-4.6876,-4.6876,-4.6876,-4.6807,-4.6738,-4.6738,-4.6633,-4.6615,-4.6615,-4.6615,-4.6493,-4.6309,-4.5937,-4.5275,-4.4479,-4.3714,-4.3194,-4.2709,-4.201,-4.1642,-4.15,-4.1144,-4.1061,-4.0966,-4.0594,-4.0053,-3.956,-3.956,-3.8813,-3.8163,-3.8878,-3.8724,-3.8541,-3.9195,-3.9156,-3.9028,-3.9222,-3.8761,-3.8504,-3.9179,-3.9017,-3.8858,-3.9249,-3.9,-3.8626,-3.8245,-3.7897,-3.7384,-3.6655,-3.6555,-3.6125,-3.5015,-3.3259,-3.2426,-3.3092,-3.0533,-2.9344,-3.0374,-2.981,-2.9035,-2.8143,-2.7879,-2.7444,-2.6806,-2.6712,-2.6817,-2.7093,-2.6755,-2.6629,-2.6691,-2.6064,-2.5081,0.0,0.0,0.0,0.0,0.0,0.0,0.0,0.0,-2.8329,-2.9848,-3.1253,-3.259,-3.3896,-3.5513,-3.7464,-3.9927,-4.0982,-4.2342,-4.4658,-4.5111,-4.5192,-4.5192,-4.5412,-4.5407,-4.5107,-4.5165,-4.5416,-4.5882,-4.6153,-4.6538,-4.7017,-4.7068,-4.6482,-4.5166,-4.6212,-4.6196,-4.4924,-4.6019,-4.6703,-4.6876,-4.6876,-4.6876,-4.6876,-4.6703,-4.6582,-4.6582,-4.6439,-4.6369,-4.6369,-4.6369,-4.6545,-4.6807,-4.6668,-4.6112,-4.5424,-4.5293,-4.4789,-4.417,-4.417,-4.3555,-4.2716,-4.2164,-4.192,-4.1693,-4.1079,-4.0124,-3.9217,-3.9217,-3.8311,-3.7582,-3.8732,-3.891,-3.9088,-4.0221,-4.0164,-3.9903,-4.003,-3.9155,-3.8552,-3.9317,-3.8854,-3.8566,-3.9199,-3.9299,-3.9299,-3.9299,-3.8775,-3.8411,-3.8411,-3.7897,-3.7251,-3.6506,-3.5777,-3.4916,-3.3889,-3.2508,-3.1199,-3.0064,-3.0152,-2.9556,-2.7957,-2.8288,-2.7978,-2.6806,-2.6806,-2.6873,-2.7003,-2.7119,-2.7207,-2.7284,-2.7386,-2.6648,-2.4556,-2.3528,-2.37,-2.5699,-2.8069,-2.9989,0.0,0.0,-3.5106,-3.4117,-3.621,-3.8431,-3.9145,-4.0641,-4.2085,-4.3071,-4.435,-4.5322,-4.5646,-4.6245,-4.6684,-4.6684,-4.5856,-4.5536,-4.608,-4.6028,-4.604,-4.6221,-4.6285,-4.6692,-4.7548,-4.7616,-4.7516,-4.7355,-4.75,-4.7194,-4.6357,-4.6502,-4.6703,-4.6876,-4.6876,-4.6876,-4.6876,-4.6703,-4.6582,-4.6582,-4.6598,-4.6563,-4.6563,-4.6563,-4.6582,-4.6617,-4.6617,-4.6641,-4.6603,-4.5955,-4.529,-4.4707,-4.4707,-4.4188,-4.3573,-4.3492,-4.3039,-4.2457,-4.2392,-4.2246,-4.2133,-4.2133,-4.1598,-4.1045,-4.1207,-4.0769,-4.0286,-4.0448,-4.0461,-4.0442,-4.0574,-4.0046,-3.9593,-3.9939,-3.9402,-3.8995,-3.9255,-3.9299,-3.9299,-3.9299,-3.9232,-3.9183,-3.9183,-3.91,-3.8758,-3.8046,-3.7301,-3.6025,-3.3955,-3.2914,-3.2094,-3.1429,-3.031,-2.9361,-2.8614,-2.8079,-2.7489,-2.6806,-2.6806,-2.6873,-2.7003,-2.7003,-2.7222,-2.7549,-2.7575,-2.6971,-2.6987,-2.7379,0.0,0.0,-3.2774,-3.4292,-3.5471,-3.6745,-3.7634,-3.7445,-3.9301,-4.1035,-4.1277,-4.1688,-4.265,0.0,-4.4301,-4.4429,-4.6196,-4.6613,-4.6772,-4.6892,-4.5701,-4.5002,-4.5409,-4.5709,-4.5746,-4.5285,-4.5831,-4.6633,-4.7641,-4.7709,-4.7637,-4.7513,-4.7745,-4.739,-4.6439,-4.6668,-4.6807,-4.6876,-4.6876,-4.6876,-4.6876,-4.6703,-4.6493,-4.6314,-4.6314,-4.6349,-4.6423,-4.6349,-4.6333,-4.6439,-4.6439,-4.6474,-4.6547,-4.6587,-4.617,-4.5553,-4.5553,-4.5032,-4.4334,-4.4334,-4.3848,-4.3233,-4.3233,-4.2942,-4.2602,-4.2602,-4.2392,-4.2197,-4.2197,-4.1954,-4.1727,-4.1727,-4.1419,-4.1188,-4.1292,-4.0443,-3.9703,-3.9959,-3.9385,-3.8947,-3.9094,-3.9121,-3.9175,-3.9272,-3.9299,-3.9299,-3.9299,-3.9299,-3.9033,-3.8295,-3.793,-3.6812,-3.4523,-3.4044,-3.3201,-3.1589,-3.1024,-3.0303,-2.9264,-2.8933,-2.8343,-2.7327,-2.7325,-2.721,-2.7003,-2.7067,-2.7233,-2.7488,-2.7575,-2.74,-2.8949,0.0,0.0,-3.4663,-3.6128,-3.7343,-3.9107,-3.9281,-3.9281,-4.0008,-4.1231,-4.2318,-4.2734,-4.2477,-4.2893,-4.516,-4.4251,-4.404,-4.6241,-4.659,-4.6523,-4.6273,-4.5201,-4.4266,-4.3686,-4.4615,-4.5167,-4.4877,-4.5594,-4.6566,-4.7842,-4.7662,-4.761,-4.7766,-4.7893,-4.7426,-4.6404,-4.6719,-4.6876,-4.6876,-4.7066,-4.7168,-4.7168,-4.6913,-4.6528,-4.6112,-4.6112,-4.6168,-4.6259,-4.6132,-4.6168,-4.6243,-4.6278,-4.6298,-4.6369,-4.6927,-4.6773,-4.6318,-4.6318,-4.5746,-4.5079,-4.5079,-4.4593,-4.401,-4.401,-4.3476,-4.2894,-4.2894,-4.2748,-4.2602,-4.2602,-4.2602,-4.2602,-4.2602,-4.2229,-4.1887,-4.201,-4.1035,-4.0216,-4.0406,-3.967,-3.9077,-3.9226,-3.9101,-3.905,-3.9218,-3.9272,-3.9299,-3.9299,-3.9299,-3.91,-3.856,-3.8275,-3.7489,-3.5795,-3.5332,-3.4282,-3.2193,-3.1968,-3.121,-2.9661,-2.961,-2.9078,-2.7996,-2.798,-2.7705,-2.7188,-2.7316,-2.741,-2.7401,-2.7524,-2.7675,0.0,0.0,-3.1228,-3.458,-3.6492,-3.79,-3.9218,-4.004,-4.0784,-4.166,-4.1981,-4.2574,-4.4151,-4.3993,-4.3897,-4.469,-4.522,-4.5538,-4.5635,-4.618,-4.6083,-4.4731,-4.4538,-4.3476,0.0,-4.2653,-4.4465,-4.5685,-4.5792,-4.6591,-4.8365,-4.7627,-4.76,-4.8723,-4.8079,-4.7355,-4.6598,-4.6807,-4.6876,-4.6927,-4.7572,-4.7852,-4.7852,-4.744,-4.6846,-4.6112,-4.6112,-4.6112,-4.6112,-4.6112,-4.6112,-4.6096,-4.6243,-4.6298,-4.6333,-4.6754,-4.6894,-4.6894,-4.6894,-4.6374,-4.5775,-4.5775,-4.5305,-4.4755,-4.4755,-4.4253,-4.3686,-4.3686,-4.3136,-4.2602,-4.2602,-4.2602,-4.2602,-4.2602,-4.2586,-4.257,-4.257,-4.2019,-4.1561,-4.1713,-4.0619,-3.9732,-3.9841,-3.9391,-3.8996,-3.8996,-3.9191,-3.9299,-3.9299,-3.9299,-3.9299,-3.9265,-3.852,-3.8022,-3.8103,-3.6661,-3.5192,-3.3822,-3.3044,-3.1742,-2.9677,-2.9601,-2.9312,-2.868,-2.8658,-2.8334,-2.7681,-2.78,-2.7706,-2.7401,-2.7524,-2.774,0.0,0.0,-3.3475,-3.7514,-3.9572,-4.0736,-4.1007,-4.1723,-4.2218,-4.1767,-4.1199,-4.0894,-4.131,-4.0646,-4.0748,-4.2927,-4.2574,-4.3057,-4.6029,-4.4927,-4.4345,-4.5729,-4.4332,0.0,0.0,0.0,0.0,-4.3379,-4.4871,-4.6312,-4.7526,-4.7845,-4.7884,-4.7684,-4.825,-4.7883,-4.6404,-4.6738,-4.7134,-4.7572,-4.8224,-4.8572,-4.8541,-4.8286,-4.8013,-4.7754,-4.7754,-4.7423,-4.6914,-4.6914,-4.6636,-4.6278,-4.6777,-4.7035,-4.7254,-4.7966,-4.8224,-4.8112,-4.7202,-4.673,-4.652,-4.652,-4.605,-4.5451,-4.5451,-4.4982,-4.4334,-4.3848,-4.3509,-4.3201,-4.2732,-4.2602,-4.2602,-4.2602,-4.2602,-4.2602,-4.2602,-4.2408,-4.2148,-4.1754,-4.1283,-4.0726,-3.9911,-3.9609,-3.9367,-3.9051,-3.9175,-3.9299,-3.9299,-3.9299,-3.9299,-3.9299,-3.903,-3.8646,-3.8114,-3.7645,-3.6736,-3.5225,-3.4057,-3.2894,-3.1703,-3.0771,-2.9952,-2.9304,-2.9295,-2.8814,-2.7833,-2.7961,-2.782,-2.7401,-2.7524,-2.77,0.0,-3.4037,-3.6023,-3.958,-4.1262,-4.2061,-4.1996,-4.2363,-4.2618,-4.2247,-4.1454,-4.0606,-3.9956,-3.9129,-3.9159,-4.0995,-4.0916,-4.185,-4.5528,-4.4798,-4.4393,-4.58,-4.4659,0.0,0.0,0.0,0.0,-4.3554,-4.4964,-4.6272,-4.7156,-4.7422,-4.7587,-4.77,-4.8167,-4.7902,-4.6811,-4.7045,-4.7652,-4.8604,-4.9036,-4.9265,-4.9265,-4.9033,-4.8362,-4.7379,-4.8169,-4.7706,-4.6517,-4.7308,-4.739,-4.7069,-4.7556,-4.7851,-4.803,-4.8666,-4.8883,-4.879,-4.7917,-4.7455,-4.727,-4.727,-4.6791,-4.618,-4.618,-4.571,-4.5113,-4.4886,-4.4412,-4.3969,-4.3725,-4.3473,-4.3185,-4.2958,-4.2927,-4.2865,-4.2665,-4.2602,-4.2457,-4.2035,-4.1774,-4.1351,-4.0531,-3.9991,-3.9532,-3.9084,-3.9121,-3.9218,-3.9299,-3.9299,-3.9299,-3.9299,-3.9299,-3.9063,-3.852,-3.854,-3.7937,-3.6364,-3.5463,-3.4286,-3.2768,-3.1837,-3.0917,-2.9965,-2.9958,-2.9481,-2.8495,-2.8427,-2.8137,-2.765,-2.7564,-2.76,-3.4717,-3.6869,-3.8649,-4.0667,-4.1614,-4.2043,-4.2093,-4.2012,-4.2107,-4.2765,-4.2253,-4.1214,0.0,0.0,-3.875,-3.89,-4.0132,-4.1866,-4.4169,-4.5622,-4.6063,0.0,0.0,0.0,0.0,0.0,0.0,-4.6153,0.0,-4.6528,-4.7418,-4.6625,-4.6985,-4.8726,-4.7959,-4.7619,-4.7727,-4.7787,-4.852,-4.989,-4.9948,-4.9948,-4.9948,-4.9751,-4.8097,-4.5509,-4.755,-4.7172,-4.531,-4.7477,-4.8362,-4.8331,-4.8536,-4.8647,-4.8678,-4.8914,-4.9006,-4.9006,-4.9006,-4.8541,-4.795,-4.795,-4.7505,-4.7014,-4.7014,-4.6493,-4.6092,-4.6664,-4.5844,-4.4886,-4.5436,-4.5038,-4.4299,-4.3689,-4.3542,-4.3333,-4.2758,-4.2618,-4.2602,-4.2602,-4.2067,-4.1596,-4.1596,-4.0547,-3.9548,-3.9106,-3.9029,-3.9077,-3.9272,-3.9299,-3.9299,-3.9299,-3.9299,-3.9299,-3.9299,-3.9299,-3.8718,-3.7301,-3.7152,-3.5843,-3.305,-3.2785,-3.2081,-3.0721,-3.064,-3.0267,-2.9588,-2.9148,-2.8667,-2.8125,-2.7675,-2.7514,-3.5557,-3.82,-4.0802,-4.1944,-4.3154,-4.3734,-4.2398,-4.219,-4.1661,-3.9403,-3.7252,-3.5143,0.0,0.0,0.0,-3.6043,-3.7437,0.0,-4.3756,-4.4408,0.0,0.0,0.0,-4.7114,-4.8179,-4.874,0.0,0.0,-4.7781,-4.783,-4.8046,-4.845,-4.8608,-4.8425,-4.8984,-4.8988,-4.8377,-4.9018,-4.9538,-4.9919,-5.0425,-5.0637,-5.0637,-5.0592,-5.015,-4.9455,-5.0018,-4.9556,-4.8455,-4.9035,-4.8985,-4.8584,-4.9137,-4.944,-4.9622,-5.0194,-5.038,-5.038,-5.038,-4.9639,-4.8635,-4.8635,-4.8541,-4.8383,-4.8383,-4.8249,-4.8044,-4.7645,-4.7268,-4.6759,-4.5821,-4.5456,-4.5111,-4.4355,-4.3818,-4.3453,-4.332,-4.2943,-4.2602,-4.2602,-4.2067,-4.1596,-4.1596,-4.0547,-3.9642,-3.9532,-3.9221,-3.9077,-3.9272,-3.9299,-3.9299,-3.9299,-3.9299,-3.9299,-3.9299,-3.9299,-3.9149,-3.8768,-3.7715,-3.6771,-3.6009,-3.3856,-3.253,-3.2175,-3.1101,-3.0223,-2.9594,-2.9564,-2.9255,-2.8693,-2.8271,-2.81,-3.7901,-4.0061,-4.2039,-4.2505,-4.3185,-4.317,-4.0919,-4.0423,-3.9496,-3.6019,-3.4409,0.0,0.0,0.0,0.0,0.0,0.0,0.0,-4.3831,-4.4519,-4.5082,0.0,-4.7221,0.0,-5.007,-5.0522,-5.0479,0.0,-4.8987,-4.8413,-4.85,-4.8979,-4.9191,-4.9108,-4.9677,-4.9722,-4.9177,-4.9946,-5.0352,-5.0352,-5.0737,-5.0891,-5.0891,-5.0891,-5.0329,-4.9416,0.0,-5.0043,-4.8709,-4.976,-4.9959,-4.9634,-5.0017,-5.025,-5.038,-5.0764,-5.0891,-5.0891,-5.0891,-5.0425,-4.9727,-4.9445,-4.9127,-4.8883,-4.8883,-4.8883,-4.889,-4.8754,-4.8485,-4.8082,-4.7526,-4.6904,-4.622,-4.5473,-4.4794,-4.4147,-4.3614,-4.3229,-4.2943,-4.2649,-4.231,-4.1938,-4.1661,-4.1008,-4.0336,-3.9776,-3.949,-3.9237,-3.9116,-3.9218,-3.9299,-3.9299,-3.9299,-3.9299,-3.9299,-3.9299,-3.9299,-3.9299,-3.8536,-3.7781,-3.7135,-3.5512,-3.417,-3.3216,-3.205,-3.1155,-3.0484,-2.9961,-2.9572,-2.928,-2.8779,-2.8591,-4.0522,-4.1834,-4.2684,-4.2619,-4.2589,-4.1849,-3.9191,-3.8126,-3.6746,-3.3265,0.0,0.0,-2.9317,0.0,-3.261,-3.51,0.0,-3.9848,-4.3388,-4.4958,-4.6065,-4.69,-4.7743,-4.896,-5.0752,-5.1197,-5.1458,-5.1665,-4.9981,-4.8992,-4.9154,-4.9154,-4.948,-5.0244,-5.0262,-5.0185,-5.0091,-5.0673,-5.0945,-5.0945,-5.0945,-5.0918,-5.0918,-5.0918,-4.9785,-4.7977,-5.0013,-4.9732,-4.8012,-5.0048,-5.0891,-5.0891,-5.0891,-5.0891,-5.0891,-5.0891,-5.0891,-5.0891,-5.0891,-5.0891,-5.0792,-5.0222,-4.9639,-4.9175,-4.9175,-4.9175,-4.9295,-4.989,-4.9538,-4.9115,-4.9564,-4.8696,-4.7524,-4.6785,-4.6028,-4.5157,-4.398,-4.3672,-4.3453,-4.2943,-4.282,-4.2655,-4.2067,-4.1887,-4.1395,-4.0119,-3.9871,-3.9572,-3.8848,-3.9067,-3.9272,-3.9272,-3.9272,-3.9299,-3.9299,-3.9299,-3.9299,-3.9299,-3.9299,-3.8735,-3.745,-3.7201,-3.6208,-3.427,-3.3408,-3.263,-3.1879,-3.0647,-3.0004,-3.0027,-2.9305,-2.9067,-4.0458,-4.1944,-4.3218,-4.2716,-4.3055,-4.2992,-4.1049,-3.8344,0.0,0.0,0.0,-2.8351,-2.8547,-2.9209,0.0,-3.3868,0.0,0.0,0.0,0.0,-4.6459,0.0,0.0,0.0,0.0,0.0,0.0,0.0,0.0,-5.1104,-5.1038,-5.0917,-5.0944,-5.1086,-5.1086,-5.1086,-5.106,-5.1175,-5.122,-5.122,-5.1132,-5.1052,-5.1052,-5.0945,-5.0662,-5.0311,-5.0715,0.0,-5.0311,-5.0715,-5.0891,-5.0891,-5.0891,-5.0891,-5.0891,-5.0891,-5.0891,-5.0891,-5.0891,-5.0891,-5.0891,-5.0764,-5.0637,-5.0537,-5.0537,-5.0537,-5.0582,-5.0692,-5.0632,-5.0396,-4.9855,-4.9486,-4.896,-4.7576,-4.6752,-4.6042,-4.5174,-4.4584,-4.4192,-4.4123,-4.4095,-4.4044,-4.3927,-4.3446,-4.2635,-4.1326,-4.0724,-4.0012,-3.8781,-3.8876,-3.905,-3.905,-3.9202,-3.9299,-3.9299,-3.9299,-3.9299,-3.9299,-3.9299,-3.9183,-3.8934,-3.7748,-3.6936,-3.6539,-3.5197,-3.4154,-3.3408,-3.2557,-3.1852,-3.1253,-3.0041,-2.9483,-4.0526,-4.1777,-4.296,-4.2652,-4.2555,-4.1605,-3.8184,0.0,0.0,0.0,0.0,-2.6542,-2.6744,0.0,0.0,0.0,0.0,0.0,0.0,0.0,0.0,0.0,0.0,0.0,0.0,0.0,0.0,0.0,0.0,-5.0981,-5.147,-5.1505,-5.1513,-5.1513,-5.1454,-5.1402,-5.1402,-5.135,-5.1298,-5.1298,-5.122,-5.1193,-5.1193,-5.1141,-5.1114,-5.1088,-5.1025,-5.0576,-4.9916,-5.0691,-5.0559,-4.9959,-5.077,-5.1114,-5.1088,-5.1025,-5.0998,-5.0998,-5.0918,-5.0891,-5.0891,-5.0891,-5.0891,-5.0891,-5.0891,-5.0891,-5.0891,-5.0891,-5.0891,-5.0803,-5.0399,-4.9995,-4.9451,-4.8436,-4.7106,-4.5953,-4.5415,-4.4848,-4.4406,-4.4406,-4.4406,-4.4406,-4.4406,-4.413,-4.349,-4.2169,-4.1549,-4.0707,-3.9239,-3.9122,-3.9121,-3.8996,-3.9175,-3.9299,-3.9299,-3.9299,-3.9299,-3.9299,-3.9299,-3.9299,-3.9299,-3.8636,-3.8063,-3.7698,-3.6605,-3.5678,-3.4932,-3.4203,-3.3435,-3.2617,-3.1659,-3.0963,-4.0634,-4.145,-4.2119,-4.2373,-4.1873,-4.0143,-3.5721,-3.3697,0.0,0.0,-2.5814,-2.5839,-2.6152,0.0,0.0,0.0,0.0,0.0,0.0,0.0,0.0,0.0,0.0,0.0,0.0,0.0,0.0,0.0,0.0,0.0,-5.1554,-5.1683,-5.1715,-5.169,-5.1607,-5.1531,-5.1531,-5.1454,-5.1402,-5.1402,-5.135,-5.135,-5.135,-5.1307,-5.1298,-5.1281,-5.1185,-5.0284,-4.9018,-5.0531,-5.0249,-4.9078,-5.0679,-5.1298,-5.1298,-5.1185,-5.1132,-5.1079,-5.0972,-5.0918,-5.0918,-5.0945,-5.0918,-5.0891,-5.0891,-5.0891,-5.0918,-5.0972,-5.0998,-5.0998,-5.1079,-5.0585,-4.9932,-4.9156,-4.7442,-4.5893,-4.5657,-4.5224,-4.4858,-4.4794,-4.4831,-4.4858,-4.4858,-4.4912,-4.4494,-4.3093,-4.2421,-4.1464,-3.9801,-3.9391,-3.9148,-3.8931,-3.9164,-3.9299,-3.9299,-3.9299,-3.9299,-3.9299,-3.9299,-3.9299,-3.9299,-3.9299,-3.9033,-3.8444,-3.788,-3.7201,-3.6473,-3.5727,-3.4934,-3.4096,-3.3439,-3.265,-4.0921,-4.0988,-4.0518,-4.1694,-4.1468,-4.0254,-3.7601,0.0,0.0,0.0,-2.7469,-2.6334,-2.8981,-2.8858,-2.9843,0.0,0.0,0.0,0.0,0.0,0.0,0.0,0.0,0.0,0.0,0.0,0.0,0.0,0.0,0.0,-5.1858,-5.1882,-5.1833,-5.169,-5.169,-5.1665,-5.1665,-5.1665,-5.1665,-5.1665,-5.1531,-5.1479,-5.1479,-5.135,-5.1298,-5.1298,-5.1298,-5.037,0.0,-5.0618,-5.0335,-4.9078,-5.0679,-5.1298,-5.1298,-5.1298,-5.1193,-5.1105,-5.1079,-5.0998,-5.0918,-5.1025,-5.0998,-5.0891,-5.0891,-5.0891,-5.0945,-5.1193,-5.1255,-5.1324,-5.1564,-5.1561,-5.1133,-4.9626,-4.8051,-4.6801,-4.6525,-4.6429,-4.6332,-4.608,-4.6235,-4.6405,-4.6405,-4.6596,-4.6129,-4.4319,-4.3433,-4.2227,-4.0132,-3.9385,-3.8931,-3.8672,-3.9029,-3.9299,-3.9299,-3.9299,-3.9299,-3.9299,-3.9299,-3.9299,-3.9299,-3.9299,-3.9265,-3.9199,-3.9133,-3.8725,-3.8013,-3.7268,-3.6522,-3.5753,-3.4912,-3.405,-3.8412,-3.9921,-4.1185,-4.1678,-4.0978,-3.9304,-3.5898,0.0,0.0,-2.8305,-2.7072,-2.693,-2.8274,-2.7912,-2.8631,0.0,0.0,0.0,0.0,0.0,0.0,0.0,0.0,0.0,0.0,0.0,0.0,0.0,0.0,0.0,-5.209,-5.1907,-5.1758,-5.169,-5.169,-5.169,-5.169,-5.169,-5.169,-5.169,-5.1658,-5.1632,-5.1632,-5.1582,-5.1538,-5.1538,-5.1454,-5.0016,0.0,-5.0424,-4.9962,-4.801,-5.056,-5.1538,-5.1538,-5.1454,-5.1376,-5.1342,-5.1246,-5.1193,-5.1141,-5.1193,-5.1193,-5.1141,-5.1141,-5.1193,-5.1272,-5.1376,-5.1479,-5.1564,-5.1665,-5.1099,-5.0295,-4.9502,-4.8197,-4.712,-4.6888,-4.6842,-4.6819,-4.6702,-4.6772,-4.6842,-4.6842,-4.6934,-4.6607,-4.5498,-4.4578,-4.3347,-4.1527,-4.0652,-3.9924,-3.9214,-3.9137,-3.9121,-3.9121,-3.9245,-3.9299,-3.9299,-3.9395,-3.9422,-3.9422,-3.9511,-3.9494,-3.9422,-3.9422,-3.9246,-3.8858,-3.8586,-3.8004,-3.719,-3.6472,-3.5679,-3.6489,-3.874,-4.0751,-4.1041,-3.9707,-3.7447,0.0,0.0,-3.0097,-2.6907,-2.6673,-2.7187,-2.7612,-2.7165,-2.7787,-3.1007,0.0,0.0,0.0,0.0,0.0,0.0,0.0,0.0,0.0,0.0,0.0,0.0,0.0,0.0,-5.2191,-5.1914,-5.174,-5.174,-5.174,-5.174,-5.169,-5.169,-5.169,-5.169,-5.169,-5.144,-5.1012,-5.1476,-5.144,-5.1012,-5.1393,-5.0076,0.0,-5.0503,-5.0022,-4.7943,-5.0637,-5.169,-5.169,-5.1607,-5.1531,-5.1497,-5.1402,-5.135,-5.1324,-5.135,-5.135,-5.1376,-5.1428,-5.1454,-5.1505,-5.1582,-5.1783,-5.1956,-5.1956,-5.0874,-4.978,-4.9577,-4.8466,-4.7363,-4.7138,-4.7093,-4.707,-4.7002,-4.7048,-4.7093,-4.7093,-4.716,-4.7007,-4.6406,-4.5563,-4.437,-4.2749,-4.1758,-4.0779,-3.9728,-3.9345,-3.9158,-3.9212,-3.9335,-3.9432,-3.9432,-3.9511,-3.9563,-3.9563,-3.9651,-3.9668,-3.9563,-3.9563,-3.9511,-3.9432,-3.9379,-3.905,-3.8431,-3.7971,-3.7299,-3.5902,-3.7507,-3.8305,-3.9439,-3.7361,-3.4646,0.0,0.0,-2.8516,-2.7095,-2.6753,-2.6944,-2.7747,-2.7293,-2.7855,-3.1087,-3.1082,0.0,0.0,0.0,0.0,0.0,0.0,0.0,0.0,0.0,0.0,0.0,0.0,0.0,-5.2102,-5.198,-5.1907,-5.1907,-5.1907,-5.1833,-5.169,-5.169,-5.169,-5.169,-5.169,-5.0869,-4.9364,-5.0976,-5.0834,-4.94,-5.1012,-5.078,0.0,-5.103,-5.0744,-4.9436,-5.1066,-5.169,-5.169,-5.169,-5.1607,-5.1505,-5.1505,-5.1402,-5.1324,-5.1454,-5.1505,-5.1531,-5.1658,-5.1607,-5.1574,-5.1808,-5.2174,-5.2498,-5.2498,-5.1303,-5.009,-5.009,-4.8858,-4.7615,-4.7363,-4.7298,-4.7232,-4.7025,-4.7165,-4.7298,-4.7298,-4.7511,-4.7511,-4.6954,-4.6253,-4.5227,-4.3585,-4.2346,-4.117,-4.002,-3.9653,-3.9537,-3.9677,-3.9703,-3.9703,-3.9703,-3.9703,-3.9703,-3.9703,-3.9703,-3.9703,-3.9703,-3.9703,-3.9703,-3.9703,-3.9563,-3.9484,-3.9484,-3.9335,-3.8874,-3.1062,-3.3171,-3.4797,-3.4563,-3.3507,-3.2053,-3.0196,0.0,-2.7791,-2.6349,-2.6428,-2.7006,-2.7816,-2.7791,-2.8489,-3.1158,-3.1451,0.0,0.0,0.0,0.0,0.0,0.0,0.0,0.0,0.0,0.0,0.0,0.0,0.0,-5.203,-5.2054,-5.2029,-5.2029,-5.1956,-5.1882,-5.1833,-5.1758,-5.169,-5.169,-5.169,-5.0869,-4.9347,-5.0976,-5.0816,0.0,-5.0994,-5.0798,-4.9418,-5.103,-5.0744,-4.9454,-5.1066,-5.169,-5.169,-5.169,-5.1665,-5.1658,-5.1658,-5.1615,-5.1564,-5.1615,-5.1658,-5.164,-5.169,-5.179,-5.198,-5.2222,-5.2405,-5.2498,-5.2498,-5.1303,-5.0112,-5.0112,-4.8876,-4.7696,-4.7593,-4.7575,-4.7554,-4.7486,-4.7529,-4.7575,-4.7575,-4.7636,-4.7636,-4.7468,-4.6936,-4.5985,-4.4427,-4.3582,-4.2566,-4.1134,-4.0914,-4.0504,-3.9625,-3.9668,-3.9703,-3.9703,-3.9781,-3.9849,-3.9849,-3.9935,-3.9935,-3.9849,-3.9849,-3.9781,-3.9703,-3.9668,-3.959,-3.9501,-3.9352,-3.8891,0.0,-3.0322,-3.229,-3.1741,-3.0707,-2.9478,-2.8228,-2.7054,-2.6145,-2.5767,-2.6797,-2.7812,-2.8007,-2.8781,-2.9591,-3.0226,-3.1856,0.0,0.0,0.0,0.0,0.0,0.0,0.0,0.0,0.0,0.0,0.0,0.0,0.0,-5.203,-5.2054,-5.2054,-5.2102,-5.2029,-5.1956,-5.1907,-5.1808,-5.174,-5.169,-5.169,-5.0869,-4.9347,-5.0976,-5.0816,-4.9382,-5.0994,-5.1137,0.0,-5.128,-5.1101,-5.0316,-5.1315,-5.169,-5.169,-5.169,-5.169,-5.169,-5.169,-5.169,-5.169,-5.169,-5.169,-5.1715,-5.174,-5.1907,-5.2078,-5.2358,-5.2428,-5.2428,-5.2498,-5.1303,-5.0112,-5.0112,-4.8876,-4.7717,-4.7717,-4.7717,-4.7717,-4.7717,-4.7717,-4.7717,-4.7717,-4.7717,-4.7717,-4.7717,-4.7407,-4.6639,-4.5081,-4.4422,-4.3491,-4.1919,-4.1609,-4.1168,-4.0343,-4.0162,-4.0129,-4.0129,-4.002,-3.9977,-3.9977,-4.0062,-4.0062,-3.9977,-3.9977,-3.9935,-3.9858,-3.9807,-3.972,-3.9563,-3.9484,-3.9208,0.0,0.0,0.0,0.0,-2.8591,-2.6941,-2.6941,-2.5147,0.0,-2.5615,-2.7743,-2.9108,-2.8468,-3.0324,-3.1153,-2.8748,-3.2358,0.0,0.0,0.0,0.0,0.0,0.0,0.0,0.0,0.0,0.0,0.0,0.0,0.0,-5.206,-5.1956,-5.1956,-5.2078,-5.2102,-5.2029,-5.1907,-5.1882,-5.1779,-5.1537,-5.1637,-5.0798,-4.9186,-5.0923,-5.0816,0.0,-5.0994,-5.1715,-5.1715,-5.1715,-5.1715,-5.1715,-5.169,-5.169,-5.169,-5.169,-5.169,-5.169,-5.169,-5.169,-5.169,-5.169,-5.169,-5.1715,-5.1858,-5.1882,-5.1956,-5.2216,-5.2287,-5.2293,-5.2379,-5.1249,-5.0071,-5.0039,-4.8822,-4.7717,-4.7717,-4.7717,-4.7717,-4.7717,-4.7717,-4.7717,-4.7717,-4.7717,-4.7717,-4.7717,-4.7717,-4.712,-4.5508,-4.4926,-4.4028,-4.2417,-4.1867,-4.1591,-4.1591,-4.1139,-4.0849,-4.0802,-4.0402,-4.0121,-4.0096,-4.0096,-4.0096,-4.0096,-4.0096,-4.0096,-4.0096,-3.9977,-3.9849,-3.9703,-3.9703,-3.9703,-2.2318,0.0,-2.6,-2.5362,-2.4796,-2.4361,0.0,-2.3909,-2.4456,-2.7843,0.0,0.0,-3.0674,-3.2779,-3.3419,-3.0516,0.0,0.0,0.0,0.0,0.0,0.0,0.0,0.0,0.0,0.0,0.0,0.0,0.0,-5.1765,-5.179,-5.1765,-5.1808,-5.1932,-5.1956,-5.198,-5.2054,-5.1858,-5.1158,-5.0014,-5.1151,-5.0227,-4.764,-5.0423,-5.0816,-4.9382,-5.1111,-5.1858,-5.1858,-5.1858,-5.1858,-5.1833,-5.174,-5.169,-5.169,-5.169,-5.169,-5.169,-5.169,-5.169,-5.169,-5.169,-5.169,-5.169,-5.1758,-5.1833,-5.1932,-5.2102,-5.215,-5.203,-5.1553,-5.0697,-4.9834,-4.9307,-4.8424,-4.7717,-4.7717,-4.7717,-4.7717,-4.7717,-4.7717,-4.7717,-4.7717,-4.7717,-4.7717,-4.7717,-4.7717,-4.712,-4.5508,-4.521,-4.4518,-4.2911,-4.2653,-4.2577,-4.2577,-4.1807,-4.1185,-4.0825,-4.07,-4.0458,-4.0121,-4.0096,-4.0096,-4.0096,-4.0096,-4.0096,-4.0096,-3.9977,-3.9901,-3.9833,-3.9755,-3.9703,-2.1108,-2.2589,-2.429,-2.4962,-2.429,-2.3773,-2.4873,0.0,0.0,0.0,0.0,0.0,0.0,0.0,0.0,0.0,0.0,0.0,0.0,0.0,0.0,0.0,0.0,0.0,0.0,0.0,0.0,0.0,0.0,-5.169,-5.169,-5.169,-5.174,-5.1808,-5.1808,-5.1882,-5.2005,-5.1932,-5.1034,-4.943,-5.1039,-5.0472,-4.8139,-5.0657,-5.1301,-5.0497,-5.0694,-5.1251,-5.1927,-5.1125,-5.1226,-5.1882,-5.1833,-5.174,-5.169,-5.169,-5.169,-5.1715,-5.1783,-5.1815,-5.1864,-5.1808,-5.1808,-5.1783,-5.1715,-5.174,-5.1833,-5.198,-5.2005,-5.1946,-5.1699,-5.0772,-4.9825,-4.9524,-4.855,-4.7717,-4.7717,-4.7717,-4.7717,-4.7717,-4.7717,-4.7717,-4.7717,-4.7717,-4.7717,-4.7717,-4.7717,-4.712,-4.5508,-4.5291,-4.4675,-4.3082,-4.2901,-4.2901,-4.2901,-4.242,-4.1952,-4.1477,-4.1042,-4.07,-4.041,-4.0204,-4.0096,-4.0096,-4.0096,-4.0096,-4.0096,-4.0037,-3.9986,-3.9986,-3.991,-3.9867,-2.1108,-2.2464,-2.4361,-2.6461,-2.5337,-2.4272,-2.6478,0.0,0.0,0.0,0.0,0.0,0.0,0.0,0.0,0.0,0.0,0.0,0.0,0.0,0.0,0.0,0.0,0.0,0.0,0.0,0.0,0.0,0.0,-5.169,-5.169,-5.169,-5.169,-5.169,-5.1583,-5.1562,-5.1679,-5.1909,-5.1149,-4.9359,-5.1064,-5.0914,-4.9192,-5.0896,-5.1607,-5.1428,0.0,0.0,-5.1611,-5.0235,-5.0492,-5.1746,-5.1829,-5.1808,-5.169,-5.169,-5.169,-5.1715,-5.1858,-5.198,-5.2036,-5.1956,-5.1907,-5.1882,-5.1765,-5.1715,-5.1715,-5.1833,-5.1858,-5.1896,-5.2054,-5.0966,-4.9875,-4.9923,-4.8786,-4.7717,-4.7717,-4.7717,-4.7717,-4.7717,-4.7717,-4.7717,-4.7717,-4.7717,-4.7717,-4.7717,-4.7717,-4.712,-4.5508,-4.5291,-4.4675,-4.3082,-4.2901,-4.2901,-4.2901,-4.2901,-4.2731,-4.2338,-4.1499,-4.0949,-4.0802,-4.0353,-4.0096,-4.0096,-4.0096,-4.0096,-4.0096,-4.0096,-4.0096,-4.0096,-4.0096,-4.0096,-2.1108,-2.3231,-2.5711,-2.6728,-2.5747,-2.4944,-2.6621,0.0,0.0,0.0,0.0,0.0,0.0,0.0,0.0,0.0,0.0,0.0,0.0,0.0,0.0,0.0,0.0,0.0,0.0,0.0,0.0,0.0,0.0,-5.169,-5.169,-5.169,-5.169,-5.169,-5.103,-5.0691,-5.0716,-5.1401,-5.0986,-4.9501,-5.0997,-5.0555,-4.8431,-5.0001,-5.0341,-4.9698,0.0,-4.9656,-4.9948,-5.0355,-5.0677,-5.094,-5.1497,-5.1715,-5.169,-5.169,-5.169,-5.1715,-5.1858,-5.1907,-5.1956,-5.2054,-5.2005,-5.1882,-5.1882,-5.1808,-5.169,-5.1715,-5.1715,-5.1647,-5.1209,-5.0417,-4.9617,-4.9191,-4.8387,-4.7717,-4.7717,-4.7717,-4.7717,-4.7717,-4.7717,-4.7717,-4.7717,-4.7717,-4.7717,-4.7717,-4.7717,-4.712,-4.5508,-4.5291,-4.4675,-4.3082,-4.2901,-4.2901,-4.2901,-4.2901,-4.2863,-4.2806,-4.2279,-4.163,-4.0825,-4.0353,-4.0096,-4.0096,-4.0096,-4.0096,-4.0096,-4.0096,-4.0096,-4.0096,-4.0096,-4.0096,-2.1149,-2.3146,-2.5838,-2.8456,-2.7512,-2.68,-3.0083,0.0,0.0,0.0,0.0,0.0,0.0,0.0,0.0,0.0,0.0,0.0,0.0,0.0,0.0,0.0,0.0,0.0,0.0,0.0,0.0,0.0,0.0,0.0,-5.0343,-5.0343,-5.0343,-5.0343,-4.9913,-4.9692,-4.9692,-5.0066,-4.9517,-4.8068,-4.9698,-4.9382,-4.7517,-4.9115,-4.9704,-4.9359,0.0,-4.8765,-4.9564,-4.9034,-4.9566,-5.0725,-5.1052,-5.139,-5.169,-5.169,-5.179,-5.1914,-5.2005,-5.2102,-5.2198,-5.2126,-5.2054,-5.198,-5.1833,-5.174,-5.1626,-5.1247,-5.1468,-5.1768,-5.1587,-5.0998,-5.0276,-4.9617,-4.8887,-4.8221,-4.7705,-4.7657,-4.7717,-4.7717,-4.7717,-4.7717,-4.7717,-4.7717,-4.7717,-4.7717,-4.7717,-4.712,-4.5508,-4.5291,-4.4675,-4.3082,-4.2901,-4.2901,-4.2901,-4.2901,-4.2806,-4.2555,-4.2318,-4.1888,-4.1208,-4.0955,-4.0855,-4.0855,-4.0926,-4.0949,-4.0949,-4.0949,-4.0995,-4.1007,-4.0659,-4.049,-2.0981,-2.289,-2.5649,-2.9029,0.0,-2.7839,-3.306,-2.9946,0.0,0.0,0.0,0.0,0.0,0.0,0.0,0.0,0.0,0.0,0.0,0.0,0.0,0.0,0.0,0.0,0.0,0.0,0.0,0.0,0.0,0.0,-4.9472,-4.9472,-4.9472,-4.9472,-4.918,-4.9026,-4.9026,-4.8728,-4.8158,-4.7341,-4.8663,-4.8502,-4.7092,-4.836,-4.8925,-4.881,-4.763,-4.7859,-4.8972,-4.7877,-4.8606,-5.0372,-5.0593,-5.1075,-5.169,-5.169,-5.1815,-5.2011,-5.2054,-5.2198,-5.2317,-5.215,-5.2078,-5.2011,-5.1808,-5.1715,-5.159,-5.1099,-5.1274,-5.1711,-5.1814,-5.1315,-5.0646,-5.0082,-4.9242,-4.8395,-4.7698,-4.7636,-4.7717,-4.7717,-4.7717,-4.7717,-4.7717,-4.7717,-4.7717,-4.7717,-4.7717,-4.712,-4.5508,-4.5291,-4.4675,-4.3082,-4.2901,-4.2901,-4.2901,-4.2901,-4.2749,-4.2398,-4.2259,-4.2053,-4.1678,-4.1547,-4.1503,-4.1503,-4.1587,-4.1648,-4.1648,-4.167,-4.1696,-4.1725,-4.123,-4.0955,-2.0423,-2.2813,-2.5503,-2.6565,-2.5842,0.0,-3.3229,-3.0392,0.0,-3.556,0.0,0.0,0.0,0.0,0.0,0.0,0.0,0.0,0.0,0.0,0.0,0.0,0.0,0.0,0.0,0.0,0.0,0.0,0.0,0.0,-5.0213,-5.0213,-5.0213,-5.0213,-4.9489,-4.9091,-4.9091,-4.7977,-4.7911,-4.8827,-4.8976,-4.8562,-4.7723,-4.7853,-4.7571,-4.7002,-4.6895,-4.6982,-4.7257,-4.7859,-4.8627,-4.9478,-5.0209,-5.0994,-5.169,-5.169,-5.1715,-5.174,-5.1882,-5.1932,-5.1956,-5.2078,-5.2029,-5.1907,-5.1882,-5.1808,-5.1672,-5.1644,-5.1316,-5.1011,-5.1146,-5.0505,-4.9852,-5.0045,-4.8808,-4.7605,-4.7675,-4.7678,-4.7717,-4.7717,-4.7717,-4.7717,-4.7717,-4.7717,-4.7717,-4.7717,-4.7717,-4.712,-4.5508,-4.5291,-4.4675,-4.3082,-4.2901,-4.2901,-4.2901,-4.2901,-4.2882,-4.2844,-4.2438,-4.2177,-4.2157,-4.1739,-4.1503,-4.1503,-4.1503,-4.1503,-4.1503,-4.1648,-4.1648,-4.1525,-4.1604,-4.1338,-2.117,-2.2947,-2.5346,-2.8363,-2.7522,0.0,0.0,-3.2532,-3.1684,-3.8894,-3.7525,0.0,0.0,0.0,0.0,0.0,0.0,0.0,0.0,0.0,0.0,0.0,0.0,0.0,0.0,0.0,0.0,0.0,0.0,0.0,-4.8743,-4.8743,-4.8743,-4.8743,-4.8374,-4.8169,-4.8169,-4.7711,-4.7702,-4.8138,-4.7625,-4.7236,-4.6912,-4.7026,-4.6915,-4.6684,-4.6842,-4.6911,-4.6924,-4.7296,-4.789,-4.8728,-5.0013,-5.1173,-5.2144,-5.2144,-5.2343,-5.2626,-5.2688,-5.2613,-5.2444,-5.2402,-5.2162,-5.1907,-5.1907,-5.1808,-5.1544,-5.0689,-5.097,-5.1407,-5.0976,-5.0397,-4.9812,-4.9239,-4.8724,-4.8211,-4.7702,-4.7636,-4.7717,-4.7717,-4.7717,-4.7717,-4.7717,-4.7717,-4.7717,-4.7717,-4.7717,-4.7301,-4.6196,-4.5617,-4.4874,-4.3751,-4.3209,-4.2901,-4.2901,-4.2901,-4.2901,-4.2901,-4.2731,-4.2634,-4.2634,-4.246,-4.236,-4.236,-4.2438,-4.2496,-4.2496,-4.2554,-4.2555,-4.2539,-4.1888,-4.1499,-2.1485,-2.2637,-2.4644,-2.8715,0.0,0.0,-3.5405,-3.4498,-3.4013,-4.0502,0.0,0.0,0.0,0.0,0.0,0.0,0.0,0.0,0.0,0.0,0.0,0.0,0.0,0.0,0.0,0.0,0.0,0.0,0.0,0.0,0.0,-4.8232,-4.8212,-4.8153,-4.8056,-4.7999,-4.7999,-4.7879,-4.7816,-4.7816,-4.7115,-4.6701,-4.6554,-4.6666,-4.6713,-4.6783,-4.7147,-4.7169,-4.703,-4.728,-4.7839,-4.8722,-5.0307,-5.1284,-5.1867,-5.2122,-5.2272,-5.239,-5.239,-5.2263,-5.2101,-5.2118,-5.1912,-5.167,-5.1793,-5.1765,-5.1526,-5.0605,-5.0713,-5.1005,-5.0408,-5.0083,-4.9654,-4.8708,-4.8433,-4.8197,-4.7637,-4.7554,-4.7657,-4.7678,-4.7717,-4.7717,-4.7717,-4.7717,-4.7717,-4.7717,-4.7717,-4.7428,-4.6613,-4.5798,-4.4892,-4.3824,-4.3226,-4.2901,-4.2901,-4.2901,-4.29,-4.2862,-4.29,-4.2901,-4.2901,-4.2901,-4.2901,-4.2901,-4.2994,-4.303,-4.303,-4.3086,-4.3105,-4.3087,-4.234,-4.1948,-2.113,-2.1826,-2.3333,0.0,0.0,0.0,-3.6795,-3.5955,-3.4806,-3.9632,0.0,0.0,0.0,0.0,0.0,0.0,0.0,0.0,0.0,0.0,0.0,0.0,0.0,0.0,0.0,0.0,0.0,0.0,0.0,0.0,0.0,-4.9195,-4.9113,-4.8926,-4.8909,-4.8909,-4.8909,-4.8513,-4.8306,-4.8306,-4.7836,-4.7356,-4.6908,-4.6908,-4.6976,-4.7129,-4.7674,-4.7754,-4.7536,-4.7999,-4.8672,-4.9551,-5.1165,-5.1312,-5.0725,-5.1495,-5.1293,-5.0615,-5.0615,-5.0615,-5.0662,-5.0998,-5.1095,-5.1166,-5.1578,-5.1697,-5.168,-5.168,-5.0628,-4.9483,-4.9323,-4.9418,-4.9321,-4.8663,-4.7824,-4.7245,-4.7468,-4.7511,-4.7533,-4.7678,-4.7699,-4.7699,-4.7717,-4.7717,-4.7717,-4.7717,-4.7717,-4.7428,-4.6595,-4.5798,-4.4675,-4.3063,-4.29,-4.29,-4.29,-4.29,-4.2862,-4.2803,-4.2862,-4.29,-4.2901,-4.2901,-4.2901,-4.2901,-4.2901,-4.2901,-4.2901,-4.303,-4.303,-4.2901,-4.303,-4.2767,-2.4055,-2.4486,0.0,0.0,0.0,0.0,0.0,-3.6255,0.0,0.0,0.0,0.0,0.0,0.0,0.0,0.0,0.0,0.0,0.0,0.0,0.0,0.0,0.0,0.0,0.0,0.0,0.0,0.0,0.0,0.0,0.0,-4.9337,-4.9305,-4.9257,-4.9162,-4.9113,-4.9113,-4.8838,-4.8714,-4.8714,-4.8288,-4.7836,-4.7399,-4.7503,-4.7503,-4.7464,-4.7813,-4.7854,-4.7731,-4.8017,-4.8632,-4.9461,-5.0021,-5.0656,-5.125,-5.1491,-5.1615,-5.1634,-5.1552,-5.1304,-5.1045,-5.1266,-5.1106,-5.0858,-5.1073,-5.1151,-5.1028,-5.0519,-5.047,-5.031,-4.9171,-4.9282,-4.9383,-4.8106,-4.767,-4.7615,-4.7809,-4.785,-4.787,-4.7891,-4.7909,-4.7888,-4.7861,-4.784,-4.7819,-4.7699,-4.7717,-4.721,-4.5834,-4.5411,-4.4612,-4.3004,-4.2746,-4.2689,-4.2689,-4.2689,-4.2728,-4.2862,-4.2747,-4.2746,-4.2841,-4.2881,-4.2901,-4.2901,-4.2901,-4.2901,-4.2901,-4.2938,-4.2938,-4.2882,-4.2595,-4.2358,-2.6217,0.0,0.0,0.0,0.0,0.0,0.0,0.0,0.0,0.0,0.0,0.0,0.0,0.0,0.0,0.0,0.0,0.0,0.0,0.0,0.0,0.0,0.0,0.0,0.0,0.0,0.0,0.0,0.0,0.0,0.0,-4.9525,-4.9476,-4.9415,-4.9321,-4.9292,-4.9292,-4.916,-4.9094,-4.9094,-4.8854,-4.8586,-4.831,-4.8096,-4.7977,-4.7962,-4.8233,-4.844,-4.855,-4.8513,-4.8918,-4.9612,-4.9961,-5.0407,-5.0895,-5.1201,-5.1268,-5.12,-5.113,-5.0924,-5.0715,-5.0933,-5.0817,-5.062,-5.086,-5.0934,-5.0861,-5.0398,-5.0398,-5.0304,-4.9374,-4.9244,-4.9139,-4.8191,-4.7957,-4.7935,-4.8096,-4.8117,-4.8096,-4.8032,-4.8113,-4.8134,-4.7968,-4.7945,-4.7907,-4.7845,-4.7806,-4.7225,-4.5627,-4.5388,-4.475,-4.3137,-4.2899,-4.2824,-4.2824,-4.2824,-4.288,-4.2975,-4.2881,-4.2861,-4.2936,-4.288,-4.2862,-4.2901,-4.2901,-4.2901,-4.2901,-4.2901,-4.2901,-4.2882,-4.2614,-4.2478,-2.7864,0.0,0.0,0.0,0.0,0.0,0.0,0.0,0.0,0.0,0.0,0.0,0.0,0.0,0.0,0.0,0.0,0.0,0.0,0.0,0.0,0.0,0.0,0.0,0.0,0.0,0.0,0.0,0.0,0.0,0.0,-4.9721,-4.963,-4.9461,-4.943,-4.943,-4.943,-4.9415,-4.9399,-4.9399,-4.9399,-4.9399,-4.9384,-4.8713,-4.8477,-4.8604,-4.8847,-4.923,-4.9663,-4.9299,-4.9393,-4.9868,-5.0533,-5.0435,-4.9974,-5.0662,-5.0468,-4.9912,-4.9898,-4.9879,-4.9952,-5.0252,-5.035,-5.0418,-5.0796,-5.0914,-5.0932,-5.0914,-5.0391,-4.9848,-4.9848,-4.9344,-4.8857,-4.8857,-4.8565,-4.8273,-4.8366,-4.8384,-4.8347,-4.8154,-4.8347,-4.8477,-4.8153,-4.8113,-4.8093,-4.8053,-4.8032,-4.7445,-4.5913,-4.564,-4.5001,-4.3452,-4.3233,-4.316,-4.316,-4.316,-4.316,-4.3123,-4.3142,-4.316,-4.3123,-4.2936,-4.2879,-4.2938,-4.2938,-4.292,-4.2919,-4.2919,-4.2901,-4.2901,-4.2901,-4.2901,0.0,0.0,0.0,0.0,0.0,0.0,0.0,0.0,0.0,0.0,0.0,0.0,0.0,0.0,0.0,0.0,0.0,0.0,0.0,0.0,0.0,0.0,0.0,0.0,0.0,0.0,0.0,0.0,0.0,0.0,-4.9857,-4.9857,-4.9843,-4.9797,-4.9688,-4.9648,-4.9648,-4.9476,-4.9399,-4.9399,-4.9399,-4.9399,-4.938,-4.9239,-4.9171,-4.9204,-4.9268,-4.943,-4.9604,-4.9544,-4.957,-4.9754,-5.0005,-5.0022,-4.9931,-5.0074,-5.0077,-4.9965,-4.9857,-4.9857,-4.9917,-5.0055,-5.0093,-5.0098,-5.0199,-5.0293,-5.0356,-5.0306,-5.0242,-5.0196,-5.0196,-5.0063,-4.9949,-4.9949,-4.9386,-4.8878,-4.9043,-4.9075,-4.9059,-4.9029,-4.9078,-4.9078,-4.8967,-4.8934,-4.8815,-4.844,-4.8173,-4.7645,-4.6679,-4.5927,-4.5142,-4.416,-4.3394,-4.2957,-4.2957,-4.2957,-4.3031,-4.316,-4.305,-4.3087,-4.3323,-4.3178,-4.3123,-4.3123,-4.3123,-4.3105,-4.3049,-4.3049,-4.2994,-4.2901,-4.2901,-4.2901,0.0,0.0,0.0,0.0,0.0,0.0,0.0,0.0,0.0,0.0,0.0,0.0,0.0,0.0,0.0,0.0,0.0,0.0,0.0,0.0,0.0,0.0,0.0,0.0,0.0,0.0,0.0,0.0,0.0,-5.0005,-5.0005,-5.0005,-5.0005,-5.0005,-4.9898,-4.9843,-4.9843,-4.9698,-4.964,-4.964,-4.964,-4.964,-4.964,-4.9566,-4.954,-4.9555,-4.9611,-4.9669,-4.9731,-4.9731,-4.9774,-4.9843,-4.9885,-4.9952,-5.0005,-4.9965,-4.9992,-5.0044,-4.9965,-4.9965,-5.0018,-5.0063,-5.0108,-5.0089,-5.0126,-5.0175,-5.0243,-5.0207,-5.0243,-5.0302,-5.0302,-5.0302,-5.0302,-5.0302,-4.9825,-4.942,-4.9527,-4.9541,-4.9498,-4.9329,-4.9439,-4.9483,-4.9271,-4.9115,-4.8917,-4.8675,-4.8364,-4.7858,-4.7052,-4.621,-4.5387,-4.4583,-4.3707,-4.3196,-4.3196,-4.3196,-4.3232,-4.3339,-4.325,-4.3268,-4.3446,-4.3375,-4.3304,-4.3196,-4.3214,-4.3178,-4.3142,-4.3142,-4.3105,-4.2994,-4.2994,-4.2957,0.0,0.0,0.0,0.0,0.0,0.0,0.0,0.0,0.0,0.0,0.0,0.0,0.0,0.0,0.0,0.0,0.0,0.0,0.0,0.0,0.0,0.0,0.0,0.0,0.0,0.0,0.0,0.0,0.0,-5.0095,-5.0095,-5.0095,-5.0095,-5.0095,-5.0044,-5.0005,-5.0018,-4.9952,-4.9925,-4.9925,-4.9912,-4.9912,-4.9898,-4.9792,-4.9736,-4.975,-4.9857,-4.9912,-4.9912,-4.9912,-4.992,-4.9978,-4.9906,-4.9978,-5.0057,-5.0005,-5.0031,-5.0082,-5.0082,-5.0095,-5.0108,-5.0151,-5.0175,-5.0207,-5.0267,-5.029,-5.029,-5.0302,-5.0302,-5.0302,-5.0302,-5.0302,-5.0302,-5.0302,-5.0088,-4.9903,-4.9903,-4.9903,-4.9784,-4.9527,-4.9702,-4.9803,-4.9527,-4.9193,-4.8967,-4.8967,-4.8676,-4.8237,-4.7573,-4.6616,-4.5734,-4.5054,-4.41,-4.3515,-4.3515,-4.3515,-4.3515,-4.3515,-4.3515,-4.3515,-4.3515,-4.3515,-4.341,-4.3269,-4.325,-4.3251,-4.3233,-4.3233,-4.3178,-4.3123,-4.3123,-4.3068,0.0,0.0,0.0,0.0,0.0,0.0,0.0,0.0,0.0,0.0,0.0,0.0,0.0,0.0,0.0,0.0,0.0,0.0,0.0,0.0,0.0,0.0,0.0,0.0,0.0,0.0,0.0,0.0,-5.0095,-5.0095,-5.0095,-5.0044,-5.0044,-5.0095,-5.0044,-5.0031,-5.0082,-5.0031,-4.9992,-4.9992,-4.9939,-4.9912,-4.9912,-4.9885,-4.9885,-4.9885,-4.9879,-4.9912,-4.9912,-4.9912,-4.9912,-4.9906,-4.9893,-4.9912,-4.9939,-4.9925,-4.9965,-5.0018,-5.0018,-5.0057,-5.0108,-5.0108,-5.012,-5.0133,-5.0188,-5.02,-5.0231,-5.029,-5.0302,-5.0302,-5.0302,-5.0302,-5.0302,-5.0302,-5.0278,-5.0236,-5.0236,-5.0236,-5.0224,-5.0188,-5.0212,-5.0224,-5.0169,-4.9903,-4.9674,-4.9674,-4.9378,-4.9121,-4.9027,-4.7425,-4.6296,-4.6184,-4.4568,-4.3515,-4.3515,-4.3515,-4.3515,-4.3515,-4.3515,-4.3515,-4.3515,-4.3515,-4.3497,-4.3463,-4.3463,-4.3428,-4.3358,-4.3358,-4.3305,-4.3196,-4.3196,-4.3178,0.0,0.0,0.0,0.0,0.0,0.0,0.0,0.0,0.0,0.0,0.0,0.0,0.0,0.0,0.0,0.0,0.0,0.0,0.0,0.0,0.0,0.0,0.0,0.0,0.0,0.0,0.0,0.0,-5.0219,-5.0194,-5.017,-5.0133,-5.012,-5.0095,-5.007,-5.007,-5.0095,-5.007,-5.0057,-5.0057,-4.9992,-4.9965,-4.9946,-4.9925,-4.9912,-4.9912,-4.9912,-4.9912,-4.9912,-4.9912,-4.9912,-4.9912,-4.9912,-4.9912,-4.9893,-4.9933,-4.9952,-4.9946,-5.0031,-5.0057,-5.0057,-5.0095,-5.0095,-5.0108,-5.0145,-5.0126,-5.017,-5.0231,-5.0236,-5.0255,-5.029,-5.0302,-5.0302,-5.0302,-5.0302,-5.0302,-5.0302,-5.0302,-5.0302,-5.0302,-5.0302,-5.0302,-5.0302,-5.0025,-4.9803,-4.9803,-4.9512,-4.9299,-4.9299,-4.7769,-4.6685,-4.6685,-4.5072,-4.3992,-4.3992,-4.3857,-4.3781,-4.3781,-4.3599,-4.3515,-4.3515,-4.3515,-4.3515,-4.3515,-4.3515,-4.348,-4.3464,-4.3464,-4.3411,-4.3323,-4.3323,-4.3269,0.0,0.0,0.0,0.0,0.0,0.0,0.0,0.0,0.0,0.0,0.0,0.0,0.0,0.0,0.0,0.0,0.0,0.0,0.0,0.0,0.0,0.0,0.0,0.0,0.0,0.0,0.0,0.0,-4.9828,-4.9961,-4.9895,-5.0061,-5.017,-5.0133,-5.0095,-5.0082,-5.0095,-5.0095,-5.0095,-5.0095,-5.0057,-5.0031,-5.0031,-4.9965,-4.9939,-4.992,-4.9912,-4.9912,-4.9912,-4.9912,-4.9912,-4.9912,-4.9912,-4.9912,-4.9912,-4.9965,-4.9933,-4.9906,-4.9999,-5.0031,-5.0018,-5.0057,-5.0082,-5.0095,-5.0095,-5.0095,-5.0108,-5.017,-5.0163,-5.0194,-5.0243,-5.0267,-5.0278,-5.0278,-5.029,-5.0302,-5.0302,-5.0302,-5.0302,-5.0302,-5.0302,-5.0302,-5.0302,-5.0088,-4.9929,-4.9929,-4.9716,-4.9556,-4.9556,-4.807,-4.7029,-4.7029,-4.5453,-4.4397,-4.4397,-4.4221,-4.4091,-4.4091,-4.3857,-4.3728,-4.3728,-4.3728,-4.3728,-4.3728,-4.3647,-4.3582,-4.3515,-4.3515,-4.348,-4.3429,-4.3429,-4.3376,0.0,0.0,0.0,0.0,0.0,0.0,0.0,0.0,0.0,0.0,0.0,0.0,0.0,0.0,0.0,0.0,0.0,0.0,0.0,0.0,0.0,0.0,0.0,0.0,0.0,0.0,0.0,0.0,-4.8555,-4.9074,-4.9055,-4.9726,-5.0133,-5.0188,-5.0063,-5.0044,-5.0095,-5.0095,-5.0095,-5.0095,-5.0095,-5.0095,-5.0095,-5.0031,-4.9986,-5.0005,-4.9939,-4.9912,-4.9912,-4.9912,-4.9912,-4.9912,-4.9912,-4.9912,-4.9912,-4.9893,-4.9893,-4.9912,-4.9912,-4.9952,-5.0005,-4.9986,-5.0057,-5.0095,-5.0095,-5.0095,-5.0095,-5.0108,-5.0108,-5.0108,-5.0108,-5.017,-5.0219,-5.0219,-5.0248,-5.0302,-5.0302,-5.0302,-5.0302,-5.0302,-5.0302,-5.0302,-5.0302,-5.029,-5.0259,-5.0259,-5.0248,-5.0248,-5.0248,-4.8555,-4.7359,-4.7359,-4.559,-4.4397,-4.4397,-4.4402,-4.4388,-4.4388,-4.4355,-4.4341,-4.4341,-4.4341,-4.4341,-4.4341,-4.4106,-4.3814,-4.3515,-4.3515,-4.3497,-4.3479,-4.3479,-4.3497,0.0,0.0,0.0,0.0,0.0,0.0,0.0,0.0,0.0,0.0,0.0,0.0,0.0,0.0,0.0,0.0,0.0,0.0,0.0,0.0,0.0,0.0,0.0,0.0,0.0,0.0,0.0,0.0,0.0,-4.6946,-4.7971,-4.7262,-4.7314,-4.8365,-4.8954,-4.9512,-5.0076,-5.0145,-5.0151,-5.0151,-5.0151,-5.0151,-5.0151,-5.0076,-5.0044,-5.0005,-4.9959,-4.9952,-4.9912,-4.9912,-4.9912,-4.9912,-4.9912,-4.9939,-4.9946,-4.9946,-4.9946,-4.9978,-5.0018,-5.0018,-5.0005,-5.0005,-5.0018,-5.0044,-5.0044,-5.0044,-5.0044,-5.0095,-5.0095,-5.0095,-5.0095,-5.012,-5.0158,-5.0188,-5.0255,-5.0168,-4.9633,-4.9939,-5.0302,-5.0302,-5.0302,-5.0302,-5.0302,-5.0302,-5.0302,-5.0302,-5.0302,-5.0302,-5.0302,-4.8762,-4.7655,-4.7655,-4.605,-4.4976,-4.4976,-4.4782,-4.465,-4.465,-4.4493,-4.4397,-4.4397,-4.4397,-4.4397,-4.4397,-4.4303,-4.4102,-4.383,-4.3599,-4.3515,-4.3515,-4.3515,-4.3515,0.0,0.0,0.0,0.0,0.0,0.0,0.0,0.0,0.0,0.0,0.0,0.0,0.0,0.0,0.0,0.0,0.0,0.0,0.0,0.0,0.0,0.0,0.0,0.0,0.0,0.0,0.0,0.0,0.0,0.0,-4.7079,-4.6314,-4.6334,-4.7372,-4.7998,-4.8618,-4.9214,-4.9264,-4.93,-4.9325,-4.9325,-4.9325,-4.9325,-4.927,-4.9188,-4.915,-4.9143,-4.9421,-4.9912,-4.9912,-4.9912,-4.9912,-4.9912,-4.9939,-4.9978,-4.9978,-4.9978,-4.9978,-5.0018,-5.0018,-5.0005,-5.0005,-5.0018,-5.0031,-5.0031,-4.9828,-4.9619,-4.9638,-4.9448,-4.9176,-4.9176,-4.922,-4.9239,-4.9313,-4.9391,-4.9274,-4.8751,-4.9297,-4.9805,-4.9519,-4.9461,-4.9461,-4.9461,-4.9461,-4.9461,-4.9461,-4.9461,-4.9461,-4.9461,-4.8227,-4.7349,-4.7349,-4.6137,-4.5307,-4.5307,-4.5098,-4.4969,-4.4969,-4.4795,-4.4695,-4.4695,-4.4695,-4.4695,-4.4695,-4.4585,-4.4457,-4.4265,-4.3949,-4.3744,-4.3666,-4.3666,-4.3599,0.0,0.0,0.0,0.0,0.0,0.0,0.0,0.0,0.0,0.0,0.0,0.0,0.0,0.0,0.0,0.0,0.0,0.0,0.0,0.0,0.0,0.0,0.0,0.0,0.0,0.0,0.0,0.0,-4.581,-4.6302,-4.6359,-4.7041,-4.7416,-4.7372,-4.7359,-4.7416,-4.7498,-4.7498,-4.7535,-4.7589,-4.76,-4.76,-4.7589,-4.7535,-4.7498,-4.7498,-4.7435,-4.8319,-4.9836,-4.9836,-4.9836,-4.9836,-4.9836,-4.9836,-4.9874,-4.9874,-4.9874,-4.9912,-4.9893,-4.9933,-5.0005,-4.9967,-5.0006,-5.0057,-5.0019,-4.9429,-4.8751,-4.8751,-4.8124,-4.7409,-4.7397,-4.7448,-4.7523,-4.7577,-4.7643,-4.7678,-4.7659,-4.8384,-4.8774,-4.796,-4.7788,-4.7788,-4.7788,-4.7788,-4.7788,-4.7788,-4.7788,-4.7788,-4.7788,-4.7035,-4.65,-4.65,-4.5774,-4.5307,-4.5307,-4.5307,-4.5297,-4.5297,-4.5297,-4.5297,-4.5297,-4.5297,-4.5297,-4.5297,-4.4988,-4.48,-4.48,-4.4533,-4.4246,-4.4005,-4.3989,-4.3814,-2.5523,0.0,0.0,0.0,0.0,0.0,0.0,0.0,0.0,0.0,0.0,0.0,0.0,0.0,0.0,0.0,0.0,0.0,0.0,0.0,0.0,0.0,0.0,0.0,0.0,0.0,0.0,0.0,-4.4052,-4.4056,-4.5318,-4.5573,-4.5966,-4.6581,-4.655,-4.6822,-4.7422,-4.7473,-4.751,-4.7535,-4.7584,-4.76,-4.76,-4.7577,-4.7547,-4.7498,-4.7485,-4.7713,-4.8079,-4.8079,-4.8079,-4.8079,-4.8079,-4.8516,-4.9105,-4.9053,-4.9453,-5.0031,-4.992,-4.9933,-4.9897,-4.9269,-4.9079,-4.8991,-4.8403,-4.8042,-4.7859,-4.7859,-4.7675,-4.746,-4.7409,-4.7448,-4.7498,-4.7523,-4.7584,-4.746,-4.6889,-4.6957,-4.7278,-4.772,-4.7788,-4.7788,-4.7788,-4.7788,-4.7788,-4.7788,-4.7788,-4.7788,-4.7788,-4.7035,-4.65,-4.65,-4.5774,-4.5307,-4.5307,-4.5307,-4.5286,-4.5224,-4.5224,-4.5224,-4.5224,-4.5181,-4.5181,-4.5243,-4.5095,-4.503,-4.5095,-4.463,-4.4246,-4.3989,-4.3701,-4.3532,0.0,0.0,0.0,0.0,0.0,0.0,-2.7886,-3.1479,0.0,0.0,0.0,0.0,0.0,0.0,0.0,0.0,0.0,0.0,0.0,0.0,0.0,0.0,0.0,0.0,0.0,-4.5154,-4.5109,-4.5076,-4.4079,-4.3919,-4.4917,-4.4979,-4.5219,-4.5732,-4.5714,-4.593,-4.6392,-4.6404,-4.6465,-4.6534,-4.6494,-4.6557,-4.6715,-4.6647,-4.6625,-4.668,-4.668,-4.6639,-4.6606,-4.6606,-4.693,-4.7397,-4.7397,-4.7726,-4.8219,-4.8181,-4.8491,-4.896,-4.8876,-4.8882,-4.8846,-4.8332,-4.8168,-4.8086,-4.7625,-4.7258,-4.6948,-4.6992,-4.6726,-4.6404,-4.6367,-4.6392,-4.6417,-4.6417,-4.6513,-4.6462,-4.6005,-4.5946,-4.6124,-4.6587,-4.6694,-4.6724,-4.6724,-4.6727,-4.6768,-4.6768,-4.6768,-4.6768,-4.6768,-4.6309,-4.6003,-4.6003,-4.5583,-4.5307,-4.5307,-4.5307,-4.5275,-4.5203,-4.5192,-4.5181,-4.5159,-4.5125,-4.5125,-4.5159,-4.5125,-4.5136,-4.5192,-4.4893,-4.461,-4.4336,-4.398,-4.3744,0.0,0.0,0.0,0.0,0.0,0.0,-2.7868,-3.2205,-3.6326,0.0,0.0,0.0,0.0,0.0,0.0,0.0,0.0,0.0,0.0,0.0,0.0,0.0,0.0,0.0,-4.5498,-4.539,-4.5313,-4.5313,-4.5156,-4.503,-4.4972,-4.503,-4.5072,-4.5072,-4.5072,-4.5042,-4.503,-4.4984,-4.5045,-4.5222,-4.5034,-4.5137,-4.5472,-4.5294,-4.5314,-4.549,-4.549,-4.5498,-4.5507,-4.5507,-4.6165,-4.7182,-4.7182,-4.7239,-4.7315,-4.7315,-4.7384,-4.7472,-4.7472,-4.7485,-4.7459,-4.7383,-4.7333,-4.7326,-4.7291,-4.6754,-4.6159,-4.6206,-4.5612,-4.4976,-4.4976,-4.4965,-4.496,-4.496,-4.5084,-4.5203,-4.5203,-4.531,-4.5331,-4.517,-4.5181,-4.5235,-4.5235,-4.5277,-4.5328,-4.5298,-4.5288,-4.5307,-4.5307,-4.5297,-4.5297,-4.5297,-4.5307,-4.5307,-4.5307,-4.5307,-4.5275,-4.5203,-4.5192,-4.517,-4.5114,-4.5103,-4.5103,-4.5103,-4.5103,-4.5125,-4.5192,-4.517,-4.503,-4.4788,-4.4519,-4.4198,0.0,0.0,0.0,0.0,0.0,0.0,-2.6961,-2.8052,-2.9737,0.0,0.0,0.0,0.0,0.0,0.0,0.0,0.0,0.0,0.0,0.0,0.0,0.0,0.0,0.0,-4.5498,-4.5491,-4.5454,-4.5454,-4.5473,-4.5493,-4.5455,-4.5484,-4.5473,-4.5473,-4.5437,-4.5371,-4.5314,-4.5362,-4.5381,-4.5352,-4.5314,-4.5333,-4.541,-4.5371,-4.5381,-4.5417,-4.5417,-4.5441,-4.5502,-4.5502,-4.565,-4.587,-4.587,-4.6273,-4.6839,-4.6839,-4.7319,-4.796,-4.7904,-4.7948,-4.791,-4.7152,-4.6912,-4.6797,-4.6158,-4.5857,-4.5714,-4.5722,-4.5607,-4.5464,-4.5464,-4.5374,-4.5304,-4.5304,-4.5293,-4.5286,-4.5286,-4.5288,-4.5298,-4.5275,-4.537,-4.5438,-4.5438,-4.5448,-4.5438,-4.5381,-4.532,-4.5317,-4.5369,-4.5286,-4.5235,-4.5297,-4.5307,-4.5307,-4.5307,-4.5307,-4.5275,-4.5203,-4.5192,-4.5192,-4.5181,-4.508,-4.5038,-4.5103,-4.5057,-4.5038,-4.5125,-4.4955,-4.4864,-4.4788,-4.4465,-4.4303,0.0,0.0,0.0,-2.642,0.0,0.0,0.0,-2.7918,-2.9572,-3.2177,0.0,0.0,0.0,0.0,0.0,0.0,0.0,0.0,0.0,0.0,0.0,0.0,0.0,0.0,-4.5803,-4.5713,-4.5615,-4.5498,-4.5535,-4.5552,-4.5552,-4.5588,-4.5605,-4.5605,-4.558,-4.5535,-4.549,-4.549,-4.5526,-4.5543,-4.5488,-4.5547,-4.5703,-4.5627,-4.5645,-4.575,-4.575,-4.5764,-4.5789,-4.5789,-4.579,-4.579,-4.5619,-4.5796,-4.6155,-4.6155,-4.6445,-4.6858,-4.6816,-4.6846,-4.6832,-4.6361,-4.6199,-4.6121,-4.5722,-4.5606,-4.5606,-4.5606,-4.5606,-4.5606,-4.5606,-4.5549,-4.5507,-4.5507,-4.5533,-4.5539,-4.5539,-4.5579,-4.5587,-4.556,-4.5654,-4.5688,-4.5476,-4.5448,-4.5438,-4.541,-4.5361,-4.536,-4.5348,-4.5297,-4.5243,-4.5203,-4.5192,-4.5243,-4.5297,-4.5307,-4.5275,-4.5203,-4.5256,-4.5246,-4.5159,-4.5148,-4.517,-4.5192,-4.517,-4.5148,-4.5148,-4.5091,-4.5061,-4.5045,-4.4881,-4.4707,0.0,0.0,0.0,0.0,0.0,-2.7143,0.0,0.0,0.0,-3.2109,0.0,0.0,0.0,0.0,0.0,0.0,0.0,0.0,0.0,0.0,0.0,0.0,0.0,0.0,-4.4848,-4.5154,-4.5434,-4.5607,-4.5623,-4.5623,-4.5623,-4.5688,-4.5711,-4.5696,-4.5703,-4.5711,-4.5696,-4.5646,-4.565,-4.5761,-4.5665,-4.575,-4.5997,-4.5894,-4.5928,-4.6108,-4.6108,-4.6117,-4.613,-4.613,-4.6115,-4.6091,-4.5799,-4.5712,-4.5693,-4.5699,-4.5706,-4.5718,-4.5725,-4.5717,-4.5729,-4.5729,-4.5729,-4.5729,-4.5729,-4.5729,-4.5729,-4.5729,-4.5729,-4.5729,-4.5729,-4.5731,-4.5712,-4.5712,-4.575,-4.5813,-4.5813,-4.5867,-4.5883,-4.5828,-4.5911,-4.5863,-4.553,-4.5493,-4.5509,-4.5484,-4.5456,-4.54,-4.535,-4.5328,-4.5286,-4.5162,-4.5151,-4.5194,-4.5309,-4.5319,-4.5298,-4.5246,-4.5329,-4.5319,-4.5162,-4.5256,-4.5317,-4.5307,-4.5307,-4.5286,-4.5254,-4.5297,-4.5317,-4.5307,-4.5317,-4.5151,0.0,0.0,0.0,0.0,-2.8043,0.0,0.0,0.0,-2.8541,-2.8756,0.0,0.0,0.0,0.0,0.0,0.0,0.0,0.0,0.0,0.0,0.0,0.0,0.0,0.0,0.0,-4.2451,-4.4394,-4.5929,-4.6027,-4.6037,-4.6037,-4.6098,-4.6102,-4.6042,-4.6102,-4.6102,-4.6042,-4.6041,-4.6018,-4.5975,-4.6016,-4.6021,-4.6002,-4.5972,-4.6012,-4.6105,-4.6105,-4.6122,-4.6192,-4.6192,-4.619,-4.6173,-4.6072,-4.6032,-4.6036,-4.6035,-4.6088,-4.6121,-4.6138,-4.6162,-4.6219,-4.6219,-4.6219,-4.6219,-4.6219,-4.6219,-4.6219,-4.6219,-4.6219,-4.6219,-4.6219,-4.6122,-4.6033,-4.6033,-4.5959,-4.5894,-4.5894,-4.5899,-4.5899,-4.5889,-4.5899,-4.5892,-4.5776,-4.5859,-4.5889,-4.5773,-4.5646,-4.5549,-4.5495,-4.5438,-4.537,-4.5361,-4.5371,-4.5371,-4.539,-4.539,-4.5381,-4.5381,-4.539,-4.539,-4.5371,-4.538,-4.5359,-4.5307,-4.5307,-4.5328,-4.5388,-4.5369,-4.5348,-4.5307,-4.5359,-4.5359,0.0,0.0,0.0,0.0,0.0,0.0,-3.057,0.0,-2.834,0.0,0.0,0.0,0.0,0.0,0.0,0.0,-2.8191,0.0,0.0,0.0,0.0,0.0,0.0,0.0,0.0,0.0,0.0,0.0,-4.3903,-4.3903,-4.3892,-4.5363,-4.6192,-4.6154,-4.6189,-4.6189,-4.6154,-4.6162,-4.6127,-4.6069,-4.613,-4.613,-4.6069,-4.6102,-4.613,-4.6162,-4.6162,-4.6174,-4.6199,-4.6199,-4.6206,-4.6196,-4.6165,-4.6169,-4.6167,-4.6157,-4.6186,-4.6198,-4.6206,-4.6238,-4.6292,-4.6298,-4.63,-4.63,-4.63,-4.63,-4.63,-4.63,-4.63,-4.63,-4.63,-4.6269,-4.6214,-4.6214,-4.6176,-4.6138,-4.6138,-4.6138,-4.6105,-4.6037,-4.6087,-4.6098,-4.5998,-4.5949,-4.5919,-4.5877,-4.5802,-4.5724,-4.5574,-4.5535,-4.5465,-4.5351,-4.533,-4.5361,-4.54,-4.54,-4.54,-4.54,-4.54,-4.5429,-4.5513,-4.5514,-4.5495,-4.5467,-4.5467,-4.5448,-4.539,-4.5438,-4.541,-4.5361,-4.538,-4.539,-3.5394,0.0,0.0,0.0,0.0,0.0,0.0,0.0,0.0,0.0,0.0,0.0,0.0,0.0,0.0,0.0,0.0,-2.7513,0.0,0.0,0.0,0.0,0.0,0.0,0.0,0.0,0.0,-4.1112,-4.191,-4.2307,-4.2302,-4.4803,-4.6216,-4.6193,-4.6222,-4.6225,-4.6238,-4.6238,-4.619,-4.6134,-4.6187,-4.6167,-4.6134,-4.6183,-4.6206,-4.6206,-4.6199,-4.6199,-4.6199,-4.6199,-4.6199,-4.6199,-4.6199,-4.6193,-4.6195,-4.6201,-4.6201,-4.6201,-4.6206,-4.6233,-4.6262,-4.6271,-4.6273,-4.6273,-4.6273,-4.6273,-4.6273,-4.6273,-4.6294,-4.6296,-4.6296,-4.6298,-4.63,-4.63,-4.63,-4.63,-4.63,-4.63,-4.6273,-4.6176,-4.6221,-4.6271,-4.6176,-4.6064,-4.5996,-4.5969,-4.5945,-4.5894,-4.571,-4.5689,-4.5642,-4.5482,-4.5464,-4.5472,-4.5541,-4.5541,-4.5524,-4.551,-4.551,-4.5538,-4.5594,-4.5594,-4.5594,-4.5594,-4.5594,-4.5559,-4.5448,-4.5504,-4.5504,-4.5448,-4.5429,-4.5429,0.0,0.0,0.0,-3.5193,0.0,0.0,0.0,0.0,-3.1735,0.0,0.0,0.0,0.0,0.0,0.0,-2.8074,0.0,0.0,0.0,0.0,0.0,0.0,0.0,0.0,0.0,0.0,-3.8523,-3.8617,-4.0902,-4.2302,-4.2301,-4.4846,-4.6277,-4.6206,-4.6269,-4.6294,-4.6303,-4.6303,-4.6258,-4.6206,-4.6206,-4.6206,-4.6203,-4.6192,-4.6203,-4.6203,-4.6206,-4.6199,-4.6199,-4.6199,-4.6199,-4.6199,-4.6199,-4.6199,-4.6203,-4.62,-4.6206,-4.6206,-4.6203,-4.6209,-4.6209,-4.6209,-4.6209,-4.6209,-4.6209,-4.6209,-4.6209,-4.6209,-4.6258,-4.6306,-4.6306,-4.6292,-4.63,-4.63,-4.63,-4.63,-4.63,-4.63,-4.63,-4.6298,-4.63,-4.63,-4.6298,-4.6298,-4.6243,-4.6109,-4.6095,-4.6049,-4.591,-4.5894,-4.5894,-4.5889,-4.5883,-4.5889,-4.5889,-4.5889,-4.5858,-4.578,-4.5793,-4.5727,-4.5622,-4.5594,-4.5594,-4.5594,-4.5594,-4.5594,-4.5586,-4.5605,-4.5605,-4.5586,-4.5522,-4.5495,0.0,0.0,-4.0799,-3.9914,0.0,0.0,0.0,0.0,0.0,0.0,0.0,0.0,0.0,0.0,-2.8346,-2.747,-2.6866,0.0,0.0,0.0,0.0,0.0,0.0,0.0,0.0,0.0,0.0,-3.4981,-3.6947,-3.8063,-3.8056,-4.2217,-4.4569,-4.4545,-4.5689,-4.6298,-4.6296,-4.6296,-4.6294,-4.6271,-4.6262,-4.6279,-4.6258,-4.6217,-4.6189,-4.6198,-4.619,-4.6206,-4.6196,-4.6203,-4.6199,-4.6199,-4.6199,-4.6199,-4.6199,-4.6206,-4.6206,-4.6209,-4.6206,-4.6192,-4.6195,-4.6203,-4.6206,-4.6206,-4.6206,-4.6206,-4.6206,-4.6206,-4.6211,-4.6233,-4.6233,-4.6236,-4.6221,-4.6221,-4.6267,-4.629,-4.629,-4.6296,-4.63,-4.63,-4.63,-4.63,-4.63,-4.63,-4.6277,-4.6243,-4.624,-4.6181,-4.6049,-4.6041,-4.5996,-4.591,-4.5899,-4.5899,-4.5899,-4.5899,-4.5883,-4.5863,-4.5863,-4.584,-4.5796,-4.5796,-4.5769,-4.5727,-4.5727,-4.5692,-4.5594,-4.5594,-4.5594,-4.5594,-4.5577,-4.5568,-4.3178,-4.3612,0.0,-4.2461,-4.0995,0.0,-3.8671,0.0,0.0,0.0,0.0,0.0,0.0,0.0,0.0,-2.8152,-2.7297,-2.6602,0.0,-2.5669,0.0,0.0,0.0,0.0,0.0,0.0,-3.0658,-3.2343,-3.4313,-3.5568,0.0,-4.0869,-4.3708,-4.3693,-4.5398,-4.63,-4.63,-4.63,-4.63,-4.63,-4.6294,-4.629,-4.629,-4.625,-4.6223,-4.6206,-4.62,-4.619,-4.6193,-4.6203,-4.6199,-4.6199,-4.6199,-4.6199,-4.6199,-4.6199,-4.6199,-4.6199,-4.6193,-4.6196,-4.6196,-4.6209,-4.6192,-4.6192,-4.6192,-4.6192,-4.627,-4.6582,-4.6449,-4.6279,-4.6588,-4.6437,-4.6206,-4.6206,-4.6233,-4.626,-4.626,-4.6264,-4.6251,-4.6251,-4.6273,-4.6296,-4.6296,-4.6298,-4.63,-4.63,-4.63,-4.6271,-4.6181,-4.6176,-4.6141,-4.6053,-4.6045,-4.6045,-4.6045,-4.6045,-4.6013,-4.5959,-4.5978,-4.594,-4.5905,-4.5899,-4.5863,-4.5807,-4.5807,-4.5727,-4.5594,-4.5594,-4.5594,-4.5594,-4.5594,-4.5594]},{"header":{"parameterUnit":"m.s-1","parameterCategory":1,"la1":30.6,"la2":29.2853,"lo1":-89.7004,"lo2":-87.6739,"dy":0.0162,"dx":0.0183,"nx":112,"ny":82,"refTime":"2023-06-28T12:00:00:Z","depth":0,"parameterNumber":3,"parameterNumberName":"V-component_of_WINDS"},"data":[0.0,0.0,0.0,0.0,0.0,0.0,0.0,0.0,0.0,0.0,0.0,0.0,0.0,0.0,0.0,0.0,0.0,0.0,0.0,0.0,0.0,0.0,0.0,0.0,0.0,0.0,0.0,0.0,0.0,0.0,0.0,0.0,0.0,0.0,0.0,0.0,0.0,0.0,0.0,0.0,0.0,0.0,0.0,0.0,0.0,0.0,0.0,0.0,0.0,0.0,0.0,0.0,0.0,0.0,0.0,0.0,0.0,0.0,0.0,0.0,0.0,0.0,0.0,0.0,0.0,0.0,0.0,0.0,0.0,0.0,0.0,0.0,0.0,0.0,0.0,0.0,0.0,0.0,0.0,0.0,0.0,0.0,0.0,0.0,0.0,0.0,0.0,0.0,0.0,0.0,0.0,-1.7118,-1.8249,-1.8825,-1.8771,-1.8919,-1.8009,-1.57,0.0,0.0,0.0,0.0,0.0,0.0,0.0,0.0,0.0,0.0,0.0,0.0,0.0,0.0,0.0,0.0,0.0,0.0,0.0,0.0,0.0,0.0,0.0,0.0,0.0,0.0,0.0,0.0,0.0,0.0,0.0,0.0,0.0,0.0,0.0,0.0,0.0,0.0,0.0,0.0,0.0,0.0,0.0,0.0,0.0,0.0,0.0,0.0,0.0,0.0,0.0,0.0,0.0,0.0,0.0,0.0,0.0,0.0,0.0,0.0,0.0,0.0,0.0,0.0,0.0,0.0,0.0,0.0,0.0,0.0,0.0,0.0,0.0,0.0,0.0,0.0,0.0,0.0,0.0,0.0,0.0,0.0,0.0,0.0,0.0,0.0,0.0,0.0,0.0,0.0,0.0,0.0,0.0,0.0,0.0,0.0,0.0,0.0,0.0,0.0,0.0,0.0,0.0,0.0,-1.6489,-1.8334,-1.8797,-1.8893,-1.864,-1.8854,-1.7831,-1.512,0.0,0.0,0.0,0.0,0.0,0.0,0.0,0.0,0.0,0.0,0.0,0.0,0.0,0.0,0.0,0.0,0.0,0.0,0.0,0.0,0.0,0.0,0.0,0.0,0.0,0.0,0.0,0.0,0.0,0.0,0.0,0.0,0.0,0.0,0.0,0.0,0.0,0.0,0.0,0.0,0.0,0.0,0.0,0.0,0.0,0.0,0.0,0.0,0.0,0.0,0.0,0.0,0.0,0.0,0.0,0.0,0.0,0.0,0.0,0.0,0.0,0.0,0.0,0.0,0.0,0.0,0.0,0.0,0.0,0.0,0.0,0.0,0.0,0.0,0.0,0.0,0.0,0.0,0.0,0.0,0.0,0.0,0.0,0.0,0.0,0.0,0.0,0.0,0.0,0.0,0.0,0.0,0.0,0.0,0.0,0.0,0.0,0.0,0.0,0.0,0.0,0.0,0.0,-1.667,-1.8363,-1.8838,-1.8972,-1.8934,-1.8827,-1.8866,-1.7933,-1.5709,-1.6107,0.0,0.0,0.0,0.0,0.0,0.0,0.0,0.0,0.0,0.0,0.0,0.0,0.0,0.0,0.0,0.0,0.0,0.0,0.0,0.0,0.0,0.0,0.0,0.0,0.0,0.0,0.0,0.0,0.0,0.0,0.0,0.0,0.0,0.0,0.0,0.0,0.0,0.0,0.0,0.0,0.0,0.0,0.0,0.0,0.0,0.0,0.0,0.0,0.0,0.0,0.0,0.0,0.0,0.0,0.0,0.0,0.0,0.0,0.0,0.0,0.0,0.0,0.0,0.0,0.0,0.0,0.0,0.0,0.0,0.0,0.0,0.0,0.0,0.0,0.0,0.0,0.0,0.0,0.0,0.0,0.0,0.0,0.0,0.0,0.0,0.0,0.0,0.0,0.0,0.0,0.0,0.0,0.0,0.0,0.0,0.0,0.0,0.0,0.0,0.0,0.0,0.0,-1.8098,-1.9165,-1.9016,-1.8987,-1.8987,-1.8987,-1.8866,-1.8046,-1.6286,-1.638,0.0,0.0,0.0,0.0,0.0,0.0,0.0,0.0,0.0,0.0,0.0,0.0,0.0,0.0,0.0,0.0,0.0,0.0,0.0,0.0,0.0,0.0,0.0,0.0,0.0,0.0,0.0,0.0,0.0,0.0,0.0,0.0,0.0,0.0,0.0,0.0,0.0,0.0,0.0,0.0,0.0,0.0,0.0,0.0,0.0,0.0,0.0,0.0,0.0,0.0,0.0,0.0,0.0,0.0,0.0,0.0,0.0,0.0,0.0,0.0,0.0,0.0,0.0,0.0,0.0,0.0,0.0,0.0,0.0,0.0,0.0,0.0,0.0,0.0,0.0,0.0,0.0,0.0,0.0,0.0,0.0,0.0,0.0,0.0,0.0,0.0,0.0,0.0,0.0,0.0,0.0,0.0,0.0,0.0,0.0,0.0,0.0,0.0,0.0,0.0,0.0,0.0,-1.7286,-1.7955,-1.8917,-1.8987,-1.8987,-1.8987,-1.8866,-1.8021,-1.6232,-1.6175,0.0,0.0,0.0,0.0,0.0,0.0,0.0,0.0,0.0,0.0,0.0,0.0,0.0,0.0,0.0,0.0,0.0,0.0,0.0,0.0,0.0,0.0,0.0,0.0,0.0,0.0,0.0,0.0,0.0,0.0,0.0,0.0,0.0,0.0,0.0,0.0,0.0,0.0,0.0,0.0,0.0,0.0,0.0,0.0,0.0,0.0,0.0,0.0,0.0,0.0,0.0,0.0,0.0,0.0,0.0,0.0,0.0,0.0,0.0,0.0,0.0,0.0,0.0,0.0,0.0,0.0,0.0,0.0,0.0,0.0,0.0,0.0,0.0,0.0,0.0,0.0,0.0,0.0,0.0,0.0,0.0,0.0,0.0,0.0,0.0,0.0,0.0,0.0,0.0,0.0,0.0,0.0,0.0,0.0,0.0,0.0,0.0,0.0,0.0,0.0,0.0,0.0,-1.8577,-1.9409,0.0,-1.95,-1.933,-1.8919,-1.8759,-1.7997,-1.6383,0.0,0.0,0.0,0.0,0.0,0.0,0.0,0.0,0.0,0.0,0.0,0.0,0.0,0.0,0.0,0.0,0.0,0.0,0.0,0.0,0.0,0.0,0.0,0.0,0.0,0.0,0.0,0.0,0.0,0.0,0.0,0.0,0.0,0.0,0.0,0.0,0.0,0.0,0.0,0.0,0.0,0.0,0.0,0.0,0.0,0.0,0.0,0.0,0.0,0.0,0.0,0.0,0.0,0.0,0.0,0.0,0.0,0.0,0.0,0.0,0.0,0.0,0.0,0.0,0.0,0.0,0.0,0.0,0.0,0.0,0.0,0.0,0.0,0.0,0.0,0.0,0.0,0.0,0.0,0.0,0.0,0.0,0.0,0.0,0.0,0.0,0.0,0.0,0.0,0.0,0.0,0.0,0.0,0.0,0.0,0.0,0.0,0.0,0.0,0.0,0.0,0.0,-1.77,-1.9393,-2.0459,0.0,-2.0055,-1.9773,-1.9105,-1.896,-1.8212,-1.66,0.0,0.0,0.0,0.0,0.0,0.0,0.0,0.0,0.0,0.0,0.0,0.0,0.0,0.0,0.0,0.0,0.0,0.0,0.0,0.0,0.0,0.0,0.0,0.0,0.0,0.0,0.0,0.0,0.0,0.0,0.0,0.0,0.0,0.0,0.0,0.0,0.0,0.0,0.0,0.0,0.0,0.0,0.0,0.0,0.0,0.0,0.0,0.0,0.0,0.0,0.0,0.0,0.0,0.0,0.0,0.0,0.0,0.0,0.0,0.0,0.0,0.0,0.0,0.0,0.0,0.0,0.0,0.0,0.0,0.0,0.0,0.0,0.0,0.0,0.0,0.0,0.0,0.0,0.0,0.0,0.0,0.0,0.0,0.0,0.0,0.0,0.0,0.0,0.0,0.0,0.0,0.0,0.0,0.0,0.0,0.0,0.0,0.0,0.0,0.0,0.0,0.0,-1.772,-1.9416,-2.061,-2.061,-2.061,-2.0334,-1.9668,-1.9617,-1.8771,0.0,0.0,0.0,0.0,0.0,0.0,0.0,0.0,0.0,0.0,0.0,0.0,0.0,0.0,0.0,0.0,0.0,0.0,0.0,0.0,0.0,0.0,0.0,0.0,0.0,0.0,0.0,0.0,0.0,0.0,0.0,0.0,0.0,0.0,0.0,0.0,0.0,0.0,0.0,0.0,0.0,0.0,0.0,0.0,0.0,0.0,0.0,0.0,0.0,0.0,0.0,0.0,0.0,0.0,0.0,0.0,0.0,0.0,0.0,0.0,0.0,0.0,0.0,0.0,0.0,0.0,0.0,0.0,0.0,0.0,0.0,0.0,0.0,0.0,0.0,0.0,0.0,0.0,0.0,0.0,0.0,0.0,0.0,0.0,0.0,0.0,0.0,0.0,0.0,0.0,0.0,0.0,0.0,0.0,0.0,0.0,0.0,0.0,0.0,0.0,0.0,0.0,0.0,-1.8228,-1.9953,-2.1166,-2.1166,-2.1166,-2.0883,-2.0207,-2.0156,-1.9306,-1.7329,0.0,0.0,0.0,0.0,0.0,0.0,0.0,0.0,0.0,0.0,0.0,0.0,0.0,0.0,0.0,0.0,0.0,0.0,0.0,0.0,0.0,0.0,0.0,0.0,0.0,0.0,0.0,0.0,0.0,0.0,0.0,0.0,0.0,0.0,0.0,0.0,0.0,0.0,0.0,0.0,0.0,0.0,0.0,0.0,0.0,0.0,0.0,0.0,0.0,0.0,0.0,0.0,0.0,0.0,0.0,0.0,0.0,0.0,0.0,0.0,0.0,0.0,0.0,0.0,0.0,0.0,0.0,0.0,0.0,0.0,0.0,0.0,0.0,0.0,0.0,0.0,0.0,0.0,0.0,0.0,0.0,0.0,0.0,0.0,0.0,0.0,0.0,0.0,0.0,0.0,0.0,0.0,0.0,0.0,0.0,0.0,0.0,0.0,0.0,0.0,0.0,0.0,-1.8731,-2.0804,-2.221,-2.2013,-2.201,-2.1643,-2.0795,-2.0758,-2.0038,-1.8272,0.0,0.0,0.0,0.0,0.0,0.0,0.0,0.0,0.0,0.0,0.0,0.0,0.0,0.0,0.0,0.0,0.0,0.0,0.0,0.0,0.0,0.0,0.0,0.0,0.0,0.0,0.0,0.0,0.0,0.0,0.0,0.0,0.0,0.0,0.0,0.0,0.0,0.0,0.0,0.0,0.0,0.0,0.0,0.0,0.0,0.0,0.0,0.0,0.0,0.0,0.0,0.0,0.0,0.0,0.0,0.0,0.0,0.0,0.0,0.0,0.0,0.0,0.0,0.0,0.0,0.0,0.0,0.0,0.0,0.0,0.0,0.0,0.0,0.0,0.0,0.0,0.0,0.0,0.0,0.0,0.0,0.0,0.0,0.0,0.0,0.0,0.0,0.0,0.0,0.0,0.0,0.0,0.0,0.0,0.0,0.0,0.0,0.0,0.0,0.0,0.0,0.0,-1.919,-2.1766,-2.3476,-2.3034,-2.2928,-2.2482,-2.1502,-2.1445,-2.0857,-1.9436,0.0,0.0,0.0,0.0,0.0,0.0,0.0,0.0,0.0,0.0,0.0,0.0,0.0,0.0,0.0,0.0,0.0,0.0,0.0,0.0,0.0,0.0,0.0,0.0,0.0,0.0,0.0,0.0,0.0,0.0,0.0,0.0,0.0,0.0,0.0,0.0,0.0,0.0,0.0,0.0,0.0,0.0,0.0,0.0,0.0,0.0,0.0,0.0,0.0,0.0,0.0,0.0,0.0,0.0,0.0,0.0,0.0,0.0,0.0,0.0,-1.6243,0.0,0.0,0.0,0.0,0.0,0.0,0.0,0.0,0.0,0.0,0.0,0.0,0.0,0.0,0.0,0.0,0.0,0.0,0.0,0.0,0.0,0.0,0.0,0.0,0.0,0.0,0.0,0.0,0.0,0.0,0.0,0.0,0.0,0.0,0.0,0.0,0.0,0.0,0.0,0.0,0.0,-1.9342,-2.1931,-2.3731,-2.3617,-2.3049,-2.2787,-2.3079,-2.2297,-2.1191,-1.9779,-1.9792,0.0,0.0,0.0,0.0,0.0,0.0,0.0,0.0,0.0,0.0,0.0,0.0,0.0,0.0,0.0,0.0,0.0,0.0,0.0,0.0,0.0,0.0,0.0,0.0,0.0,0.0,0.0,0.0,0.0,0.0,0.0,0.0,0.0,0.0,0.0,0.0,0.0,0.0,0.0,0.0,0.0,0.0,0.0,0.0,0.0,0.0,0.0,0.0,0.0,0.0,0.0,0.0,0.0,0.0,0.0,0.0,0.0,0.0,0.0,0.0,-1.6033,0.0,0.0,0.0,0.0,0.0,0.0,0.0,0.0,0.0,0.0,0.0,0.0,0.0,0.0,0.0,0.0,0.0,0.0,0.0,0.0,0.0,0.0,0.0,0.0,0.0,0.0,0.0,0.0,0.0,0.0,0.0,0.0,0.0,0.0,0.0,0.0,0.0,0.0,0.0,0.0,-2.0113,-2.2723,-2.4524,-2.4297,-2.39,-2.3724,-2.3826,-2.2928,-2.2091,-2.142,-2.0541,0.0,0.0,0.0,0.0,0.0,0.0,0.0,0.0,0.0,0.0,0.0,0.0,0.0,0.0,0.0,0.0,0.0,0.0,0.0,0.0,0.0,0.0,0.0,0.0,0.0,0.0,0.0,0.0,0.0,0.0,0.0,0.0,0.0,0.0,0.0,0.0,0.0,0.0,0.0,0.0,0.0,0.0,0.0,0.0,0.0,0.0,0.0,0.0,0.0,0.0,0.0,0.0,0.0,-1.9452,-1.9897,-2.0111,-2.0111,-1.9922,-1.9526,-1.8795,-1.8304,-1.7885,-1.6908,0.0,0.0,0.0,0.0,0.0,0.0,0.0,0.0,0.0,0.0,0.0,0.0,0.0,0.0,0.0,0.0,0.0,0.0,0.0,0.0,0.0,0.0,0.0,0.0,-1.6147,-1.6088,-1.5933,0.0,0.0,0.0,0.0,0.0,0.0,0.0,0.0,0.0,0.0,0.0,-2.096,-2.3602,-2.5397,-2.5004,-2.4828,-2.4633,-2.4381,-2.3523,-2.3054,-2.3136,-2.1196,-2.0117,0.0,0.0,0.0,0.0,0.0,0.0,0.0,0.0,0.0,0.0,0.0,0.0,0.0,0.0,0.0,0.0,0.0,0.0,0.0,0.0,0.0,0.0,0.0,0.0,0.0,0.0,0.0,0.0,0.0,0.0,0.0,0.0,-2.0004,-2.0903,0.0,0.0,0.0,0.0,0.0,0.0,0.0,0.0,0.0,0.0,0.0,0.0,0.0,-1.9907,-1.9878,-2.0896,-2.1527,-2.1756,-2.2483,-2.3006,-2.3371,-2.3371,-2.3088,-2.2557,-2.1297,0.0,-1.908,-1.891,0.0,0.0,0.0,0.0,0.0,0.0,0.0,0.0,0.0,0.0,0.0,0.0,0.0,0.0,0.0,0.0,0.0,0.0,0.0,0.0,0.0,0.0,-1.9389,-1.8964,-1.8305,-1.8015,0.0,-1.7021,-1.5577,-1.6941,-1.7019,0.0,0.0,0.0,0.0,0.0,0.0,0.0,-2.124,-2.3831,-2.5646,-2.559,-2.4968,-2.4758,-2.5287,-2.4203,-2.3429,-2.3267,-2.2128,-2.0966,-1.9926,-2.0173,0.0,0.0,0.0,0.0,0.0,0.0,0.0,0.0,0.0,0.0,0.0,0.0,0.0,0.0,0.0,0.0,0.0,0.0,0.0,0.0,0.0,0.0,0.0,0.0,0.0,0.0,0.0,0.0,0.0,-1.9935,-2.0965,-2.1504,-2.2011,-2.1698,0.0,0.0,0.0,0.0,0.0,0.0,0.0,0.0,0.0,-2.0742,-2.1485,-2.204,-2.2438,-2.3623,-2.4108,-2.3933,-2.4677,-2.5007,-2.5002,-2.5002,-2.477,-2.4309,-2.371,-2.2992,-2.2081,-2.0368,-1.9538,-1.9281,0.0,0.0,0.0,0.0,-1.6579,-1.7168,-1.7092,-1.7772,-1.8612,-1.832,0.0,0.0,0.0,0.0,0.0,0.0,0.0,0.0,0.0,0.0,-1.9007,-1.9467,-1.9418,-1.9483,-2.0201,-1.904,-1.8034,0.0,-1.8569,-1.8334,-1.8271,0.0,0.0,0.0,0.0,-2.2194,-2.2243,-2.4037,-2.5314,-2.5314,-2.4991,-2.5048,-2.5661,-2.4663,-2.4003,-2.3973,-2.2824,-2.2007,-2.1683,-2.1438,-2.0468,0.0,0.0,0.0,0.0,0.0,0.0,0.0,0.0,0.0,0.0,0.0,0.0,0.0,0.0,0.0,0.0,0.0,0.0,0.0,0.0,0.0,0.0,0.0,0.0,0.0,0.0,0.0,0.0,-2.0562,-2.1386,-2.2181,-2.2596,-2.2346,0.0,0.0,0.0,0.0,0.0,0.0,-2.1139,-2.171,-2.219,-2.2585,-2.3506,-2.419,-2.4562,-2.5838,-2.6218,-2.5704,-2.6239,-2.6371,-2.6176,-2.6176,-2.597,-2.5679,-2.5679,-2.5376,-2.4675,-2.2038,-2.0829,-2.0581,-2.0236,-1.9619,-1.8855,-1.8216,-1.8269,-1.8654,-1.8511,-1.9185,-2.0124,-1.9807,-1.9249,-1.8578,-1.8097,0.0,0.0,0.0,0.0,-1.7363,-1.8051,-1.8431,-1.8876,-1.984,-2.0265,-2.0566,-2.0887,-2.0354,-1.9919,0.0,-2.0092,-1.9746,-1.9285,0.0,0.0,0.0,0.0,-2.3253,-2.3279,-2.4286,-2.5005,-2.5005,-2.4765,-2.4865,-2.5495,-2.4709,-2.4279,-2.4559,-2.3289,-2.2762,-2.3285,-2.2379,-2.1183,-1.9758,0.0,0.0,0.0,0.0,0.0,0.0,0.0,0.0,0.0,0.0,0.0,0.0,0.0,0.0,0.0,0.0,0.0,0.0,0.0,0.0,0.0,0.0,0.0,0.0,0.0,0.0,0.0,0.0,0.0,-2.3579,-2.3906,0.0,0.0,0.0,0.0,-2.0842,-2.2174,-2.2874,-2.235,-2.3902,-2.485,-2.5013,-2.6108,-2.6467,-2.5893,-2.7001,-2.7375,-2.7079,-2.6932,-2.6984,-2.7206,-2.7206,-2.7118,-2.6897,-2.6897,-2.6496,-2.5733,-2.4414,-2.401,-2.3987,-2.2338,-2.2135,-2.2546,-2.0295,-2.0624,-2.2056,-2.1261,-2.1796,-2.2666,-2.1901,-2.0407,-1.8621,-1.7151,-1.688,0.0,0.0,-1.8386,-1.9235,-1.9599,-2.0445,-2.1197,-2.1132,-2.1123,-2.1167,-2.119,-2.0446,-2.0085,0.0,-2.1264,-2.1287,-2.157,0.0,-2.2634,-2.1967,-2.2999,-2.39,-2.4042,-2.4585,-2.5005,-2.5005,-2.415,-2.3846,-2.4509,-2.4121,-2.4092,-2.4738,-2.3397,-2.2972,-2.3836,-2.254,-2.1848,-2.1941,-2.0363,0.0,0.0,0.0,0.0,0.0,0.0,0.0,0.0,0.0,0.0,0.0,0.0,0.0,0.0,0.0,0.0,0.0,0.0,0.0,0.0,0.0,0.0,0.0,0.0,0.0,0.0,0.0,0.0,-2.3475,-2.4036,0.0,-2.3928,-2.3564,-2.3139,-2.2649,-2.3489,-2.4223,-2.4573,-2.5261,-2.5975,-2.6702,-2.7208,-2.771,-2.8165,-2.8562,-2.857,-2.8175,-2.8087,-2.78,-2.7315,-2.7315,-2.7271,-2.7183,-2.7183,-2.7041,-2.6758,-2.6206,-2.5367,-2.4371,-2.3645,-2.3429,-2.3434,-2.26,-2.2826,-2.3503,-2.3177,-2.3335,-2.355,-2.3072,-2.2732,-2.2457,-2.1912,-2.1907,-2.2139,-2.2279,-2.2405,-2.2441,-2.2445,-2.2731,-2.2971,-2.2842,-2.2866,-2.2866,-2.261,-2.2582,-2.2502,-2.2024,-2.0986,-2.0389,-2.0933,-2.1443,-2.1737,-2.1706,-2.2469,-2.2994,-2.2821,-2.3776,-2.4244,-2.3649,-2.3795,-2.4022,-2.4176,-2.3946,-2.3872,-2.4031,-2.3326,-2.3253,-2.4,-2.2757,-2.2431,-2.3232,-2.1748,-1.98,0.0,0.0,0.0,0.0,0.0,0.0,0.0,0.0,0.0,0.0,0.0,0.0,0.0,0.0,0.0,0.0,0.0,0.0,0.0,0.0,0.0,0.0,0.0,0.0,0.0,0.0,-2.2135,-2.3655,-2.4092,-2.4355,-2.4558,-2.4377,-2.4253,-2.4365,-2.5265,-2.6017,-2.6528,-2.6906,-2.7485,-2.816,-2.846,-2.8856,-2.9432,-2.9738,-2.9691,-2.9231,-2.9231,-2.8881,-2.8287,-2.8287,-2.8112,-2.7818,-2.8145,-2.7916,-2.7337,-2.753,-2.6735,-2.5421,-2.5173,-2.4812,-2.4498,-2.4519,-2.4587,-2.4692,-2.4703,-2.4519,-2.4189,-2.3993,-2.4071,-2.4209,-2.4209,-2.431,-2.4448,-2.4522,-2.4331,-2.408,-2.3934,-2.3934,-2.3982,-2.3799,-2.3751,-2.374,-2.3641,-2.3392,-2.3159,-2.2933,-2.1765,-2.0864,-2.0831,-2.1114,-2.1332,-2.128,-2.159,-2.1799,-2.1597,-2.2303,-2.2655,-2.2105,-2.258,-2.3059,-2.3429,-2.2794,-2.2647,-2.3391,-2.2894,-2.293,-2.3738,-2.2664,-2.2284,-2.2804,-2.0761,-1.9129,-1.7942,0.0,0.0,0.0,0.0,0.0,0.0,0.0,0.0,0.0,0.0,0.0,0.0,0.0,0.0,0.0,0.0,0.0,0.0,0.0,0.0,0.0,0.0,0.0,-1.8752,-2.0074,-2.1947,-2.4241,-2.4274,-2.4896,-2.6913,-2.6365,-2.5898,-2.597,-2.7406,-2.8203,-2.8051,-2.8846,-2.9336,-2.9359,-2.9874,-2.9942,-2.9489,-3.0415,-3.067,-3.0231,-3.0231,-3.022,-3.0209,-3.0209,-2.9696,-2.8902,-2.9805,-2.915,-2.7479,-2.8464,-2.8289,-2.7358,-2.6881,-2.6393,-2.5934,-2.5934,-2.5808,-2.5665,-2.5801,-2.5395,-2.4746,-2.4746,-2.4221,-2.3594,-2.3594,-2.3594,-2.3631,-2.3915,-2.3988,-2.3988,-2.3988,-2.4134,-2.4219,-2.4025,-2.3793,-2.3708,-2.4171,-2.2773,-2.2003,-2.3838,-2.3712,-2.2895,-2.1574,-2.1601,-2.158,-2.0921,-2.0598,0.0,-2.0463,-2.0355,-2.0361,-2.0562,-2.0465,-2.0921,-2.2249,-2.0617,-2.0548,-2.2885,-2.208,-2.1995,-2.3055,-2.2207,-2.1419,-2.0791,-1.7612,-1.7088,-1.9378,0.0,0.0,0.0,0.0,0.0,0.0,0.0,0.0,0.0,0.0,0.0,0.0,0.0,0.0,0.0,0.0,0.0,0.0,0.0,0.0,0.0,0.0,-2.1075,-2.1018,-2.2143,-2.3511,-2.5052,-2.5735,-2.6457,-2.742,-2.7339,-2.7248,-2.7413,-2.7536,-2.7888,-2.8549,-2.8118,-2.8217,-2.8921,-2.9097,-2.9291,-2.9478,-3.0444,-3.085,-3.0712,-3.0712,-3.0537,-3.0209,-3.0209,-3.0067,-2.9827,-3.0089,-2.9915,-2.9434,-2.9707,-2.9652,-2.9223,-2.7737,-2.694,-2.6711,-2.6689,-2.6432,-2.6033,-2.5581,-2.5467,-2.5585,-2.5585,-2.5532,-2.5473,-2.5473,-2.5462,-2.548,-2.5561,-2.5561,-2.5561,-2.5561,-2.5732,-2.5944,-2.6064,-2.6024,-2.5864,-2.5502,-2.526,-2.4853,-2.4135,-2.3816,-2.3511,-2.2969,-2.2211,-2.1574,-2.1337,-2.1235,0.0,-1.9978,-2.0987,-2.1426,-2.0475,-2.0072,-2.027,-2.1235,-2.0468,-2.0418,-2.1584,-2.1825,-2.2286,-2.3062,-2.2382,-2.2146,-2.2504,-2.0665,-1.9476,0.0,0.0,0.0,0.0,0.0,0.0,0.0,0.0,0.0,0.0,0.0,0.0,0.0,0.0,0.0,0.0,0.0,0.0,0.0,0.0,0.0,0.0,-2.1732,-2.3161,-2.3781,-2.4489,-2.5223,-2.5989,-2.6831,-2.7459,-2.769,-2.8066,-2.833,-2.832,-2.8729,-2.9168,-2.9668,-2.9314,-2.9194,-2.9358,-2.9858,-3.0011,-2.9794,-3.0822,-3.1293,-3.1203,-3.1203,-3.1061,-3.081,-3.081,-3.0592,-3.0231,-3.0635,-3.0461,-2.9936,-3.0341,-3.0384,0.0,0.0,0.0,0.0,0.0,-2.6965,-2.6661,-2.6224,-2.6256,-2.6452,-2.6267,-2.6244,-2.6337,-2.6129,-2.5818,-2.5529,-2.5588,-2.53,-2.5079,-2.5488,-2.5802,-2.6087,-2.6513,-2.6479,-2.626,-2.6052,-2.5475,-2.4944,-2.4753,-2.4023,0.0,-2.4142,-2.2633,-2.1296,-2.0946,-2.0668,-2.0249,-1.949,-2.0335,-2.0664,-1.9781,-1.9754,-2.0063,-2.059,-1.9753,0.0,0.0,0.0,-2.1671,-2.2413,-2.1729,0.0,0.0,0.0,-1.9745,-1.9501,0.0,0.0,0.0,-1.7752,-1.7217,0.0,0.0,0.0,0.0,0.0,0.0,0.0,0.0,0.0,0.0,0.0,0.0,0.0,0.0,0.0,0.0,-2.336,-2.5284,-2.6671,-2.6922,-2.7086,-2.7269,-2.781,-2.8161,-2.8132,-2.8886,-2.9291,-2.9033,-3.0387,-3.1114,-3.0898,0.0,0.0,0.0,0.0,-3.1301,-3.022,-3.14,-3.1874,-3.1618,-3.1618,-3.1618,-3.1618,-3.1618,-3.1171,-3.0417,-3.1258,-3.0898,-2.9794,-3.0635,-3.0701,-3.0242,-2.9703,-2.927,-2.8724,-2.7707,-2.7347,-2.7381,-2.7272,0.0,0.0,-2.6791,-2.666,-2.6584,-2.619,-2.5469,-2.4803,-2.5021,-2.4387,-2.383,-2.4741,-2.5087,-2.5344,-2.603,-2.5884,-2.5664,-2.6019,-2.4576,-2.3711,-2.5395,-2.4281,-2.3492,-2.4903,-2.3079,-2.1208,-2.0558,-1.9938,-1.9513,-1.9436,-1.9458,-1.9362,-1.9091,0.0,0.0,-2.0325,-1.892,-1.884,-2.072,-2.0611,-2.0809,-2.1521,-2.1012,-2.0305,-1.9406,-1.8946,-1.9406,-2.0849,-2.0205,-2.0733,-2.2252,-1.8407,-1.779,0.0,0.0,0.0,0.0,0.0,0.0,0.0,0.0,0.0,0.0,0.0,0.0,0.0,0.0,0.0,-2.4116,-2.5699,-2.714,-2.8235,-2.9019,-2.9522,-2.9639,-2.9231,-2.9484,-3.0801,-3.0578,-3.037,-3.051,-3.0444,-3.0565,-3.0876,-3.0264,-3.0002,-3.0209,-3.0629,-3.0629,-3.0209,-3.14,-3.1874,-3.1618,0.0,0.0,-3.1618,-3.1618,-3.152,-3.1356,-3.1542,-3.1465,-3.1225,-3.14,-3.1203,-3.0712,-2.9986,-2.9472,-2.8953,-2.798,-2.7724,-2.774,-2.6988,-2.6955,-2.7304,-2.7206,-2.7184,-2.7162,-2.7075,-2.678,0.0,-2.6541,-2.6141,-2.5761,-2.5946,-2.5875,-2.5832,-2.6155,-2.6146,-2.5979,-2.5706,-2.5311,-2.4954,-2.4776,-2.445,-2.4314,-2.4573,-2.3919,-2.3193,-2.2683,-2.2488,-2.2125,-2.1397,-2.1624,-2.1555,-2.0751,-1.9495,-1.922,-2.0511,-1.9149,-1.8871,-2.0331,-2.1172,-2.1668,-2.1819,-2.2824,-2.3275,-2.3091,-2.3086,-2.3052,-2.3004,-2.2538,-2.2422,-2.2609,-2.1968,-2.1795,0.0,0.0,0.0,0.0,0.0,0.0,0.0,0.0,0.0,0.0,0.0,-2.0558,0.0,0.0,-2.3673,-2.559,-2.6693,-2.7818,-2.9281,-2.9904,-3.0219,-3.0267,-3.0245,-3.0433,-3.0909,-3.1198,-3.1238,-3.0926,-3.1158,-3.1318,-3.1247,-3.081,-3.0499,-3.0405,-3.1014,-3.1025,-3.0405,-3.1439,-3.1874,-3.1618,-3.1618,-3.1618,-3.1618,-3.1721,-3.1823,-3.1823,-3.1975,-3.2037,-3.2037,-3.2037,-3.173,-3.1236,-3.0985,-3.0324,-2.937,-2.8934,-2.8657,-2.847,-2.8004,-2.7956,-2.7992,-2.7752,-2.7631,-2.7632,-2.7381,-2.6889,-2.6433,-2.6433,-2.5934,-2.55,-2.5977,-2.5997,-2.6058,-2.6624,-2.6473,-2.6139,-2.5776,-2.5232,-2.4766,-2.4541,-2.4321,-2.4281,-2.4466,-2.4311,-2.4136,-2.3898,-2.3681,-2.336,-2.2904,-2.2842,-2.2573,-2.188,-2.0783,-2.0311,-2.0829,-1.9828,-1.9468,-2.0247,-2.0488,-2.1144,-2.2286,-2.2677,-2.3233,-2.4083,-2.4157,-2.4041,-2.376,-2.3463,-2.3251,-2.3151,-2.3212,-2.2932,0.0,0.0,0.0,0.0,0.0,0.0,0.0,0.0,-2.0819,-2.1686,-2.2241,-2.282,-2.3679,-2.4293,-2.521,-2.6868,-2.7643,-2.856,-3.0122,-3.0428,-3.0482,-3.0482,-3.0993,-3.1208,-3.0712,-3.1625,-3.1948,-3.124,-3.2018,-3.2285,-3.1863,-3.1823,-3.1574,-3.1042,-3.1761,-3.175,-3.0876,-3.1628,-3.1874,-3.1618,-3.1618,-3.1618,-3.1618,-3.1874,-3.2015,-3.2015,-3.2291,-3.2392,-3.2392,-3.2392,-3.2139,-3.1721,-3.1924,-3.1249,-3.0137,-3.005,-2.9715,-2.9305,-2.9305,-2.9171,-2.888,-2.844,-2.8209,-2.8056,-2.7708,-2.7064,-2.6452,-2.6452,-2.5841,-2.5349,-2.6125,-2.6245,-2.6365,-2.713,-2.69,-2.6411,-2.6182,-2.5306,-2.4619,-2.4688,-2.4397,-2.4157,-2.4435,-2.4497,-2.4497,-2.4497,-2.4229,-2.4002,-2.4002,-2.3681,-2.3277,-2.2811,-2.2356,-2.1818,-2.1176,-2.0511,-2.0164,-2.0183,-1.9768,-2.0409,-2.2488,-2.2101,-2.2555,-2.4083,-2.4083,-2.4037,-2.3891,-2.373,-2.3599,-2.3509,-2.339,-2.2961,-1.8005,-1.7094,-1.7022,-1.8458,-2.0114,-2.1391,0.0,0.0,-2.5214,-2.4448,-2.5413,-2.6599,-2.7283,-2.7867,-2.8453,-2.9052,-2.9915,-3.057,-3.0788,-3.1192,-3.1415,-3.1415,-3.159,-3.1811,-3.2191,-3.2605,-3.2689,-3.2364,-3.2409,-3.2543,-3.2679,-3.2649,-3.2657,-3.2546,-3.2646,-3.2436,-3.186,-3.196,-3.1874,-3.1618,-3.1618,-3.1618,-3.1618,-3.1874,-3.2015,-3.2015,-3.2026,-3.2077,-3.2077,-3.2077,-3.2015,-3.1964,-3.1964,-3.1757,-3.136,-3.0924,-3.0477,-3.0084,-3.0084,-2.9805,-2.939,-2.9336,-2.903,-2.8705,-2.8661,-2.8563,-2.8486,-2.8486,-2.8058,-2.762,-2.7729,-2.7435,-2.7173,-2.7282,-2.7227,-2.7151,-2.6919,-2.6443,-2.5958,-2.5567,-2.5102,-2.4723,-2.4529,-2.4497,-2.4497,-2.4497,-2.4456,-2.4425,-2.4425,-2.4373,-2.4219,-2.3774,-2.3308,-2.2511,-2.1217,-2.0818,-2.0397,-1.9878,-2.0062,-2.0655,-2.171,-2.2335,-2.3118,-2.4083,-2.4083,-2.4037,-2.3891,-2.3891,-2.3611,-2.3168,-2.3138,-2.3035,-1.9742,-1.9801,0.0,0.0,-2.354,-2.4573,-2.5477,-2.6514,-2.7218,-2.708,-2.7775,-2.8533,-2.8835,-2.8585,-2.8768,0.0,-3.0092,-3.0251,-3.116,-3.1589,-3.1772,-3.1629,-3.1263,-3.1074,-3.1136,-3.2379,-3.263,-3.1488,-3.224,-3.2729,-3.2819,-3.279,-3.2894,-3.3038,-3.2737,-3.2494,-3.2291,-3.1924,-3.1721,-3.1618,-3.1618,-3.1618,-3.1618,-3.1874,-3.2179,-3.2505,-3.2505,-3.2454,-3.228,-3.2454,-3.2443,-3.2291,-3.2291,-3.224,-3.2066,-3.1349,-3.0777,-3.0366,-3.0366,-3.0161,-2.9904,-2.9904,-2.9576,-2.923,-2.923,-2.9033,-2.8803,-2.8803,-2.8661,-2.8462,-2.8462,-2.8298,-2.8145,-2.8145,-2.7938,-2.7651,-2.7461,-2.6832,-2.6217,-2.5826,-2.5455,-2.5052,-2.4786,-2.4743,-2.4658,-2.454,-2.4497,-2.4497,-2.4497,-2.4497,-2.4332,-2.3929,-2.3701,-2.3058,-2.1782,-2.148,-2.0948,-2.0027,-2.0003,-2.0248,-2.0826,-2.2001,-2.2849,-2.3339,-2.4175,-2.4393,-2.3891,-2.3789,-2.3569,-2.3271,-2.3138,-2.3042,-2.1129,0.0,0.0,-2.5127,-2.6068,-2.6821,-2.8348,-2.854,-2.854,-2.8935,-2.9274,-2.9562,-2.9784,-2.9057,-2.8932,-3.0461,-3.02,-3.0197,-3.1337,-3.1796,-3.1825,-3.1359,-3.0921,-3.0281,-2.9467,-3.1458,-3.2366,-3.1423,-3.2372,-3.3062,-3.3112,-3.3064,-3.3105,-3.3291,-3.2763,-3.2443,-3.2342,-3.1885,-3.1618,-3.1618,-3.13,-3.1146,-3.1146,-3.1494,-3.2128,-3.2891,-3.2891,-3.2779,-3.2617,-3.283,-3.2779,-3.2606,-3.2555,-3.2493,-3.2392,-3.1578,-3.1105,-3.0803,-3.0803,-3.0639,-3.0406,-3.0406,-3.0078,-2.9685,-2.9685,-2.9394,-2.9,-2.9,-2.8902,-2.8803,-2.8803,-2.8803,-2.8803,-2.8803,-2.8484,-2.8187,-2.8004,-2.7354,-2.6681,-2.6428,-2.5947,-2.5498,-2.5231,-2.503,-2.4818,-2.4625,-2.454,-2.4497,-2.4497,-2.4497,-2.4373,-2.4095,-2.4033,-2.3597,-2.2694,-2.2293,-2.1578,-2.046,-2.0122,-2.0075,-2.0291,-2.1316,-2.2262,-2.3027,-2.4109,-2.4512,-2.4213,-2.4008,-2.3722,-2.3403,-2.3198,-2.3017,0.0,0.0,-2.2378,-2.5009,-2.6331,-2.7284,-2.8428,-2.9091,-2.9495,-2.9716,-2.96,-2.9741,-3.0415,-2.9954,-2.9609,-3.0144,-3.0789,-3.1224,-3.1291,-3.1739,-3.1672,-3.0743,-3.061,-2.9741,0.0,-2.9866,-3.1937,-3.3116,-3.3269,-3.3464,-3.3866,-3.3659,-3.3562,-3.3486,-3.3044,-3.2546,-3.2026,-3.1721,-3.1618,-3.1578,-3.0453,-2.9974,-2.9974,-3.0514,-3.1524,-3.2891,-3.2891,-3.2891,-3.2891,-3.2891,-3.2891,-3.288,-3.2606,-3.2493,-3.2443,-3.1834,-3.1556,-3.1556,-3.1556,-3.128,-3.0876,-3.0876,-3.0559,-3.0188,-3.0188,-2.9849,-2.9467,-2.9467,-2.9164,-2.8803,-2.8803,-2.8803,-2.8803,-2.8803,-2.8792,-2.8781,-2.8781,-2.8342,-2.7902,-2.7675,-2.6885,-2.6173,-2.5935,-2.5337,-2.4903,-2.4903,-2.4668,-2.4497,-2.4497,-2.4497,-2.4497,-2.4476,-2.4304,-2.4106,-2.3867,-2.3188,-2.2258,-2.1135,-2.0648,-2.0368,-2.0302,-2.0344,-2.1394,-2.3642,-2.3729,-2.4146,-2.4979,-2.4758,-2.4244,-2.3403,-2.3198,-2.2969,0.0,0.0,-2.3768,-2.6513,-2.7967,-2.879,-2.9385,-2.9761,-2.9975,-3.0068,-2.9251,-2.8634,-2.8993,-2.8066,-2.7744,-2.916,-2.9124,-2.9523,-3.1267,-3.0734,-3.0477,-3.1429,-3.0255,0.0,0.0,0.0,0.0,-3.0871,-3.2377,-3.3417,-3.3666,-3.2729,-3.2603,-3.3544,-3.2164,-3.1693,-3.2342,-3.1823,-3.1197,-3.0453,-2.9335,-2.8754,-2.8807,-2.9157,-2.9567,-3.0057,-3.0057,-3.0577,-3.1421,-3.1421,-3.1902,-3.2555,-3.1626,-3.1206,-3.0908,-2.9755,-2.9335,-2.9555,-3.1094,-3.152,-3.1378,-3.1378,-3.1061,-3.0657,-3.0657,-3.0341,-2.9904,-2.9576,-2.9416,-2.9208,-2.8891,-2.8803,-2.8803,-2.8803,-2.8803,-2.8803,-2.8803,-2.8672,-2.8429,-2.7965,-2.765,-2.7148,-2.6292,-2.5969,-2.5626,-2.4998,-2.4658,-2.4497,-2.4497,-2.4497,-2.4497,-2.4497,-2.4448,-2.4325,-2.4106,-2.3752,-2.3179,-2.2279,-2.1385,-2.0704,-2.0392,-2.0707,-2.107,-2.1438,-2.2428,-2.3074,-2.3407,-2.3255,-2.324,-2.3403,-2.3198,-2.2987,0.0,-2.4055,-2.5341,-2.765,-2.8959,-2.9657,-2.9748,-2.9939,-3.012,-3.0204,-2.9297,-2.8499,-2.8303,-2.7272,-2.685,-2.811,-2.8121,-2.8763,-3.0927,-3.0645,-3.0511,-3.1257,-2.977,0.0,0.0,0.0,0.0,-2.9033,-3.0471,-3.1431,-3.1658,-3.0722,-3.0682,-3.1722,-3.0464,-3.0078,-3.0764,-3.0406,-2.9704,-2.8701,-2.7956,-2.759,-2.759,-2.7883,-2.7992,-2.8048,-2.8515,-2.902,-2.9492,-2.9921,-3.0555,-3.1154,-3.0296,-2.9828,-2.9577,-2.8595,-2.8223,-2.8382,-2.9869,-3.0671,-3.0991,-3.0991,-3.1044,-3.1149,-3.1149,-3.0832,-3.0286,-2.9569,-2.9187,-2.8759,-2.8058,-2.7762,-2.7778,-2.8164,-2.8211,-2.8305,-2.871,-2.8803,-2.8705,-2.8353,-2.8111,-2.776,-2.7018,-2.6595,-2.598,-2.5019,-2.4743,-2.4625,-2.4497,-2.4497,-2.4497,-2.4497,-2.4497,-2.4469,-2.4304,-2.42,-2.3764,-2.3,-2.2268,-2.1424,-2.0426,-2.0725,-2.0805,-2.0642,-2.1567,-2.2215,-2.2565,-2.2713,-2.2887,-2.3047,-2.318,-2.3108,-2.465,-2.5936,-2.6937,-2.8344,-2.9342,-2.9851,-2.9542,-2.9691,-2.9896,-3.0014,-2.9586,-2.8925,0.0,0.0,-2.6757,-2.6986,-2.7711,-2.8774,-3.0285,-3.1136,-3.1217,0.0,0.0,0.0,0.0,0.0,0.0,-2.7663,0.0,-2.8026,-2.8211,-2.8015,-2.8023,-2.8416,-2.8179,-2.791,-2.7764,-2.766,-2.7242,-2.6527,-2.6418,-2.6418,-2.6418,-2.6662,-2.6798,-2.6874,-2.8219,-2.8204,-2.736,-2.8456,-2.8916,-2.8968,-2.8661,-2.8512,-2.8459,-2.8169,-2.8009,-2.8009,-2.8009,-2.8807,-2.9817,-2.9817,-3.0557,-3.1414,-3.1414,-3.1139,-3.0507,-2.9443,-2.8507,-2.7641,-2.6497,-2.5937,-2.5964,-2.6904,-2.7142,-2.7474,-2.8502,-2.8746,-2.8803,-2.8803,-2.8375,-2.7991,-2.7991,-2.7029,-2.5991,-2.5094,-2.4924,-2.4775,-2.454,-2.4497,-2.4497,-2.4497,-2.4497,-2.4497,-2.4497,-2.4497,-2.4135,-2.3308,-2.3215,-2.2397,-2.0602,-2.0436,-2.0635,-2.1163,-2.1108,-2.1539,-2.2398,-2.303,-2.3008,-2.2372,-2.3017,-2.3241,-2.4609,-2.6315,-2.7977,-2.8626,-2.9451,-2.9987,-2.9618,-2.9405,-2.9036,-2.8171,-2.6511,-2.4894,0.0,0.0,0.0,-2.5414,-2.5074,0.0,-2.862,-2.7413,0.0,0.0,0.0,-2.6792,-2.6569,-2.6602,0.0,0.0,-2.724,-2.8739,-2.8798,-2.7761,-2.7641,-2.881,-2.7573,-2.7365,-2.8354,-2.7311,-2.6687,-2.6472,-2.5624,-2.5247,-2.5247,-2.5293,-2.5346,-2.5335,-2.5692,-2.628,-2.6997,-2.7321,-2.7927,-2.8618,-2.7659,-2.7194,-2.6943,-2.599,-2.567,-2.567,-2.567,-2.6952,-2.8648,-2.8648,-2.8807,-2.9071,-2.9071,-2.8991,-2.8725,-2.8135,-2.7774,-2.7406,-2.6455,-2.6112,-2.6045,-2.6062,-2.6655,-2.7284,-2.7531,-2.8222,-2.8803,-2.8803,-2.8375,-2.7991,-2.7991,-2.7029,-2.6239,-2.598,-2.5349,-2.4775,-2.454,-2.4497,-2.4497,-2.4497,-2.4497,-2.4497,-2.4497,-2.4497,-2.4404,-2.4166,-2.3567,-2.2977,-2.2501,-2.1155,-2.0475,-2.0597,-1.9957,-2.0051,-2.0867,-2.0942,-2.1206,-2.1671,-2.2187,-2.2402,-2.6232,-2.7469,-2.8556,-2.8738,-2.9266,-2.9393,-2.8255,-2.7977,-2.7463,-2.5751,-2.4544,0.0,0.0,0.0,0.0,0.0,0.0,0.0,-2.6597,-2.5898,-2.5506,0.0,-2.5839,0.0,-2.5719,-2.5258,-2.4552,0.0,-2.5433,-2.6629,-2.6471,-2.5701,-2.5675,-2.6456,-2.5585,-2.554,-2.6493,-2.6,-2.5725,-2.5725,-2.509,-2.4821,-2.4821,-2.4821,-2.4547,-2.4102,0.0,-2.495,-2.5289,-2.5766,-2.6354,-2.6879,-2.6245,-2.5881,-2.567,-2.5034,-2.4821,-2.4821,-2.4821,-2.5624,-2.6789,-2.7267,-2.7795,-2.8223,-2.8223,-2.8223,-2.8014,-2.7304,-2.6945,-2.6584,-2.5604,-2.5071,-2.49,-2.5206,-2.5537,-2.6069,-2.6989,-2.7673,-2.8222,-2.8699,-2.8538,-2.8287,-2.8034,-2.7465,-2.6888,-2.639,-2.5829,-2.5359,-2.486,-2.4625,-2.4497,-2.4497,-2.4497,-2.4497,-2.4497,-2.4497,-2.4497,-2.4497,-2.4022,-2.3608,-2.3205,-2.219,-2.1352,-2.0705,-2.0027,-1.98,-2.0081,-2.0162,-2.042,-2.0837,-2.1491,-2.1741,-2.8177,-2.8752,-2.8927,-2.8814,-2.8998,-2.8695,-2.6873,-2.6388,-2.567,-2.3455,0.0,0.0,-2.1154,0.0,-2.1076,-2.2039,0.0,-2.266,-2.4174,-2.5049,-2.5468,-2.5201,-2.4392,-2.4012,-2.448,-2.3535,-2.2911,-2.307,-2.3373,-2.3499,-2.3248,-2.3248,-2.3336,-2.3362,-2.3371,-2.3535,-2.3825,-2.4374,-2.471,-2.471,-2.471,-2.4765,-2.4765,-2.4765,-2.4282,-2.34,-2.4393,-2.4256,-2.3417,-2.441,-2.4821,-2.4821,-2.4821,-2.4821,-2.4821,-2.4821,-2.4821,-2.4821,-2.4821,-2.4821,-2.4979,-2.5935,-2.6952,-2.7751,-2.7751,-2.7751,-2.7536,-2.6527,-2.6063,-2.5567,-2.4509,-2.3751,-2.3436,-2.429,-2.4345,-2.4646,-2.6426,-2.6894,-2.7284,-2.8222,-2.8409,-2.8233,-2.7777,-2.7659,-2.7269,-2.6366,-2.614,-2.5883,-2.5349,-2.4828,-2.454,-2.454,-2.454,-2.4497,-2.4497,-2.4497,-2.4497,-2.4497,-2.4497,-2.4146,-2.3401,-2.3246,-2.2625,-2.1414,-2.0876,-2.0389,-1.9969,-2.0189,-2.0238,-2.0063,-2.0903,-2.1167,-2.7547,-2.8626,-2.9565,-2.8948,-2.911,-2.9204,-2.841,-2.6724,0.0,0.0,0.0,-1.9714,-1.8186,-1.8564,0.0,-2.0501,0.0,0.0,0.0,0.0,-2.1912,0.0,0.0,0.0,0.0,0.0,0.0,0.0,0.0,-2.3222,-2.3461,-2.3675,-2.3756,-2.3822,-2.3822,-2.3822,-2.3877,-2.3999,-2.4089,-2.4089,-2.432,-2.4487,-2.4487,-2.471,-2.471,-2.4538,-2.4735,0.0,-2.4538,-2.4735,-2.4821,-2.4821,-2.4821,-2.4821,-2.4821,-2.4821,-2.4821,-2.4821,-2.4821,-2.4821,-2.4821,-2.5034,-2.5247,-2.5404,-2.5404,-2.5404,-2.5357,-2.5136,-2.5038,-2.4853,-2.4316,-2.4136,-2.3879,-2.3462,-2.4014,-2.461,-2.4655,-2.5353,-2.6031,-2.6186,-2.6234,-2.6204,-2.6134,-2.572,-2.5554,-2.5823,-2.5385,-2.5124,-2.5486,-2.5126,-2.4818,-2.4818,-2.4615,-2.4497,-2.4497,-2.4497,-2.4497,-2.4497,-2.4497,-2.4425,-2.427,-2.3588,-2.308,-2.2832,-2.1994,-2.1342,-2.0876,-2.0542,-2.0195,-1.9863,-2.0358,-2.0549,-2.7271,-2.8245,-2.925,-2.8905,-2.8839,-2.8394,-2.6304,0.0,0.0,0.0,0.0,-1.7651,-1.6429,0.0,0.0,0.0,0.0,0.0,0.0,0.0,0.0,0.0,0.0,0.0,0.0,0.0,0.0,0.0,0.0,-2.2299,-2.3456,-2.3472,-2.3408,-2.3408,-2.3585,-2.3697,-2.3697,-2.3809,-2.3921,-2.3921,-2.4089,-2.4144,-2.4144,-2.4256,-2.4312,-2.4368,-2.4543,-2.4259,-2.3875,-2.4382,-2.4251,-2.3829,-2.4216,-2.4312,-2.4368,-2.4543,-2.4599,-2.4599,-2.4765,-2.4821,-2.4821,-2.4821,-2.4821,-2.4821,-2.4821,-2.4821,-2.4821,-2.4821,-2.4821,-2.4778,-2.4581,-2.4384,-2.3985,-2.3168,-2.3486,-2.3985,-2.4084,-2.4924,-2.5703,-2.5703,-2.5703,-2.5703,-2.5703,-2.5478,-2.549,-2.6095,-2.5462,-2.519,-2.6033,-2.5285,-2.4743,-2.4903,-2.4658,-2.4497,-2.4497,-2.4497,-2.4497,-2.4497,-2.4497,-2.4497,-2.4497,-2.4084,-2.3784,-2.3557,-2.2873,-2.2294,-2.1828,-2.1373,-2.0943,-2.063,-2.0461,-2.0348,-2.7215,-2.7893,-2.8611,-2.8514,-2.8244,-2.7141,-2.3811,-2.2622,0.0,0.0,-1.6406,-1.6146,-1.5366,0.0,0.0,0.0,0.0,0.0,0.0,0.0,0.0,0.0,0.0,0.0,0.0,0.0,0.0,0.0,0.0,0.0,-2.3223,-2.3078,-2.2958,-2.3014,-2.3247,-2.3416,-2.3416,-2.3585,-2.3697,-2.3697,-2.3809,-2.3809,-2.3809,-2.3857,-2.3921,-2.3913,-2.4209,-2.3783,-2.2988,-2.39,-2.3766,-2.2951,-2.3632,-2.3921,-2.3921,-2.4209,-2.432,-2.4432,-2.4654,-2.4765,-2.4765,-2.471,-2.4765,-2.4821,-2.4821,-2.4821,-2.4765,-2.4654,-2.4599,-2.4599,-2.4432,-2.4196,-2.375,-2.2922,-2.2756,-2.2944,-2.3452,-2.4236,-2.4865,-2.5022,-2.4914,-2.4865,-2.4865,-2.4767,-2.4918,-2.5701,-2.5113,-2.5038,-2.6281,-2.5337,-2.47,-2.5041,-2.4711,-2.4497,-2.4497,-2.4497,-2.4497,-2.4497,-2.4497,-2.4497,-2.4497,-2.4497,-2.4332,-2.4022,-2.367,-2.3246,-2.2791,-2.2325,-2.1935,-2.1617,-2.1048,-2.0651,-2.7278,-2.7843,-2.7977,-2.7597,-2.7123,-2.6017,-2.3268,0.0,0.0,0.0,-1.5899,-1.5051,-1.4966,-1.4863,-1.5124,0.0,0.0,0.0,0.0,0.0,0.0,0.0,0.0,0.0,0.0,0.0,0.0,0.0,0.0,0.0,-2.2683,-2.2626,-2.274,-2.3014,-2.3014,-2.307,-2.307,-2.307,-2.307,-2.307,-2.3416,-2.3528,-2.3528,-2.3809,-2.3921,-2.3921,-2.3921,-2.3555,0.0,-2.3671,-2.3538,-2.2951,-2.3632,-2.3921,-2.3921,-2.3921,-2.4144,-2.4376,-2.4432,-2.4599,-2.4765,-2.4543,-2.4599,-2.4821,-2.4821,-2.4821,-2.471,-2.4144,-2.3968,-2.3865,-2.3296,-2.3159,-2.2967,-2.2225,-2.1582,-2.1267,-2.1818,-2.2021,-2.2224,-2.2787,-2.2426,-2.2072,-2.2072,-2.1666,-2.1879,-2.3441,-2.3277,-2.3648,-2.5628,-2.5273,-2.5041,-2.5475,-2.4924,-2.4497,-2.4497,-2.4497,-2.4497,-2.4497,-2.4497,-2.4497,-2.4497,-2.4497,-2.4476,-2.4435,-2.4394,-2.4198,-2.3753,-2.3287,-2.2822,-2.2395,-2.2081,-2.1797,-2.5124,-2.574,-2.6301,-2.6107,-2.542,-2.3968,-2.083,0.0,0.0,-1.569,-1.4852,-1.4584,-1.429,-1.3878,-1.3964,0.0,0.0,0.0,0.0,0.0,0.0,0.0,0.0,0.0,0.0,0.0,0.0,0.0,0.0,0.0,-2.2044,-2.257,-2.2909,-2.3014,-2.3014,-2.3014,-2.3014,-2.3014,-2.3014,-2.3014,-2.3135,-2.3191,-2.3191,-2.3304,-2.3352,-2.3352,-2.3585,-2.2925,0.0,-2.3113,-2.2901,-2.1816,-2.2908,-2.3352,-2.3352,-2.3585,-2.3753,-2.3873,-2.4033,-2.4144,-2.4256,-2.4144,-2.4144,-2.4256,-2.4256,-2.4144,-2.3977,-2.3753,-2.3528,-2.3296,-2.307,-2.2418,-2.1869,-2.1975,-2.1207,-2.055,-2.1121,-2.1224,-2.1275,-2.153,-2.1377,-2.1224,-2.1224,-2.1019,-2.1363,-2.2685,-2.2775,-2.323,-2.4706,-2.4607,-2.4525,-2.4742,-2.4754,-2.4743,-2.4743,-2.4583,-2.4497,-2.4497,-2.4378,-2.4335,-2.4335,-2.4153,-2.4143,-2.4335,-2.4335,-2.4286,-2.4281,-2.4053,-2.3805,-2.3522,-2.3012,-2.2621,-2.258,-2.3277,-2.3945,-2.3875,-2.2983,-2.1349,0.0,0.0,-1.6769,-1.4044,-1.3774,-1.3927,-1.3692,-1.3139,-1.3105,-1.4335,0.0,0.0,0.0,0.0,0.0,0.0,0.0,0.0,0.0,0.0,0.0,0.0,0.0,0.0,-2.1752,-2.2505,-2.2901,-2.2901,-2.2901,-2.2901,-2.3014,-2.3014,-2.3014,-2.3014,-2.3014,-2.2903,-2.2712,-2.2919,-2.2903,-2.2712,-2.3151,-2.2557,0.0,-2.275,-2.2533,-2.1346,-2.2545,-2.3014,-2.3014,-2.3247,-2.3416,-2.3537,-2.3697,-2.3809,-2.3865,-2.3809,-2.3809,-2.3753,-2.3641,-2.3585,-2.3472,-2.3304,-2.2853,-2.2456,-2.2456,-2.166,-2.0938,-2.1364,-2.0635,-1.9983,-2.0557,-2.066,-2.0712,-2.0865,-2.0763,-2.066,-2.066,-2.0506,-2.0806,-2.1887,-2.1977,-2.2364,-2.3514,-2.3686,-2.3782,-2.3871,-2.4348,-2.4647,-2.4562,-2.4401,-2.4282,-2.4282,-2.4153,-2.4067,-2.4067,-2.3884,-2.3894,-2.4067,-2.4067,-2.4153,-2.4282,-2.4368,-2.4342,-2.419,-2.3784,-2.3421,-1.9952,-2.0684,-2.1015,-2.0805,-1.9761,-1.8084,0.0,0.0,-1.3755,-1.2742,-1.2689,-1.2924,-1.3235,-1.2872,-1.2915,-1.4208,-1.3839,0.0,0.0,0.0,0.0,0.0,0.0,0.0,0.0,0.0,0.0,0.0,0.0,0.0,-2.2116,-2.24,-2.257,-2.257,-2.257,-2.274,-2.3014,-2.3014,-2.3014,-2.3014,-2.3014,-2.2649,-2.2043,-2.2696,-2.2633,-2.2059,-2.2712,-2.2609,0.0,-2.272,-2.2593,-2.2075,-2.2736,-2.3014,-2.3014,-2.3014,-2.3247,-2.3472,-2.3472,-2.3697,-2.3865,-2.3585,-2.3472,-2.3416,-2.3135,-2.3247,-2.3368,-2.2796,-2.1945,-2.1211,-2.1211,-2.0728,-2.0237,-2.0237,-1.974,-1.948,-1.9983,-2.0138,-2.0292,-2.0814,-2.0447,-2.0138,-2.0138,-1.968,-1.968,-2.0783,-2.0533,-2.0671,-2.1969,-2.2575,-2.2938,-2.3105,-2.3767,-2.411,-2.3841,-2.3797,-2.3797,-2.3797,-2.3797,-2.3797,-2.3797,-2.3797,-2.3797,-2.3797,-2.3797,-2.3797,-2.3797,-2.4067,-2.4196,-2.4196,-2.4401,-2.4291,-1.7484,-1.7823,-1.7921,-1.7563,-1.6752,-1.5504,-1.3523,0.0,-1.3144,-1.2217,-1.2324,-1.2701,-1.3045,-1.2959,-1.3171,-1.424,-1.4209,0.0,0.0,0.0,0.0,0.0,0.0,0.0,0.0,0.0,0.0,0.0,0.0,0.0,-2.2085,-2.223,-2.2286,-2.2286,-2.2456,-2.2626,-2.274,-2.2909,-2.3014,-2.3014,-2.3014,-2.2649,-2.2035,-2.2696,-2.2625,0.0,-2.2704,-2.2617,-2.2067,-2.272,-2.2593,-2.2083,-2.2736,-2.3014,-2.3014,-2.3014,-2.307,-2.3135,-2.3135,-2.3183,-2.3296,-2.3183,-2.3135,-2.3127,-2.3014,-2.2788,-2.24,-2.1831,-2.1439,-2.1211,-2.1211,-2.0728,-2.0183,-2.0183,-1.9747,-1.9331,-1.9532,-1.9524,-1.9576,-1.9791,-1.9687,-1.9524,-1.9524,-1.9428,-1.9428,-1.9783,-2.0287,-2.0654,-2.054,-2.1315,-2.1689,-2.1186,-2.1355,-2.2164,-2.3927,-2.3894,-2.3797,-2.3797,-2.3667,-2.359,-2.359,-2.3406,-2.3406,-2.359,-2.359,-2.3667,-2.3797,-2.3894,-2.4024,-2.4206,-2.4411,-2.4302,0.0,-1.4953,-1.5143,-1.4886,-1.4238,-1.3357,-1.2274,-1.2081,-1.2053,-1.1845,-1.2318,-1.2821,-1.2911,-1.3192,-1.3486,-1.3695,-1.4308,0.0,0.0,0.0,0.0,0.0,0.0,0.0,0.0,0.0,0.0,0.0,0.0,0.0,-2.2085,-2.223,-2.223,-2.2116,-2.2286,-2.2456,-2.257,-2.2796,-2.2901,-2.3014,-2.3014,-2.2649,-2.2035,-2.2696,-2.2625,-2.2051,-2.2704,-2.2768,0.0,-2.2831,-2.2752,-2.2402,-2.2847,-2.3014,-2.3014,-2.3014,-2.3014,-2.3014,-2.3014,-2.3014,-2.3014,-2.3014,-2.3014,-2.2958,-2.2901,-2.257,-2.2173,-2.1554,-2.1382,-2.1382,-2.1211,-2.0728,-2.0183,-2.0183,-1.9747,-1.9279,-1.9279,-1.9279,-1.9279,-1.9279,-1.9279,-1.9279,-1.9279,-1.9279,-1.9279,-1.9279,-1.9879,-2.0038,-1.931,-2.0127,-2.0512,-1.977,-2.0014,-2.0863,-2.2536,-2.2896,-2.2994,-2.2994,-2.3222,-2.3373,-2.3373,-2.3188,-2.3188,-2.3373,-2.3373,-2.3406,-2.3537,-2.3624,-2.3807,-2.4067,-2.4196,-2.4086,0.0,0.0,0.0,0.0,-1.2173,-1.161,-1.161,-1.1032,0.0,-1.1707,-1.2643,-1.3227,-1.2936,-1.362,-1.387,-1.2837,-1.4238,0.0,0.0,0.0,0.0,0.0,0.0,0.0,0.0,0.0,0.0,0.0,0.0,0.0,-2.2165,-2.2456,-2.2456,-2.2173,-2.2116,-2.2286,-2.257,-2.2626,-2.2716,-2.2878,-2.299,-2.2617,-2.1963,-2.2672,-2.2625,0.0,-2.2704,-2.2958,-2.2958,-2.2958,-2.2958,-2.2958,-2.3014,-2.3014,-2.3014,-2.3014,-2.3014,-2.3014,-2.3014,-2.3014,-2.3014,-2.3014,-2.3014,-2.2958,-2.2683,-2.2626,-2.2456,-2.1896,-2.1725,-2.166,-2.1296,-2.0706,-2.023,-2.0154,-1.9725,-1.9279,-1.9279,-1.9279,-1.9279,-1.9279,-1.9279,-1.9279,-1.9279,-1.9279,-1.9279,-1.9279,-1.9279,-1.9038,-1.8386,-1.9128,-1.943,-1.8775,-1.9467,-2.0005,-2.0005,-2.0962,-2.1606,-2.1695,-2.2511,-2.3047,-2.3091,-2.3091,-2.3091,-2.3091,-2.3091,-2.3091,-2.3091,-2.3373,-2.359,-2.3797,-2.3797,-2.3797,-0.9849,0.0,-1.1373,-1.1127,-1.091,-1.0783,0.0,-1.0645,-1.0953,-1.2469,0.0,0.0,-1.3697,-1.4637,-1.4879,-1.3427,0.0,0.0,0.0,0.0,0.0,0.0,0.0,0.0,0.0,0.0,0.0,0.0,0.0,-2.2845,-2.2788,-2.2845,-2.2796,-2.2513,-2.2456,-2.24,-2.223,-2.2683,-2.2577,-2.1877,-2.264,-2.2363,-2.1211,-2.245,-2.2625,-2.2051,-2.2489,-2.2683,-2.2683,-2.2683,-2.2683,-2.274,-2.2901,-2.3014,-2.3014,-2.3014,-2.3014,-2.3014,-2.3014,-2.3014,-2.3014,-2.3014,-2.3014,-2.3014,-2.2909,-2.274,-2.2513,-2.2116,-2.2002,-2.1885,-2.1354,-2.087,-2.0451,-1.9984,-1.9564,-1.9279,-1.9279,-1.9279,-1.9279,-1.9279,-1.9279,-1.9279,-1.9279,-1.9279,-1.9279,-1.9279,-1.9279,-1.9038,-1.8386,-1.8496,-1.8383,-1.772,-1.7831,-1.7963,-1.7963,-1.955,-2.0872,-2.165,-2.1926,-2.2369,-2.3047,-2.3091,-2.3091,-2.3091,-2.3091,-2.3091,-2.3091,-2.3373,-2.3503,-2.358,-2.3711,-2.3797,-0.9398,-1.0057,-1.0846,-1.1114,-1.0846,-1.0615,-1.1074,0.0,0.0,0.0,0.0,0.0,0.0,0.0,0.0,0.0,0.0,0.0,0.0,0.0,0.0,0.0,0.0,0.0,0.0,0.0,0.0,0.0,0.0,-2.3014,-2.3014,-2.3014,-2.2901,-2.2796,-2.2796,-2.2626,-2.2343,-2.2513,-2.2323,-2.175,-2.2458,-2.234,-2.1433,-2.2356,-2.264,-2.2285,-2.2174,-2.2218,-2.2377,-2.2164,-2.2274,-2.2626,-2.274,-2.2901,-2.3014,-2.3014,-2.3014,-2.2958,-2.2853,-2.2732,-2.2619,-2.2796,-2.2796,-2.2853,-2.2958,-2.2901,-2.274,-2.24,-2.2343,-2.2184,-2.1613,-2.1095,-2.0575,-2.0072,-1.9616,-1.9279,-1.9279,-1.9279,-1.9279,-1.9279,-1.9279,-1.9279,-1.9279,-1.9279,-1.9279,-1.9279,-1.9279,-1.9038,-1.8386,-1.8299,-1.805,-1.7352,-1.7279,-1.7279,-1.7279,-1.828,-1.9285,-2.0286,-2.1195,-2.1926,-2.2457,-2.2862,-2.3091,-2.3091,-2.3091,-2.3091,-2.3091,-2.3232,-2.3319,-2.3319,-2.345,-2.3484,-0.9398,-1.0002,-1.0878,-1.1781,-1.1281,-1.0838,-1.1789,0.0,0.0,0.0,0.0,0.0,0.0,0.0,0.0,0.0,0.0,0.0,0.0,0.0,0.0,0.0,0.0,0.0,0.0,0.0,0.0,0.0,0.0,-2.3014,-2.3014,-2.3014,-2.3014,-2.3014,-2.2966,-2.2822,-2.2605,-2.2369,-2.2108,-2.1911,-2.2402,-2.2403,-2.1902,-2.2395,-2.2573,-2.2495,0.0,0.0,-2.1974,-2.1713,-2.1955,-2.25,-2.2603,-2.2796,-2.3014,-2.3014,-2.3014,-2.2958,-2.2683,-2.24,-2.2222,-2.2456,-2.257,-2.2626,-2.2845,-2.2958,-2.2958,-2.274,-2.2683,-2.2498,-2.1828,-2.1241,-2.0659,-2.0233,-1.9711,-1.9279,-1.9279,-1.9279,-1.9279,-1.9279,-1.9279,-1.9279,-1.9279,-1.9279,-1.9279,-1.9279,-1.9279,-1.9038,-1.8386,-1.8299,-1.805,-1.7352,-1.7279,-1.7279,-1.7279,-1.7279,-1.7645,-1.8519,-2.024,-2.1373,-2.1695,-2.2599,-2.3091,-2.3091,-2.3091,-2.3091,-2.3091,-2.3091,-2.3091,-2.3091,-2.3091,-2.3091,-0.9398,-1.0343,-1.1447,-1.19,-1.1463,-1.1106,-1.1853,0.0,0.0,0.0,0.0,0.0,0.0,0.0,0.0,0.0,0.0,0.0,0.0,0.0,0.0,0.0,0.0,0.0,0.0,0.0,0.0,0.0,0.0,-2.3014,-2.3014,-2.3014,-2.3014,-2.3014,-2.272,-2.2569,-2.2514,-2.2751,-2.2434,-2.1588,-2.2506,-2.2442,-2.1499,-2.2197,-2.2347,-2.2062,0.0,-2.1527,-2.1589,-2.183,-2.1969,-2.2149,-2.2726,-2.2958,-2.3014,-2.3014,-2.3014,-2.2958,-2.2683,-2.257,-2.2456,-2.223,-2.2343,-2.2626,-2.2626,-2.2796,-2.3014,-2.2958,-2.2958,-2.2725,-2.1869,-2.1336,-2.087,-2.0062,-1.955,-1.9279,-1.9279,-1.9279,-1.9279,-1.9279,-1.9279,-1.9279,-1.9279,-1.9279,-1.9279,-1.9279,-1.9279,-1.9038,-1.8386,-1.8299,-1.805,-1.7352,-1.7279,-1.7279,-1.7279,-1.7279,-1.7372,-1.7512,-1.8603,-1.9968,-2.165,-2.2599,-2.3091,-2.3091,-2.3091,-2.3091,-2.3091,-2.3091,-2.3091,-2.3091,-2.3091,-2.3091,-0.9306,-1.0245,-1.1403,-1.2189,-1.1962,-1.1932,-1.3394,0.0,0.0,0.0,0.0,0.0,0.0,0.0,0.0,0.0,0.0,0.0,0.0,0.0,0.0,0.0,0.0,0.0,0.0,0.0,0.0,0.0,0.0,0.0,-2.2678,-2.2678,-2.2678,-2.2678,-2.2681,-2.2646,-2.2646,-2.2816,-2.2371,-2.1401,-2.2062,-2.2051,-2.1342,-2.1932,-2.2,-2.1718,0.0,-2.1077,-2.1295,-2.1193,-2.1488,-2.2056,-2.2331,-2.2679,-2.3014,-2.3014,-2.2788,-2.2505,-2.2343,-2.2116,-2.1888,-2.2059,-2.223,-2.24,-2.274,-2.2901,-2.2918,-2.2616,-2.2647,-2.2644,-2.203,-2.1516,-2.1018,-2.0362,-1.9876,-1.9544,-1.9517,-1.9376,-1.9279,-1.9279,-1.9279,-1.9279,-1.9279,-1.9279,-1.9279,-1.9279,-1.9279,-1.9038,-1.8386,-1.8299,-1.805,-1.7352,-1.7279,-1.7279,-1.7279,-1.7279,-1.7512,-1.8064,-1.8565,-1.9422,-2.0827,-2.132,-2.1552,-2.1552,-2.1418,-2.1373,-2.1373,-2.1373,-2.1284,-2.1177,-2.1961,-2.2271,-0.8906,-0.9657,-1.0755,-1.1728,0.0,-1.2286,-1.4289,-1.2827,0.0,0.0,0.0,0.0,0.0,0.0,0.0,0.0,0.0,0.0,0.0,0.0,0.0,0.0,0.0,0.0,0.0,0.0,0.0,0.0,0.0,0.0,-2.1704,-2.1704,-2.1704,-2.1704,-2.1832,-2.1892,-2.1892,-2.2078,-2.201,-2.1637,-2.1985,-2.1912,-2.1523,-2.1848,-2.1783,-2.1413,-2.0896,-2.081,-2.104,-2.0817,-2.1198,-2.2033,-2.2064,-2.2474,-2.3014,-2.3014,-2.2732,-2.2279,-2.223,-2.1888,-2.1603,-2.2002,-2.2173,-2.2279,-2.2796,-2.2958,-2.2902,-2.2418,-2.2361,-2.2284,-2.1994,-2.1518,-2.1043,-2.0617,-2.0145,-1.9737,-1.9636,-1.9428,-1.9279,-1.9279,-1.9279,-1.9279,-1.9279,-1.9279,-1.9279,-1.9279,-1.9279,-1.9038,-1.8386,-1.8299,-1.805,-1.7352,-1.7279,-1.7279,-1.7279,-1.7279,-1.7652,-1.838,-1.865,-1.9109,-1.9824,-2.0096,-2.0187,-2.0187,-2.0059,-1.9977,-1.9977,-1.9931,-1.9832,-1.9679,-2.0782,-2.132,-0.7891,-0.8473,-0.9251,-0.9702,-1.0441,0.0,-1.3006,-1.1514,0.0,-1.3963,0.0,0.0,0.0,0.0,0.0,0.0,0.0,0.0,0.0,0.0,0.0,0.0,0.0,0.0,0.0,0.0,0.0,0.0,0.0,0.0,-1.9716,-1.9716,-1.9716,-1.9716,-1.937,-1.9152,-1.9152,-1.9934,-2.1081,-2.2704,-2.2708,-2.258,-2.2253,-2.2251,-2.1931,-2.1296,-2.1248,-2.1102,-2.0917,-2.1246,-2.1587,-2.2029,-2.2355,-2.2704,-2.3014,-2.3014,-2.2958,-2.2901,-2.2626,-2.2513,-2.2456,-2.2173,-2.2286,-2.257,-2.2626,-2.2796,-2.3006,-2.2926,-2.2313,-2.1587,-2.1316,-2.1178,-2.0968,-2.0347,-1.9968,-1.9658,-1.9383,-1.9324,-1.9279,-1.9279,-1.9279,-1.9279,-1.9279,-1.9279,-1.9279,-1.9279,-1.9279,-1.9038,-1.8386,-1.8299,-1.805,-1.7352,-1.7279,-1.7279,-1.7279,-1.7279,-1.7326,-1.7419,-1.8288,-1.8834,-1.888,-1.9741,-2.0187,-2.0187,-2.0187,-2.0187,-2.0187,-1.9977,-1.9977,-2.0141,-2.0068,-2.061,-0.7445,-0.7985,-0.8697,-0.9284,-0.9577,0.0,0.0,-1.152,-1.0987,-1.3916,-1.2921,0.0,0.0,0.0,0.0,0.0,0.0,0.0,0.0,0.0,0.0,0.0,0.0,0.0,0.0,0.0,0.0,0.0,0.0,0.0,-1.9078,-1.9078,-1.9078,-1.9078,-1.9055,-1.9096,-1.9096,-1.9398,-1.9881,-2.0557,-2.1767,-2.2278,-2.2188,-2.1991,-2.1814,-2.1522,-2.1224,-2.107,-2.1138,-2.1119,-2.1322,-2.1695,-2.2267,-2.225,-2.1866,-2.1866,-2.1281,-2.0465,-2.0357,-2.0658,-2.1189,-2.1238,-2.1873,-2.257,-2.257,-2.2796,-2.2814,-2.204,-2.203,-2.2152,-2.1769,-2.1133,-2.0505,-2.0458,-2.012,-1.9724,-1.9576,-1.9428,-1.9279,-1.9279,-1.9279,-1.9279,-1.9279,-1.9279,-1.9279,-1.9279,-1.9279,-1.9111,-1.8664,-1.843,-1.813,-1.7677,-1.7403,-1.7279,-1.7279,-1.7279,-1.7279,-1.7279,-1.7645,-1.7878,-1.7878,-1.8187,-1.8419,-1.8419,-1.8288,-1.8203,-1.8203,-1.8118,-1.8064,-1.8002,-1.9422,-2.024,-0.6748,-0.7056,-0.7505,-0.82,0.0,0.0,-1.1248,-1.0877,-1.0724,-1.3258,0.0,0.0,0.0,0.0,0.0,0.0,0.0,0.0,0.0,0.0,0.0,0.0,0.0,0.0,0.0,0.0,0.0,0.0,0.0,0.0,0.0,-1.7615,-1.7667,-1.7884,-1.8087,-1.8185,-1.8185,-1.8499,-1.8715,-1.8715,-2.0364,-2.1344,-2.1709,-2.1514,-2.1412,-2.1259,-2.0439,-2.0388,-2.0755,-2.013,-2.0061,-2.0431,-2.1095,-2.0981,-2.0366,-2.0466,-1.9804,-1.881,-1.881,-1.9216,-1.987,-2.053,-2.1304,-2.2133,-2.2587,-2.2845,-2.2806,-2.1938,-2.1985,-2.2244,-2.2049,-2.1323,-2.0631,-2.0613,-2.031,-1.9964,-1.9732,-1.9576,-1.9376,-1.9324,-1.9279,-1.9279,-1.9279,-1.9279,-1.9279,-1.9279,-1.9279,-1.9162,-1.8833,-1.8503,-1.8138,-1.7706,-1.7465,-1.7279,-1.7279,-1.7279,-1.7333,-1.7426,-1.7333,-1.7279,-1.7279,-1.7279,-1.7279,-1.7279,-1.7153,-1.7113,-1.7113,-1.7026,-1.6925,-1.6864,-1.8465,-1.9338,-0.5662,-0.5467,-0.5467,0.0,0.0,0.0,-0.8961,-0.934,-0.9775,-1.1787,0.0,0.0,0.0,0.0,0.0,0.0,0.0,0.0,0.0,0.0,0.0,0.0,0.0,0.0,0.0,0.0,0.0,0.0,0.0,0.0,0.0,-1.4982,-1.525,-1.5838,-1.5891,-1.5891,-1.5891,-1.7001,-1.7582,-1.7582,-1.8662,-1.9797,-2.0885,-2.0885,-2.0731,-2.0431,-1.902,-1.8871,-1.9569,-1.8185,-1.7775,-1.8158,-1.8749,-1.8803,-1.8588,-1.887,-1.8796,-1.8547,-1.8547,-1.8547,-1.8816,-2.0282,-2.0773,-2.1063,-2.2494,-2.295,-2.2942,-2.2942,-2.2277,-2.158,-2.1896,-2.168,-2.1317,-2.0719,-2.0547,-2.0359,-1.9783,-1.968,-1.9628,-1.9324,-1.9272,-1.9272,-1.9279,-1.9279,-1.9279,-1.9279,-1.9279,-1.9162,-1.8825,-1.8503,-1.805,-1.7399,-1.7333,-1.7333,-1.7333,-1.7333,-1.7426,-1.7675,-1.7426,-1.7333,-1.7279,-1.7279,-1.7279,-1.7279,-1.7279,-1.7279,-1.7279,-1.7113,-1.7113,-1.7279,-1.7113,-1.766,-0.6053,-0.602,0.0,0.0,0.0,0.0,0.0,-0.8704,0.0,0.0,0.0,0.0,0.0,0.0,0.0,0.0,0.0,0.0,0.0,0.0,0.0,0.0,0.0,0.0,0.0,0.0,0.0,0.0,0.0,0.0,0.0,-1.4439,-1.4546,-1.4708,-1.5089,-1.525,-1.525,-1.6045,-1.6418,-1.6418,-1.7516,-1.8662,-1.9694,-1.9495,-1.9495,-1.9539,-1.8774,-1.867,-1.8982,-1.8192,-1.7941,-1.8063,-1.7836,-1.7319,-1.6714,-1.6793,-1.6212,-1.5417,-1.5823,-1.6546,-1.7328,-1.7527,-1.8223,-1.9015,-1.9222,-1.9125,-1.8952,-1.8638,-1.8432,-1.8187,-1.7775,-1.7755,-1.8218,-1.9619,-1.9807,-1.948,-1.8893,-1.8788,-1.8736,-1.8684,-1.8691,-1.8743,-1.8974,-1.9026,-1.9078,-1.9272,-1.9279,-1.9074,-1.8518,-1.852,-1.8308,-1.7648,-1.7761,-1.7846,-1.7846,-1.7846,-1.7753,-1.7426,-1.7707,-1.7761,-1.7581,-1.738,-1.7279,-1.7279,-1.7279,-1.7279,-1.7279,-1.7239,-1.7239,-1.7326,-1.7971,-1.8473,-0.6173,0.0,0.0,0.0,0.0,0.0,0.0,0.0,0.0,0.0,0.0,0.0,0.0,0.0,0.0,0.0,0.0,0.0,0.0,0.0,0.0,0.0,0.0,0.0,0.0,0.0,0.0,0.0,0.0,0.0,0.0,-1.3851,-1.3954,-1.4169,-1.4493,-1.4659,-1.4659,-1.503,-1.5244,-1.5244,-1.5933,-1.6611,-1.7226,-1.7982,-1.8297,-1.8171,-1.7496,-1.6975,-1.6658,-1.6764,-1.6486,-1.6,-1.5873,-1.5291,-1.4534,-1.4742,-1.4218,-1.342,-1.376,-1.4362,-1.5083,-1.5511,-1.6145,-1.6876,-1.7265,-1.729,-1.708,-1.6863,-1.6741,-1.6588,-1.6102,-1.606,-1.6442,-1.7838,-1.8349,-1.8461,-1.7982,-1.7871,-1.7982,-1.8318,-1.8048,-1.7937,-1.8593,-1.8705,-1.875,-1.8907,-1.8952,-1.8722,-1.8088,-1.8108,-1.7967,-1.7319,-1.7387,-1.752,-1.752,-1.752,-1.7434,-1.72,-1.738,-1.7481,-1.7402,-1.7434,-1.7426,-1.7279,-1.7279,-1.7279,-1.7279,-1.7279,-1.7279,-1.7326,-1.7924,-1.8195,-0.6241,0.0,0.0,0.0,0.0,0.0,0.0,0.0,0.0,0.0,0.0,0.0,0.0,0.0,0.0,0.0,0.0,0.0,0.0,0.0,0.0,0.0,0.0,0.0,0.0,0.0,0.0,0.0,0.0,0.0,0.0,-1.3207,-1.3472,-1.4008,-1.4116,-1.4116,-1.4116,-1.4169,-1.4223,-1.4223,-1.4223,-1.4223,-1.4277,-1.6358,-1.6988,-1.644,-1.5636,-1.4524,-1.3423,-1.4428,-1.4105,-1.2955,-1.3422,-1.3102,-1.246,-1.2925,-1.2817,-1.2387,-1.2441,-1.2436,-1.2628,-1.3936,-1.4378,-1.4636,-1.6016,-1.642,-1.6365,-1.642,-1.613,-1.5777,-1.5777,-1.5558,-1.5346,-1.5346,-1.6309,-1.7213,-1.689,-1.6837,-1.7061,-1.7825,-1.718,-1.681,-1.7884,-1.8048,-1.8101,-1.8206,-1.8318,-1.8212,-1.7624,-1.7519,-1.7331,-1.6734,-1.665,-1.6676,-1.6676,-1.6676,-1.673,-1.6932,-1.6777,-1.673,-1.6932,-1.7347,-1.7488,-1.7239,-1.7239,-1.7232,-1.7286,-1.7286,-1.7279,-1.7279,-1.7279,-1.7279,0.0,0.0,0.0,0.0,0.0,0.0,0.0,0.0,0.0,0.0,0.0,0.0,0.0,0.0,0.0,0.0,0.0,0.0,0.0,0.0,0.0,0.0,0.0,0.0,0.0,0.0,0.0,0.0,0.0,0.0,-1.2604,-1.2604,-1.2659,-1.2762,-1.3256,-1.3478,-1.3478,-1.3954,-1.4223,-1.4223,-1.4223,-1.4223,-1.4218,-1.4702,-1.4857,-1.475,-1.4535,-1.4116,-1.364,-1.3856,-1.3689,-1.3157,-1.2816,-1.2588,-1.2391,-1.2543,-1.237,-1.2169,-1.2604,-1.2604,-1.2446,-1.2538,-1.2548,-1.2607,-1.2924,-1.2714,-1.238,-1.2659,-1.2352,-1.1877,-1.1877,-1.1846,-1.1819,-1.1819,-1.3696,-1.5411,-1.4877,-1.477,-1.4824,-1.499,-1.4829,-1.4829,-1.5322,-1.5429,-1.5802,-1.6916,-1.7832,-1.8289,-1.7918,-1.786,-1.7668,-1.7284,-1.7203,-1.7138,-1.7138,-1.7138,-1.7005,-1.673,-1.6958,-1.6918,-1.6414,-1.6683,-1.6824,-1.677,-1.677,-1.6871,-1.7066,-1.7066,-1.7153,-1.7279,-1.7279,-1.7279,0.0,0.0,0.0,0.0,0.0,0.0,0.0,0.0,0.0,0.0,0.0,0.0,0.0,0.0,0.0,0.0,0.0,0.0,0.0,0.0,0.0,0.0,0.0,0.0,0.0,0.0,0.0,0.0,0.0,-1.2005,-1.2005,-1.2005,-1.2005,-1.2005,-1.2441,-1.2659,-1.2659,-1.3142,-1.3359,-1.3359,-1.3359,-1.3359,-1.3359,-1.363,-1.3797,-1.3743,-1.3467,-1.3251,-1.3093,-1.3093,-1.293,-1.2659,-1.2495,-1.2223,-1.2005,-1.2169,-1.206,-1.1841,-1.2169,-1.2169,-1.1951,-1.1673,-1.1568,-1.1564,-1.14,-1.1181,-1.0966,-1.1131,-1.0966,-1.0692,-1.0692,-1.0692,-1.0692,-1.0692,-1.225,-1.3647,-1.3329,-1.3275,-1.3437,-1.397,-1.3652,-1.3491,-1.4245,-1.484,-1.5482,-1.6227,-1.7305,-1.7893,-1.7651,-1.745,-1.7196,-1.6891,-1.6723,-1.6581,-1.6581,-1.6581,-1.6487,-1.6204,-1.644,-1.6393,-1.6028,-1.6163,-1.6353,-1.6581,-1.6588,-1.6683,-1.6831,-1.6831,-1.6925,-1.7153,-1.7153,-1.7192,0.0,0.0,0.0,0.0,0.0,0.0,0.0,0.0,0.0,0.0,0.0,0.0,0.0,0.0,0.0,0.0,0.0,0.0,0.0,0.0,0.0,0.0,0.0,0.0,0.0,0.0,0.0,0.0,0.0,-1.1623,-1.1623,-1.1623,-1.1623,-1.1623,-1.1841,-1.2005,-1.1951,-1.2223,-1.2332,-1.2332,-1.2387,-1.2387,-1.2441,-1.2935,-1.3152,-1.3098,-1.2604,-1.2387,-1.2387,-1.2387,-1.2273,-1.2114,-1.2327,-1.2114,-1.1787,-1.2005,-1.1896,-1.1678,-1.1678,-1.1623,-1.1568,-1.1291,-1.1181,-1.1131,-1.0857,-1.0747,-1.0747,-1.0692,-1.0692,-1.0692,-1.0692,-1.0692,-1.0692,-1.0692,-1.1391,-1.2096,-1.2096,-1.2096,-1.2413,-1.3329,-1.2738,-1.2417,-1.3329,-1.4513,-1.5322,-1.5322,-1.6287,-1.6904,-1.6672,-1.6508,-1.6308,-1.6121,-1.5888,-1.5784,-1.5784,-1.5784,-1.5784,-1.5784,-1.5784,-1.5784,-1.5784,-1.5784,-1.6015,-1.6447,-1.644,-1.6494,-1.6541,-1.6541,-1.6683,-1.6932,-1.6932,-1.7019,0.0,0.0,0.0,0.0,0.0,0.0,0.0,0.0,0.0,0.0,0.0,0.0,0.0,0.0,0.0,0.0,0.0,0.0,0.0,0.0,0.0,0.0,0.0,0.0,0.0,0.0,0.0,0.0,-1.1623,-1.1623,-1.1623,-1.1841,-1.1841,-1.1623,-1.1841,-1.1896,-1.1678,-1.1896,-1.206,-1.206,-1.2278,-1.2387,-1.2387,-1.2495,-1.2495,-1.2495,-1.2436,-1.2387,-1.2387,-1.2387,-1.2387,-1.2327,-1.2382,-1.2387,-1.2278,-1.2332,-1.2169,-1.1951,-1.1951,-1.1787,-1.1568,-1.1568,-1.1514,-1.1459,-1.1126,-1.1072,-1.1021,-1.0747,-1.0692,-1.0692,-1.0692,-1.0692,-1.0692,-1.0692,-1.0802,-1.0907,-1.0907,-1.0907,-1.0962,-1.1126,-1.1017,-1.0962,-1.1122,-1.2096,-1.2847,-1.2847,-1.3868,-1.455,-1.4522,-1.4953,-1.521,-1.5174,-1.5564,-1.5784,-1.5784,-1.5784,-1.5784,-1.5784,-1.5784,-1.5784,-1.5784,-1.5784,-1.5832,-1.5927,-1.5927,-1.6021,-1.6265,-1.6265,-1.6407,-1.6636,-1.6636,-1.6683,0.0,0.0,0.0,0.0,0.0,0.0,0.0,0.0,0.0,0.0,0.0,0.0,0.0,0.0,0.0,0.0,0.0,0.0,0.0,0.0,0.0,0.0,0.0,0.0,0.0,0.0,0.0,0.0,-1.1076,-1.1185,-1.1295,-1.1459,-1.1514,-1.1623,-1.1732,-1.1732,-1.1623,-1.1732,-1.1787,-1.1787,-1.206,-1.2169,-1.2164,-1.2332,-1.2387,-1.2387,-1.2387,-1.2387,-1.2387,-1.2387,-1.2387,-1.2387,-1.2387,-1.2387,-1.2382,-1.2219,-1.2223,-1.2164,-1.1896,-1.1787,-1.1787,-1.1623,-1.1623,-1.1568,-1.1404,-1.14,-1.1295,-1.1021,-1.0907,-1.0911,-1.0747,-1.0692,-1.0692,-1.0692,-1.0692,-1.0692,-1.0692,-1.0692,-1.0692,-1.0692,-1.0692,-1.0692,-1.0692,-1.1664,-1.2417,-1.2417,-1.3383,-1.4078,-1.4078,-1.4093,-1.4106,-1.4106,-1.4103,-1.4082,-1.4082,-1.4621,-1.4968,-1.4968,-1.5493,-1.5784,-1.5784,-1.5784,-1.5784,-1.5784,-1.5784,-1.5879,-1.5981,-1.5981,-1.6123,-1.6359,-1.6359,-1.6447,0.0,0.0,0.0,0.0,0.0,0.0,0.0,0.0,0.0,0.0,0.0,0.0,0.0,0.0,0.0,0.0,0.0,0.0,0.0,0.0,0.0,0.0,0.0,0.0,0.0,0.0,0.0,0.0,-1.0762,-1.0791,-1.1004,-1.1156,-1.1295,-1.1459,-1.1623,-1.1678,-1.1623,-1.1623,-1.1623,-1.1623,-1.1787,-1.1896,-1.1896,-1.2169,-1.2278,-1.2273,-1.2387,-1.2387,-1.2387,-1.2387,-1.2387,-1.2387,-1.2387,-1.2387,-1.2387,-1.2169,-1.2219,-1.2327,-1.1946,-1.1896,-1.1951,-1.1787,-1.1678,-1.1623,-1.1623,-1.1623,-1.1568,-1.1295,-1.1236,-1.1185,-1.0966,-1.0857,-1.0802,-1.0802,-1.0747,-1.0692,-1.0692,-1.0692,-1.0692,-1.0692,-1.0692,-1.0692,-1.0692,-1.1391,-1.1987,-1.1987,-1.2684,-1.3221,-1.3221,-1.3105,-1.2987,-1.2987,-1.2819,-1.2678,-1.2678,-1.3414,-1.3902,-1.3902,-1.4621,-1.5003,-1.5003,-1.5003,-1.5003,-1.5003,-1.5296,-1.554,-1.5784,-1.5784,-1.5879,-1.6076,-1.6076,-1.6218,0.0,0.0,0.0,0.0,0.0,0.0,0.0,0.0,0.0,0.0,0.0,0.0,0.0,0.0,0.0,0.0,0.0,0.0,0.0,0.0,0.0,0.0,0.0,0.0,0.0,0.0,0.0,0.0,-1.082,-1.0823,-1.0819,-1.1309,-1.1459,-1.1126,-1.1673,-1.1841,-1.1623,-1.1623,-1.1623,-1.1623,-1.1623,-1.1623,-1.1623,-1.1896,-1.2001,-1.2005,-1.2278,-1.2387,-1.2387,-1.2387,-1.2387,-1.2387,-1.2387,-1.2387,-1.2387,-1.2382,-1.2382,-1.2387,-1.2387,-1.2223,-1.2005,-1.2001,-1.1787,-1.1623,-1.1623,-1.1623,-1.1623,-1.1568,-1.1568,-1.1568,-1.1568,-1.1295,-1.1076,-1.1076,-1.0852,-1.0692,-1.0692,-1.0692,-1.0692,-1.0692,-1.0692,-1.0692,-1.0692,-1.0747,-1.0798,-1.0798,-1.0852,-1.0852,-1.0852,-1.1433,-1.1808,-1.1808,-1.2323,-1.2678,-1.2678,-1.2732,-1.278,-1.278,-1.2823,-1.2872,-1.2872,-1.2872,-1.2872,-1.2872,-1.3854,-1.4873,-1.5784,-1.5784,-1.5832,-1.5825,-1.5825,-1.5832,0.0,0.0,0.0,0.0,0.0,0.0,0.0,0.0,0.0,0.0,0.0,0.0,0.0,0.0,0.0,0.0,0.0,0.0,0.0,0.0,0.0,0.0,0.0,0.0,0.0,0.0,0.0,0.0,0.0,-1.0677,-1.1185,-1.1129,-1.125,-1.1556,-1.1696,-1.1715,-1.1618,-1.1404,-1.1291,-1.1291,-1.1291,-1.1291,-1.1291,-1.1618,-1.1841,-1.2005,-1.211,-1.2223,-1.2387,-1.2387,-1.2387,-1.2387,-1.2387,-1.2278,-1.2164,-1.2164,-1.2164,-1.2114,-1.1951,-1.1951,-1.2005,-1.2005,-1.1951,-1.1841,-1.1841,-1.1841,-1.1841,-1.1623,-1.1623,-1.1623,-1.1623,-1.1514,-1.135,-1.1126,-1.0911,-1.0664,-1.055,-1.0615,-1.0692,-1.0692,-1.0692,-1.0692,-1.0692,-1.0692,-1.0692,-1.0692,-1.0692,-1.0692,-1.0692,-1.0699,-1.0729,-1.0729,-1.0737,-1.0694,-1.0694,-1.1321,-1.1755,-1.1755,-1.2339,-1.2678,-1.2678,-1.2678,-1.2678,-1.2678,-1.3071,-1.38,-1.4825,-1.5493,-1.5784,-1.5784,-1.5784,-1.5784,0.0,0.0,0.0,0.0,0.0,0.0,0.0,0.0,0.0,0.0,0.0,0.0,0.0,0.0,0.0,0.0,0.0,0.0,0.0,0.0,0.0,0.0,0.0,0.0,0.0,0.0,0.0,0.0,0.0,0.0,-1.114,-1.1065,-1.1231,-1.1756,-1.1745,-1.1672,-1.1532,-1.1317,-1.1156,-1.1048,-1.1048,-1.1048,-1.1048,-1.1375,-1.1639,-1.18,-1.1912,-1.2093,-1.2387,-1.2387,-1.2387,-1.2387,-1.2387,-1.2278,-1.2114,-1.2114,-1.2114,-1.2114,-1.1951,-1.1951,-1.2005,-1.2005,-1.1951,-1.1896,-1.1896,-1.1905,-1.1855,-1.1688,-1.1644,-1.1693,-1.1693,-1.159,-1.1424,-1.1102,-1.0837,-1.0642,-1.0474,-1.0535,-1.0586,-1.0526,-1.0513,-1.0513,-1.0513,-1.0513,-1.0513,-1.0513,-1.0513,-1.0513,-1.0513,-1.0306,-1.0118,-1.0118,-0.9807,-0.9579,-0.9579,-1.0256,-1.0641,-1.0641,-1.1272,-1.1663,-1.1663,-1.1663,-1.1663,-1.1663,-1.1999,-1.2538,-1.327,-1.428,-1.4956,-1.5302,-1.5302,-1.5493,0.0,0.0,0.0,0.0,0.0,0.0,0.0,0.0,0.0,0.0,0.0,0.0,0.0,0.0,0.0,0.0,0.0,0.0,0.0,0.0,0.0,0.0,0.0,0.0,0.0,0.0,0.0,0.0,-1.0734,-1.069,-1.0703,-1.1131,-1.1493,-1.1756,-1.1808,-1.1657,-1.1403,-1.1403,-1.1248,-1.0932,-1.088,-1.088,-1.0932,-1.1248,-1.1403,-1.1403,-1.1662,-1.1991,-1.2368,-1.2368,-1.2368,-1.2368,-1.2368,-1.2368,-1.2377,-1.2377,-1.2377,-1.2387,-1.2382,-1.2219,-1.2005,-1.1996,-1.1832,-1.1614,-1.1605,-1.1639,-1.1704,-1.1704,-1.172,-1.1766,-1.1817,-1.161,-1.13,-1.0984,-1.0781,-1.0625,-1.062,-1.0505,-1.0367,-1.0249,-1.0212,-1.0212,-1.0212,-1.0212,-1.0212,-1.0212,-1.0212,-1.0212,-1.0212,-0.9998,-0.9884,-0.9884,-0.973,-0.9579,-0.9579,-0.9579,-0.9628,-0.9628,-0.9628,-0.9628,-0.9628,-0.9628,-0.9628,-0.9628,-1.0645,-1.117,-1.117,-1.2193,-1.3264,-1.4298,-1.4346,-1.4873,-0.2683,0.0,0.0,0.0,0.0,0.0,0.0,0.0,0.0,0.0,0.0,0.0,0.0,0.0,0.0,0.0,0.0,0.0,0.0,0.0,0.0,0.0,0.0,0.0,0.0,0.0,0.0,0.0,-1.0779,-1.0679,-1.0775,-1.0888,-1.1089,-1.1291,-1.1498,-1.162,-1.1714,-1.1507,-1.1351,-1.1248,-1.104,-1.088,-1.088,-1.0984,-1.1196,-1.1403,-1.1455,-1.1675,-1.1987,-1.1987,-1.1987,-1.1987,-1.1987,-1.1928,-1.1903,-1.2117,-1.2044,-1.1896,-1.2273,-1.2219,-1.2037,-1.2056,-1.201,-1.1875,-1.1565,-1.1478,-1.149,-1.149,-1.1501,-1.1559,-1.1766,-1.161,-1.1403,-1.13,-1.104,-1.0794,-1.0664,-1.0625,-1.0535,-1.0252,-1.0212,-1.0212,-1.0212,-1.0212,-1.0212,-1.0212,-1.0212,-1.0212,-1.0212,-0.9998,-0.9884,-0.9884,-0.973,-0.9579,-0.9579,-0.9579,-0.9677,-0.9871,-0.9871,-0.9871,-0.9871,-1.0068,-1.0068,-0.9875,-1.0359,-1.0551,-1.0359,-1.1907,-1.3264,-1.4346,-1.5261,-1.5737,0.0,0.0,0.0,0.0,0.0,0.0,-0.2808,-0.3726,0.0,0.0,0.0,0.0,0.0,0.0,0.0,0.0,0.0,0.0,0.0,0.0,0.0,0.0,0.0,0.0,0.0,-1.001,-1.0207,-1.0355,-1.0583,-1.0747,-1.0939,-1.085,-1.0856,-1.0979,-1.1133,-1.1239,-1.1406,-1.1355,-1.1102,-1.0636,-1.0894,-1.0535,-0.9717,-1.0128,-1.023,-0.9975,-0.9975,-1.0073,-1.0226,-1.0226,-1.0835,-1.1817,-1.1817,-1.1789,-1.1743,-1.1901,-1.1866,-1.1754,-1.2017,-1.2075,-1.1896,-1.1939,-1.1954,-1.1878,-1.1544,-1.14,-1.1434,-1.1336,-1.1272,-1.1355,-1.1507,-1.1406,-1.1304,-1.1304,-1.0899,-1.0513,-1.041,-1.0134,-0.9962,-1.0222,-1.0192,-1.0145,-1.0145,-1.0039,-0.9941,-0.9941,-0.9941,-0.9941,-0.9941,-0.9843,-0.9778,-0.9778,-0.9689,-0.9579,-0.9579,-0.9579,-0.9727,-0.9969,-1.0019,-1.0068,-1.0167,-1.0314,-1.0314,-1.0167,-1.0314,-1.0265,-1.0019,-1.1037,-1.2058,-1.3028,-1.4184,-1.4956,0.0,0.0,0.0,0.0,0.0,0.0,-0.2132,-0.2535,-0.3178,0.0,0.0,0.0,0.0,0.0,0.0,0.0,0.0,0.0,0.0,0.0,0.0,0.0,0.0,0.0,-0.7971,-0.8669,-0.9065,-0.9065,-0.9908,-1.0551,-1.0797,-1.0551,-1.0458,-1.0458,-1.0458,-1.0502,-1.0551,-1.0748,-1.04,-0.9509,-1.0449,-0.9903,-0.812,-0.9061,-0.8962,-0.8021,-0.8021,-0.7971,-0.7922,-0.7922,-0.9287,-1.1382,-1.1382,-1.1395,-1.1414,-1.1414,-1.1376,-1.1342,-1.1342,-1.1291,-1.123,-1.1212,-1.1254,-1.1198,-1.0918,-1.0901,-1.0869,-1.0668,-1.0635,-1.0694,-1.0694,-1.0743,-1.0846,-1.0846,-1.0408,-0.9969,-0.9969,-0.9373,-0.9171,-1.0117,-1.0068,-0.9821,-0.9821,-0.9624,-0.948,-0.9525,-0.9575,-0.9579,-0.9579,-0.9628,-0.9628,-0.9628,-0.9579,-0.9579,-0.9579,-0.9579,-0.9727,-0.9969,-1.0019,-1.0117,-1.0364,-1.0413,-1.0413,-1.0413,-1.0413,-1.0314,-1.0019,-1.0117,-1.0551,-1.1219,-1.2242,-1.3355,0.0,0.0,0.0,0.0,0.0,0.0,-0.1944,-0.2023,-0.2275,0.0,0.0,0.0,0.0,0.0,0.0,0.0,0.0,0.0,0.0,0.0,0.0,0.0,0.0,0.0,-0.7971,-0.8124,-0.8219,-0.8219,-0.8223,-0.8226,-0.8322,-0.8276,-0.8223,-0.8223,-0.8421,-0.8665,-0.8859,-0.8715,-0.8718,-0.897,-0.8962,-0.8863,-0.8673,-0.8871,-0.8718,-0.8315,-0.8315,-0.7961,-0.736,-0.736,-0.7895,-0.8761,-0.8761,-0.8837,-0.8999,-0.8999,-0.8663,-0.8295,-0.8501,-0.8131,-0.7642,-0.7679,-0.7693,-0.7674,-0.7466,-0.7366,-0.7394,-0.7344,-0.7325,-0.7353,-0.7353,-0.8001,-0.8601,-0.8601,-0.9164,-0.9677,-0.9677,-0.9575,-0.9525,-0.9727,-0.9179,-0.873,-0.873,-0.868,-0.873,-0.8924,-0.9324,-0.9529,-0.9282,-0.9677,-0.9821,-0.9628,-0.9579,-0.9579,-0.9579,-0.9579,-0.9727,-0.9969,-1.0019,-1.0019,-1.0068,-1.0511,-1.0605,-1.0413,-1.0609,-1.0605,-1.0314,-1.0949,-1.1238,-1.1219,-1.2436,-1.3071,0.0,0.0,0.0,-0.1847,0.0,0.0,0.0,-0.1983,-0.2133,-0.2391,0.0,0.0,0.0,0.0,0.0,0.0,0.0,0.0,0.0,0.0,0.0,0.0,0.0,0.0,-0.5979,-0.6628,-0.7276,-0.7971,-0.7875,-0.7776,-0.7776,-0.768,-0.758,-0.758,-0.773,-0.7875,-0.8021,-0.8021,-0.7925,-0.7826,-0.7918,-0.7571,-0.683,-0.7074,-0.6822,-0.6226,-0.6226,-0.5974,-0.5622,-0.5622,-0.5774,-0.6079,-0.6869,-0.7253,-0.7362,-0.7362,-0.7149,-0.6899,-0.7049,-0.6845,-0.653,-0.6516,-0.6544,-0.6533,-0.6426,-0.641,-0.641,-0.641,-0.641,-0.641,-0.641,-0.6807,-0.7208,-0.7208,-0.7415,-0.7621,-0.7621,-0.7372,-0.7322,-0.7726,-0.7027,-0.693,-0.8531,-0.868,-0.8627,-0.8775,-0.9023,-0.9229,-0.9381,-0.9628,-0.9875,-0.9969,-1.0019,-0.9875,-0.9628,-0.9579,-0.9727,-0.9969,-0.9723,-0.9772,-1.0167,-1.0216,-1.0117,-1.0019,-1.0117,-1.0216,-1.0216,-1.0462,-1.0507,-1.04,-1.1086,-1.1614,0.0,0.0,0.0,0.0,0.0,-0.1868,0.0,0.0,0.0,-0.2245,0.0,0.0,0.0,0.0,0.0,0.0,0.0,0.0,0.0,0.0,0.0,0.0,0.0,0.0,-0.3924,-0.4995,-0.6082,-0.7071,-0.7226,-0.7226,-0.7226,-0.693,-0.6781,-0.688,-0.683,-0.6781,-0.688,-0.7077,-0.6924,-0.6431,-0.6825,-0.6226,-0.4834,-0.5229,-0.4929,-0.4085,-0.4085,-0.3984,-0.3833,-0.3833,-0.3781,-0.383,-0.537,-0.5917,-0.5914,-0.5864,-0.5815,-0.5715,-0.5665,-0.5563,-0.5463,-0.5463,-0.5463,-0.5463,-0.5463,-0.5463,-0.5463,-0.5463,-0.5463,-0.5463,-0.5463,-0.5615,-0.5765,-0.5765,-0.5617,-0.5422,-0.5422,-0.5125,-0.4974,-0.5627,-0.5079,-0.5327,-0.8131,-0.8226,-0.8024,-0.8276,-0.8425,-0.8722,-0.9278,-0.948,-0.9677,-1.0064,-1.0113,-0.9916,-0.9476,-0.9426,-0.9525,-0.9772,-0.9377,-0.9426,-1.0064,-0.9723,-0.9529,-0.9579,-0.9579,-0.9677,-0.9826,-0.9628,-0.9529,-0.9579,-0.9529,-1.0113,0.0,0.0,0.0,0.0,-0.1869,0.0,0.0,0.0,-0.2027,-0.2042,0.0,0.0,0.0,0.0,0.0,0.0,0.0,0.0,0.0,0.0,0.0,0.0,0.0,0.0,0.0,-0.4181,-0.4372,-0.4119,-0.4331,-0.4433,-0.4433,-0.3982,-0.3932,-0.4383,-0.3932,-0.3932,-0.4383,-0.418,-0.4431,-0.5035,-0.4836,-0.4786,-0.4784,-0.4883,-0.4684,-0.4338,-0.4338,-0.3934,-0.3281,-0.3281,-0.3027,-0.2672,-0.3828,-0.428,-0.423,-0.4028,-0.3627,-0.3175,-0.2923,-0.252,-0.217,-0.217,-0.217,-0.217,-0.217,-0.217,-0.217,-0.217,-0.217,-0.217,-0.217,-0.2871,-0.3572,-0.3572,-0.4223,-0.4874,-0.4874,-0.4824,-0.4824,-0.4924,-0.4824,-0.5077,-0.6179,-0.5529,-0.5279,-0.6484,-0.7077,-0.7673,-0.8432,-0.8935,-0.9179,-0.9023,-0.8973,-0.8973,-0.8874,-0.8874,-0.8924,-0.8924,-0.8874,-0.8874,-0.8973,-0.913,-0.9331,-0.9579,-0.9579,-0.948,-0.9286,-0.9282,-0.9381,-0.9579,-0.9331,-0.9331,0.0,0.0,0.0,0.0,0.0,0.0,-0.2138,0.0,-0.2106,0.0,0.0,0.0,0.0,0.0,0.0,0.0,-0.2002,0.0,0.0,0.0,0.0,0.0,0.0,0.0,0.0,0.0,0.0,0.0,-0.3745,-0.3745,-0.3647,-0.3371,-0.3281,-0.3531,-0.3331,-0.3331,-0.3531,-0.343,-0.363,-0.4081,-0.3833,-0.3833,-0.4081,-0.3932,-0.3833,-0.3684,-0.3684,-0.3533,-0.318,-0.318,-0.3079,-0.2927,-0.338,-0.333,-0.3077,-0.2924,-0.2774,-0.2573,-0.2422,-0.217,-0.1819,-0.1667,-0.1617,-0.1617,-0.1617,-0.1617,-0.1617,-0.1617,-0.1617,-0.1617,-0.1617,-0.1919,-0.227,-0.227,-0.2622,-0.2923,-0.2923,-0.2923,-0.3123,-0.3775,-0.3374,-0.3224,-0.4227,-0.4526,-0.4826,-0.5379,-0.5675,-0.6274,-0.7524,-0.7875,-0.8375,-0.9175,-0.9274,-0.9126,-0.8825,-0.8825,-0.8825,-0.8825,-0.8825,-0.8676,-0.8333,-0.8435,-0.8535,-0.8684,-0.8684,-0.8783,-0.8977,-0.8832,-0.8878,-0.9126,-0.9027,-0.8977,-0.1971,0.0,0.0,0.0,0.0,0.0,0.0,0.0,0.0,0.0,0.0,0.0,0.0,0.0,0.0,0.0,0.0,-0.1894,0.0,0.0,0.0,0.0,0.0,0.0,0.0,0.0,0.0,-0.3371,-0.3436,-0.3376,-0.319,-0.2986,-0.2928,-0.2977,-0.2827,-0.2777,-0.2879,-0.2879,-0.3027,-0.3277,-0.3078,-0.3077,-0.3277,-0.3128,-0.3079,-0.3079,-0.318,-0.318,-0.318,-0.318,-0.318,-0.318,-0.318,-0.2977,-0.2623,-0.2522,-0.2522,-0.2522,-0.2422,-0.2271,-0.207,-0.1869,-0.1818,-0.1818,-0.1818,-0.1818,-0.1818,-0.1818,-0.1768,-0.1718,-0.1718,-0.1667,-0.1617,-0.1617,-0.1617,-0.1617,-0.1617,-0.1617,-0.1818,-0.2622,-0.2119,-0.1869,-0.2622,-0.3423,-0.4024,-0.4325,-0.4373,-0.4874,-0.6373,-0.6523,-0.6974,-0.8173,-0.8273,-0.812,-0.7723,-0.7723,-0.7822,-0.8127,-0.8127,-0.8081,-0.7988,-0.7988,-0.7988,-0.7988,-0.7988,-0.8187,-0.8577,-0.8382,-0.8382,-0.8577,-0.8676,-0.8676,0.0,0.0,0.0,-0.2384,0.0,0.0,0.0,0.0,-0.2532,0.0,0.0,0.0,0.0,0.0,0.0,-0.1994,0.0,0.0,0.0,0.0,0.0,0.0,0.0,0.0,0.0,0.0,-0.2905,-0.2404,-0.2771,-0.2912,-0.2634,-0.2252,-0.2172,-0.2422,-0.1919,-0.1768,-0.2022,-0.2022,-0.2171,-0.2422,-0.2422,-0.2422,-0.2472,-0.2674,-0.2826,-0.2826,-0.3079,-0.318,-0.318,-0.318,-0.318,-0.318,-0.318,-0.318,-0.313,-0.2876,-0.2775,-0.2775,-0.2472,-0.2371,-0.2371,-0.2371,-0.2371,-0.2371,-0.2371,-0.2371,-0.2371,-0.2371,-0.2171,-0.1971,-0.1971,-0.1819,-0.1617,-0.1617,-0.1617,-0.1617,-0.1617,-0.1617,-0.1617,-0.1667,-0.1617,-0.1617,-0.1667,-0.1667,-0.207,-0.3073,-0.3274,-0.3624,-0.4724,-0.4874,-0.4874,-0.4924,-0.4974,-0.4924,-0.4924,-0.4924,-0.5377,-0.6434,-0.6487,-0.6936,-0.7942,-0.7988,-0.7988,-0.7988,-0.7988,-0.7988,-0.8038,-0.8041,-0.8041,-0.8038,-0.8283,-0.8432,0.0,0.0,-0.0356,-0.1481,0.0,0.0,0.0,0.0,0.0,0.0,0.0,0.0,0.0,0.0,-0.2013,-0.1951,-0.1908,0.0,0.0,0.0,0.0,0.0,0.0,0.0,0.0,0.0,0.0,-0.2331,-0.2503,-0.2495,-0.2286,-0.2028,-0.1897,-0.1994,-0.1745,-0.1667,-0.1718,-0.1718,-0.1768,-0.1869,-0.207,-0.2122,-0.2171,-0.2574,-0.2724,-0.2573,-0.3027,-0.3079,-0.2927,-0.313,-0.318,-0.318,-0.318,-0.318,-0.318,-0.3079,-0.3079,-0.3029,-0.2775,-0.2674,-0.2623,-0.2472,-0.2422,-0.2422,-0.2422,-0.2422,-0.2422,-0.2422,-0.2321,-0.2271,-0.2271,-0.2221,-0.2119,-0.2119,-0.1969,-0.1869,-0.1869,-0.1718,-0.1617,-0.1617,-0.1617,-0.1617,-0.1617,-0.1617,-0.1717,-0.207,-0.212,-0.2521,-0.3624,-0.3725,-0.4024,-0.4724,-0.4824,-0.4824,-0.4824,-0.4824,-0.4974,-0.5327,-0.5327,-0.5527,-0.5877,-0.5877,-0.6229,-0.6936,-0.6936,-0.7288,-0.7988,-0.7988,-0.7988,-0.7988,-0.8088,-0.8137,0.1461,0.1332,0.0,0.0,-0.0268,0.0,-0.1266,0.0,0.0,0.0,0.0,0.0,0.0,0.0,0.0,-0.1691,-0.1909,-0.2035,0.0,-0.1936,0.0,0.0,0.0,0.0,0.0,0.0,-0.2278,-0.2262,-0.2362,-0.2331,0.0,-0.2008,-0.1908,-0.1812,-0.1685,-0.1617,-0.1617,-0.1617,-0.1617,-0.1617,-0.1768,-0.1869,-0.1869,-0.2323,-0.2473,-0.2422,-0.2876,-0.3027,-0.2977,-0.313,-0.318,-0.318,-0.318,-0.318,-0.318,-0.318,-0.318,-0.318,-0.2977,-0.2927,-0.2927,-0.2725,-0.2674,-0.2674,-0.2674,-0.2674,-0.2678,-0.2696,-0.2638,-0.2527,-0.2594,-0.2484,-0.2422,-0.2422,-0.2271,-0.2121,-0.2121,-0.202,-0.1868,-0.1868,-0.1818,-0.1718,-0.1718,-0.1667,-0.1617,-0.1617,-0.1617,-0.1869,-0.2521,-0.2622,-0.2873,-0.3574,-0.3674,-0.3674,-0.3674,-0.3674,-0.3823,-0.4223,-0.4225,-0.4423,-0.4774,-0.4824,-0.5327,-0.6387,-0.6387,-0.6936,-0.7988,-0.7988,-0.7988,-0.7988,-0.7988,-0.7988]}]]